<?xml version='1.0' encoding='UTF-8'?>
<gpx version="1.1" creator="https://www.komoot.de" xmlns="http://www.topografix.com/GPX/1/1" xmlns:xsi="http://www.w3.org/2001/XMLSchema-instance" xsi:schemaLocation="http://www.topografix.com/GPX/1/1 http://www.topografix.com/GPX/1/1/gpx.xsd">
  <metadata>
    <name>RTF 2026 - Tour 2 (129 km - 1530 hm)</name>
    <author>
      <link href="https://www.komoot.de">
        <text>komoot</text>
        <type>text/html</type>
      </link>
    </author>
  </metadata>
  <trk>
    <name>RTF 2026 - Tour 2 (129 km - 1530 hm)</name>
    <trkseg>
      <trkpt lat="48.581898" lon="10.022061">
        <ele>604.042764</ele>
        <time>2025-11-11T18:23:48.534Z</time>
      </trkpt>
      <trkpt lat="48.581589" lon="10.022428">
        <ele>604.042764</ele>
        <time>2025-11-11T18:23:53.770Z</time>
      </trkpt>
      <trkpt lat="48.581327" lon="10.022431">
        <ele>604.042764</ele>
        <time>2025-11-11T18:23:57.205Z</time>
      </trkpt>
      <trkpt lat="48.581224" lon="10.022377">
        <ele>604.042764</ele>
        <time>2025-11-11T18:23:58.614Z</time>
      </trkpt>
      <trkpt lat="48.581097" lon="10.023435">
        <ele>601.289636</ele>
        <time>2025-11-11T18:24:17.114Z</time>
      </trkpt>
      <trkpt lat="48.581012" lon="10.023558">
        <ele>600.727236</ele>
        <time>2025-11-11T18:24:18.683Z</time>
      </trkpt>
      <trkpt lat="48.580982" lon="10.023956">
        <ele>599.460662</ele>
        <time>2025-11-11T18:24:22.311Z</time>
      </trkpt>
      <trkpt lat="48.580947" lon="10.024679">
        <ele>597.168501</ele>
        <time>2025-11-11T18:24:29.046Z</time>
      </trkpt>
      <trkpt lat="48.580945" lon="10.024714">
        <ele>597.057422</ele>
        <time>2025-11-11T18:24:29.370Z</time>
      </trkpt>
      <trkpt lat="48.580915" lon="10.024863">
        <ele>596.564964</ele>
        <time>2025-11-11T18:24:30.866Z</time>
      </trkpt>
      <trkpt lat="48.580886" lon="10.024850">
        <ele>596.420394</ele>
        <time>2025-11-11T18:24:31.160Z</time>
      </trkpt>
      <trkpt lat="48.580714" lon="10.024771">
        <ele>595.561217</ele>
        <time>2025-11-11T18:24:32.989Z</time>
      </trkpt>
      <trkpt lat="48.580611" lon="10.024723">
        <ele>595.239857</ele>
        <time>2025-11-11T18:24:34.098Z</time>
      </trkpt>
      <trkpt lat="48.580554" lon="10.024692">
        <ele>595.090533</ele>
        <time>2025-11-11T18:24:34.726Z</time>
      </trkpt>
      <trkpt lat="48.580419" lon="10.024618">
        <ele>594.736550</ele>
        <time>2025-11-11T18:24:36.245Z</time>
      </trkpt>
      <trkpt lat="48.580329" lon="10.024568">
        <ele>594.500189</ele>
        <time>2025-11-11T18:24:37.288Z</time>
      </trkpt>
      <trkpt lat="48.580237" lon="10.024511">
        <ele>594.255096</ele>
        <time>2025-11-11T18:24:38.371Z</time>
      </trkpt>
      <trkpt lat="48.580188" lon="10.024480">
        <ele>594.124158</ele>
        <time>2025-11-11T18:24:38.949Z</time>
      </trkpt>
      <trkpt lat="48.579965" lon="10.024335">
        <ele>593.525757</ele>
        <time>2025-11-11T18:24:41.612Z</time>
      </trkpt>
      <trkpt lat="48.579892" lon="10.024283">
        <ele>593.326830</ele>
        <time>2025-11-11T18:24:42.494Z</time>
      </trkpt>
      <trkpt lat="48.579817" lon="10.024230">
        <ele>593.122747</ele>
        <time>2025-11-11T18:24:43.382Z</time>
      </trkpt>
      <trkpt lat="48.579613" lon="10.024085">
        <ele>592.567061</ele>
        <time>2025-11-11T18:24:45.768Z</time>
      </trkpt>
      <trkpt lat="48.579588" lon="10.024066">
        <ele>592.498084</ele>
        <time>2025-11-11T18:24:46.059Z</time>
      </trkpt>
      <trkpt lat="48.579394" lon="10.023929">
        <ele>591.970254</ele>
        <time>2025-11-11T18:24:48.293Z</time>
      </trkpt>
      <trkpt lat="48.579333" lon="10.023887">
        <ele>591.805023</ele>
        <time>2025-11-11T18:24:48.987Z</time>
      </trkpt>
      <trkpt lat="48.579255" lon="10.023835">
        <ele>591.594881</ele>
        <time>2025-11-11T18:24:49.889Z</time>
      </trkpt>
      <trkpt lat="48.578974" lon="10.023646">
        <ele>590.963010</ele>
        <time>2025-11-11T18:24:53.190Z</time>
      </trkpt>
      <trkpt lat="48.578934" lon="10.023617">
        <ele>590.932189</ele>
        <time>2025-11-11T18:24:53.666Z</time>
      </trkpt>
      <trkpt lat="48.578648" lon="10.023459">
        <ele>590.720638</ele>
        <time>2025-11-11T18:24:57.058Z</time>
      </trkpt>
      <trkpt lat="48.578583" lon="10.023427">
        <ele>590.673145</ele>
        <time>2025-11-11T18:24:57.819Z</time>
      </trkpt>
      <trkpt lat="48.578421" lon="10.023351">
        <ele>590.555301</ele>
        <time>2025-11-11T18:24:59.770Z</time>
      </trkpt>
      <trkpt lat="48.578292" lon="10.023299">
        <ele>590.462547</ele>
        <time>2025-11-11T18:25:01.307Z</time>
      </trkpt>
      <trkpt lat="48.578296" lon="10.023189">
        <ele>590.411910</ele>
        <time>2025-11-11T18:25:02.533Z</time>
      </trkpt>
      <trkpt lat="48.578267" lon="10.023098">
        <ele>590.365484</ele>
        <time>2025-11-11T18:25:03.630Z</time>
      </trkpt>
      <trkpt lat="48.578091" lon="10.022719">
        <ele>590.152652</ele>
        <time>2025-11-11T18:25:09.234Z</time>
      </trkpt>
      <trkpt lat="48.578041" lon="10.022587">
        <ele>590.082739</ele>
        <time>2025-11-11T18:25:11.433Z</time>
      </trkpt>
      <trkpt lat="48.577999" lon="10.022420">
        <ele>590.000620</ele>
        <time>2025-11-11T18:25:14.210Z</time>
      </trkpt>
      <trkpt lat="48.577987" lon="10.022360">
        <ele>589.971810</ele>
        <time>2025-11-11T18:25:15.269Z</time>
      </trkpt>
      <trkpt lat="48.577928" lon="10.022045">
        <ele>589.821333</ele>
        <time>2025-11-11T18:25:20.859Z</time>
      </trkpt>
      <trkpt lat="48.577907" lon="10.021930">
        <ele>589.766498</ele>
        <time>2025-11-11T18:25:23.003Z</time>
      </trkpt>
      <trkpt lat="48.577882" lon="10.021799">
        <ele>589.721930</ele>
        <time>2025-11-11T18:25:25.378Z</time>
      </trkpt>
      <trkpt lat="48.577839" lon="10.021571">
        <ele>589.646302</ele>
        <time>2025-11-11T18:25:29.434Z</time>
      </trkpt>
      <trkpt lat="48.577784" lon="10.021283">
        <ele>589.550682</ele>
        <time>2025-11-11T18:25:34.165Z</time>
      </trkpt>
      <trkpt lat="48.577678" lon="10.020735">
        <ele>589.368556</ele>
        <time>2025-11-11T18:25:42.046Z</time>
      </trkpt>
      <trkpt lat="48.577606" lon="10.020768">
        <ele>589.332280</ele>
        <time>2025-11-11T18:25:43.066Z</time>
      </trkpt>
      <trkpt lat="48.577244" lon="10.020934">
        <ele>589.149886</ele>
        <time>2025-11-11T18:25:48.033Z</time>
      </trkpt>
      <trkpt lat="48.576989" lon="10.021065">
        <ele>589.020029</ele>
        <time>2025-11-11T18:25:51.299Z</time>
      </trkpt>
      <trkpt lat="48.576781" lon="10.021163">
        <ele>588.914983</ele>
        <time>2025-11-11T18:25:53.741Z</time>
      </trkpt>
      <trkpt lat="48.575876" lon="10.021589">
        <ele>586.049216</ele>
        <time>2025-11-11T18:26:03.329Z</time>
      </trkpt>
      <trkpt lat="48.575676" lon="10.021610">
        <ele>585.420720</ele>
        <time>2025-11-11T18:26:05.304Z</time>
      </trkpt>
      <trkpt lat="48.575278" lon="10.021600">
        <ele>584.172847</ele>
        <time>2025-11-11T18:26:09.352Z</time>
      </trkpt>
      <trkpt lat="48.574680" lon="10.021585">
        <ele>581.898705</ele>
        <time>2025-11-11T18:26:15.385Z</time>
      </trkpt>
      <trkpt lat="48.574682" lon="10.020581">
        <ele>578.949542</ele>
        <time>2025-11-11T18:26:21.673Z</time>
      </trkpt>
      <trkpt lat="48.573909" lon="10.020090">
        <ele>575.256443</ele>
        <time>2025-11-11T18:26:29.582Z</time>
      </trkpt>
      <trkpt lat="48.573184" lon="10.019516">
        <ele>574.000958</ele>
        <time>2025-11-11T18:26:37.578Z</time>
      </trkpt>
      <trkpt lat="48.573214" lon="10.016270">
        <ele>573.633965</ele>
        <time>2025-11-11T18:27:16.352Z</time>
      </trkpt>
      <trkpt lat="48.573223" lon="10.015328">
        <ele>574.228096</ele>
        <time>2025-11-11T18:27:28.474Z</time>
      </trkpt>
      <trkpt lat="48.573243" lon="10.013221">
        <ele>576.017228</ele>
        <time>2025-11-11T18:27:56.225Z</time>
      </trkpt>
      <trkpt lat="48.573263" lon="10.011038">
        <ele>577.798504</ele>
        <time>2025-11-11T18:28:26.422Z</time>
      </trkpt>
      <trkpt lat="48.573299" lon="10.007169">
        <ele>580.122839</ele>
        <time>2025-11-11T18:29:12.798Z</time>
      </trkpt>
      <trkpt lat="48.573300" lon="10.007039">
        <ele>580.164374</ele>
        <time>2025-11-11T18:29:14.189Z</time>
      </trkpt>
      <trkpt lat="48.571778" lon="10.007010">
        <ele>580.899315</ele>
        <time>2025-11-11T18:29:47.138Z</time>
      </trkpt>
      <trkpt lat="48.570250" lon="10.006967">
        <ele>581.341429</ele>
        <time>2025-11-11T18:30:22.527Z</time>
      </trkpt>
      <trkpt lat="48.568719" lon="10.006894">
        <ele>580.781463</ele>
        <time>2025-11-11T18:30:49.813Z</time>
      </trkpt>
      <trkpt lat="48.567241" lon="10.006266">
        <ele>579.829454</ele>
        <time>2025-11-11T18:31:18.072Z</time>
      </trkpt>
      <trkpt lat="48.564276" lon="10.005006">
        <ele>577.918726</ele>
        <time>2025-11-11T18:32:13.883Z</time>
      </trkpt>
      <trkpt lat="48.560511" lon="10.002911">
        <ele>577.359353</ele>
        <time>2025-11-11T18:33:30.306Z</time>
      </trkpt>
      <trkpt lat="48.557545" lon="10.001280">
        <ele>582.209873</ele>
        <time>2025-11-11T18:34:54.958Z</time>
      </trkpt>
      <trkpt lat="48.555768" lon="10.000315">
        <ele>586.994859</ele>
        <time>2025-11-11T18:35:57.737Z</time>
      </trkpt>
      <trkpt lat="48.555526" lon="10.000182">
        <ele>587.280647</ele>
        <time>2025-11-11T18:36:03.621Z</time>
      </trkpt>
      <trkpt lat="48.555395" lon="10.000109">
        <ele>587.435604</ele>
        <time>2025-11-11T18:36:06.531Z</time>
      </trkpt>
      <trkpt lat="48.555166" lon="9.999948">
        <ele>587.715918</ele>
        <time>2025-11-11T18:36:11.300Z</time>
      </trkpt>
      <trkpt lat="48.555046" lon="9.999859">
        <ele>587.864275</ele>
        <time>2025-11-11T18:36:13.597Z</time>
      </trkpt>
      <trkpt lat="48.555023" lon="9.999913">
        <ele>587.911445</ele>
        <time>2025-11-11T18:36:14.302Z</time>
      </trkpt>
      <trkpt lat="48.554736" lon="10.000198">
        <ele>588.292600</ele>
        <time>2025-11-11T18:36:19.527Z</time>
      </trkpt>
      <trkpt lat="48.554426" lon="9.999681">
        <ele>588.384180</ele>
        <time>2025-11-11T18:36:25.350Z</time>
      </trkpt>
      <trkpt lat="48.554264" lon="9.999440">
        <ele>588.138233</ele>
        <time>2025-11-11T18:36:28.060Z</time>
      </trkpt>
      <trkpt lat="48.554148" lon="9.999299">
        <ele>587.977175</ele>
        <time>2025-11-11T18:36:29.819Z</time>
      </trkpt>
      <trkpt lat="48.553887" lon="9.999061">
        <ele>587.647388</ele>
        <time>2025-11-11T18:36:33.455Z</time>
      </trkpt>
      <trkpt lat="48.553662" lon="9.998856">
        <ele>587.363153</ele>
        <time>2025-11-11T18:36:36.583Z</time>
      </trkpt>
      <trkpt lat="48.553633" lon="9.998825">
        <ele>587.324723</ele>
        <time>2025-11-11T18:36:37.003Z</time>
      </trkpt>
      <trkpt lat="48.553540" lon="9.998729">
        <ele>587.202877</ele>
        <time>2025-11-11T18:36:38.324Z</time>
      </trkpt>
      <trkpt lat="48.553379" lon="9.998562">
        <ele>586.991612</ele>
        <time>2025-11-11T18:36:40.615Z</time>
      </trkpt>
      <trkpt lat="48.553326" lon="9.998506">
        <ele>586.921647</ele>
        <time>2025-11-11T18:36:41.382Z</time>
      </trkpt>
      <trkpt lat="48.553238" lon="9.998411">
        <ele>586.804645</ele>
        <time>2025-11-11T18:36:42.655Z</time>
      </trkpt>
      <trkpt lat="48.553055" lon="9.998200">
        <ele>586.562221</ele>
        <time>2025-11-11T18:36:45.376Z</time>
      </trkpt>
      <trkpt lat="48.552879" lon="9.998004">
        <ele>586.342947</ele>
        <time>2025-11-11T18:36:47.982Z</time>
      </trkpt>
      <trkpt lat="48.552783" lon="9.997916">
        <ele>586.230336</ele>
        <time>2025-11-11T18:36:49.348Z</time>
      </trkpt>
      <trkpt lat="48.552669" lon="9.997813">
        <ele>586.097125</ele>
        <time>2025-11-11T18:36:50.978Z</time>
      </trkpt>
      <trkpt lat="48.552648" lon="9.997793">
        <ele>586.072230</ele>
        <time>2025-11-11T18:36:51.284Z</time>
      </trkpt>
      <trkpt lat="48.552482" lon="9.997618">
        <ele>585.869230</ele>
        <time>2025-11-11T18:36:53.773Z</time>
      </trkpt>
      <trkpt lat="48.552366" lon="9.997481">
        <ele>585.721569</ele>
        <time>2025-11-11T18:36:55.575Z</time>
      </trkpt>
      <trkpt lat="48.552332" lon="9.997567">
        <ele>585.655073</ele>
        <time>2025-11-11T18:37:02.708Z</time>
      </trkpt>
      <trkpt lat="48.552366" lon="9.997481">
        <ele>585.588577</ele>
        <time>2025-11-11T18:37:09.791Z</time>
      </trkpt>
      <trkpt lat="48.552325" lon="9.997433">
        <ele>585.536559</ele>
        <time>2025-11-11T18:37:10.431Z</time>
      </trkpt>
      <trkpt lat="48.552307" lon="9.997412">
        <ele>585.513751</ele>
        <time>2025-11-11T18:37:10.701Z</time>
      </trkpt>
      <trkpt lat="48.552091" lon="9.997223">
        <ele>585.263424</ele>
        <time>2025-11-11T18:37:13.675Z</time>
      </trkpt>
      <trkpt lat="48.552051" lon="9.997188">
        <ele>585.217067</ele>
        <time>2025-11-11T18:37:14.230Z</time>
      </trkpt>
      <trkpt lat="48.551782" lon="9.996886">
        <ele>584.880963</ele>
        <time>2025-11-11T18:37:18.325Z</time>
      </trkpt>
      <trkpt lat="48.551697" lon="9.996788">
        <ele>584.798381</ele>
        <time>2025-11-11T18:37:19.720Z</time>
      </trkpt>
      <trkpt lat="48.551467" lon="9.996523">
        <ele>584.612394</ele>
        <time>2025-11-11T18:37:23.639Z</time>
      </trkpt>
      <trkpt lat="48.551445" lon="9.996500">
        <ele>584.595191</ele>
        <time>2025-11-11T18:37:23.995Z</time>
      </trkpt>
      <trkpt lat="48.551376" lon="9.996425">
        <ele>584.540535</ele>
        <time>2025-11-11T18:37:25.125Z</time>
      </trkpt>
      <trkpt lat="48.551337" lon="9.996383">
        <ele>584.509740</ele>
        <time>2025-11-11T18:37:25.750Z</time>
      </trkpt>
      <trkpt lat="48.551190" lon="9.996236">
        <ele>584.396390</ele>
        <time>2025-11-11T18:37:28.030Z</time>
      </trkpt>
      <trkpt lat="48.551167" lon="9.996213">
        <ele>584.378655</ele>
        <time>2025-11-11T18:37:28.391Z</time>
      </trkpt>
      <trkpt lat="48.551009" lon="9.996056">
        <ele>584.257058</ele>
        <time>2025-11-11T18:37:30.786Z</time>
      </trkpt>
      <trkpt lat="48.550949" lon="9.996003">
        <ele>584.212368</ele>
        <time>2025-11-11T18:37:31.676Z</time>
      </trkpt>
      <trkpt lat="48.550832" lon="9.995901">
        <ele>584.125511</ele>
        <time>2025-11-11T18:37:33.411Z</time>
      </trkpt>
      <trkpt lat="48.550598" lon="9.995695">
        <ele>583.951371</ele>
        <time>2025-11-11T18:37:36.943Z</time>
      </trkpt>
      <trkpt lat="48.550354" lon="9.996410">
        <ele>583.552337</ele>
        <time>2025-11-11T18:37:44.069Z</time>
      </trkpt>
      <trkpt lat="48.550194" lon="9.996811">
        <ele>583.206325</ele>
        <time>2025-11-11T18:37:48.148Z</time>
      </trkpt>
      <trkpt lat="48.549669" lon="9.997745">
        <ele>582.300816</ele>
        <time>2025-11-11T18:37:57.710Z</time>
      </trkpt>
      <trkpt lat="48.549268" lon="9.998389">
        <ele>581.669111</ele>
        <time>2025-11-11T18:38:04.485Z</time>
      </trkpt>
      <trkpt lat="48.548974" lon="9.998807">
        <ele>581.538618</ele>
        <time>2025-11-11T18:38:09.158Z</time>
      </trkpt>
      <trkpt lat="48.548533" lon="9.999296">
        <ele>581.361803</ele>
        <time>2025-11-11T18:38:15.810Z</time>
      </trkpt>
      <trkpt lat="48.548138" lon="9.999786">
        <ele>581.196602</ele>
        <time>2025-11-11T18:38:23.651Z</time>
      </trkpt>
      <trkpt lat="48.548064" lon="9.999968">
        <ele>581.150902</ele>
        <time>2025-11-11T18:38:26.237Z</time>
      </trkpt>
      <trkpt lat="48.547776" lon="9.999902">
        <ele>581.290925</ele>
        <time>2025-11-11T18:38:31.993Z</time>
      </trkpt>
      <trkpt lat="48.545902" lon="9.999472">
        <ele>583.835776</ele>
        <time>2025-11-11T18:39:14.926Z</time>
      </trkpt>
      <trkpt lat="48.541031" lon="9.998379">
        <ele>581.938150</ele>
        <time>2025-11-11T18:40:18.058Z</time>
      </trkpt>
      <trkpt lat="48.540347" lon="9.998211">
        <ele>582.669224</ele>
        <time>2025-11-11T18:40:31.265Z</time>
      </trkpt>
      <trkpt lat="48.537363" lon="9.996760">
        <ele>588.528602</ele>
        <time>2025-11-11T18:41:46.031Z</time>
      </trkpt>
      <trkpt lat="48.535228" lon="9.995744">
        <ele>588.504002</ele>
        <time>2025-11-11T18:42:17.267Z</time>
      </trkpt>
      <trkpt lat="48.534494" lon="9.995271">
        <ele>588.238068</ele>
        <time>2025-11-11T18:42:27.077Z</time>
      </trkpt>
      <trkpt lat="48.534130" lon="9.995071">
        <ele>588.108991</ele>
        <time>2025-11-11T18:42:32.379Z</time>
      </trkpt>
      <trkpt lat="48.533411" lon="9.994775">
        <ele>588.452240</ele>
        <time>2025-11-11T18:42:45.732Z</time>
      </trkpt>
      <trkpt lat="48.533267" lon="9.994737">
        <ele>588.560470</ele>
        <time>2025-11-11T18:42:48.736Z</time>
      </trkpt>
      <trkpt lat="48.533063" lon="9.994705">
        <ele>588.712320</ele>
        <time>2025-11-11T18:42:53.052Z</time>
      </trkpt>
      <trkpt lat="48.532779" lon="9.994662">
        <ele>588.923642</ele>
        <time>2025-11-11T18:42:58.894Z</time>
      </trkpt>
      <trkpt lat="48.532693" lon="9.994633">
        <ele>588.988882</ele>
        <time>2025-11-11T18:43:00.629Z</time>
      </trkpt>
      <trkpt lat="48.532649" lon="9.994568">
        <ele>589.034454</ele>
        <time>2025-11-11T18:43:01.829Z</time>
      </trkpt>
      <trkpt lat="48.532596" lon="9.994608">
        <ele>589.078322</ele>
        <time>2025-11-11T18:43:02.964Z</time>
      </trkpt>
      <trkpt lat="48.532511" lon="9.994617">
        <ele>589.141409</ele>
        <time>2025-11-11T18:43:04.546Z</time>
      </trkpt>
      <trkpt lat="48.532372" lon="9.994588">
        <ele>589.245299</ele>
        <time>2025-11-11T18:43:07.110Z</time>
      </trkpt>
      <trkpt lat="48.532210" lon="9.994490">
        <ele>589.374506</ele>
        <time>2025-11-11T18:43:10.013Z</time>
      </trkpt>
      <trkpt lat="48.532058" lon="9.994434">
        <ele>589.225910</ele>
        <time>2025-11-11T18:43:12.209Z</time>
      </trkpt>
      <trkpt lat="48.531800" lon="9.994452">
        <ele>588.975102</ele>
        <time>2025-11-11T18:43:15.565Z</time>
      </trkpt>
      <trkpt lat="48.531581" lon="9.994481">
        <ele>588.761617</ele>
        <time>2025-11-11T18:43:18.212Z</time>
      </trkpt>
      <trkpt lat="48.531521" lon="9.994552">
        <ele>588.687594</ele>
        <time>2025-11-11T18:43:19.103Z</time>
      </trkpt>
      <trkpt lat="48.531484" lon="9.994632">
        <ele>588.624844</ele>
        <time>2025-11-11T18:43:19.855Z</time>
      </trkpt>
      <trkpt lat="48.531478" lon="9.994714">
        <ele>588.571792</ele>
        <time>2025-11-11T18:43:20.502Z</time>
      </trkpt>
      <trkpt lat="48.531494" lon="9.994943">
        <ele>588.423713</ele>
        <time>2025-11-11T18:43:22.261Z</time>
      </trkpt>
      <trkpt lat="48.531518" lon="9.995139">
        <ele>588.295536</ele>
        <time>2025-11-11T18:43:23.784Z</time>
      </trkpt>
      <trkpt lat="48.531536" lon="9.995279">
        <ele>588.203826</ele>
        <time>2025-11-11T18:43:24.855Z</time>
      </trkpt>
      <trkpt lat="48.531581" lon="9.995634">
        <ele>587.971394</ele>
        <time>2025-11-11T18:43:27.632Z</time>
      </trkpt>
      <trkpt lat="48.531568" lon="9.995876">
        <ele>587.815262</ele>
        <time>2025-11-11T18:43:29.514Z</time>
      </trkpt>
      <trkpt lat="48.531546" lon="9.995930">
        <ele>587.774491</ele>
        <time>2025-11-11T18:43:29.992Z</time>
      </trkpt>
      <trkpt lat="48.531385" lon="9.996092">
        <ele>587.563529</ele>
        <time>2025-11-11T18:43:32.271Z</time>
      </trkpt>
      <trkpt lat="48.531247" lon="9.996208">
        <ele>587.327208</ele>
        <time>2025-11-11T18:43:34.096Z</time>
      </trkpt>
      <trkpt lat="48.531215" lon="9.996245">
        <ele>587.266904</ele>
        <time>2025-11-11T18:43:34.574Z</time>
      </trkpt>
      <trkpt lat="48.531107" lon="9.996377">
        <ele>587.059008</ele>
        <time>2025-11-11T18:43:36.159Z</time>
      </trkpt>
      <trkpt lat="48.530789" lon="9.997010">
        <ele>586.271736</ele>
        <time>2025-11-11T18:43:42.372Z</time>
      </trkpt>
      <trkpt lat="48.530680" lon="9.997167">
        <ele>586.046347</ele>
        <time>2025-11-11T18:43:44.157Z</time>
      </trkpt>
      <trkpt lat="48.530494" lon="9.997333">
        <ele>585.723067</ele>
        <time>2025-11-11T18:43:46.686Z</time>
      </trkpt>
      <trkpt lat="48.530096" lon="9.997680">
        <ele>585.035418</ele>
        <time>2025-11-11T18:43:51.922Z</time>
      </trkpt>
      <trkpt lat="48.529851" lon="9.997883">
        <ele>584.509204</ele>
        <time>2025-11-11T18:43:55.002Z</time>
      </trkpt>
      <trkpt lat="48.529437" lon="9.998226">
        <ele>583.564591</ele>
        <time>2025-11-11T18:44:00.127Z</time>
      </trkpt>
      <trkpt lat="48.528822" lon="9.998782">
        <ele>582.130729</ele>
        <time>2025-11-11T18:44:07.922Z</time>
      </trkpt>
      <trkpt lat="48.528544" lon="9.999088">
        <ele>581.442562</ele>
        <time>2025-11-11T18:44:11.713Z</time>
      </trkpt>
      <trkpt lat="48.528132" lon="9.999628">
        <ele>580.352844</ele>
        <time>2025-11-11T18:44:17.722Z</time>
      </trkpt>
      <trkpt lat="48.527622" lon="10.000511">
        <ele>578.803216</ele>
        <time>2025-11-11T18:44:26.256Z</time>
      </trkpt>
      <trkpt lat="48.527586" lon="10.000592">
        <ele>578.674194</ele>
        <time>2025-11-11T18:44:26.967Z</time>
      </trkpt>
      <trkpt lat="48.527261" lon="10.001457">
        <ele>577.412865</ele>
        <time>2025-11-11T18:44:34.194Z</time>
      </trkpt>
      <trkpt lat="48.527120" lon="10.001939">
        <ele>576.812721</ele>
        <time>2025-11-11T18:44:37.959Z</time>
      </trkpt>
      <trkpt lat="48.526944" lon="10.002724">
        <ele>575.868797</ele>
        <time>2025-11-11T18:44:43.956Z</time>
      </trkpt>
      <trkpt lat="48.526799" lon="10.003603">
        <ele>574.837064</ele>
        <time>2025-11-11T18:44:50.859Z</time>
      </trkpt>
      <trkpt lat="48.526787" lon="10.003685">
        <ele>574.741416</ele>
        <time>2025-11-11T18:44:51.526Z</time>
      </trkpt>
      <trkpt lat="48.526530" lon="10.005310">
        <ele>573.944469</ele>
        <time>2025-11-11T18:45:05.940Z</time>
      </trkpt>
      <trkpt lat="48.526433" lon="10.005724">
        <ele>573.748873</ele>
        <time>2025-11-11T18:45:10.035Z</time>
      </trkpt>
      <trkpt lat="48.526116" lon="10.006768">
        <ele>573.177844</ele>
        <time>2025-11-11T18:45:19.957Z</time>
      </trkpt>
      <trkpt lat="48.525908" lon="10.006633">
        <ele>572.981972</ele>
        <time>2025-11-11T18:45:22.745Z</time>
      </trkpt>
      <trkpt lat="48.524977" lon="10.006027">
        <ele>572.104863</ele>
        <time>2025-11-11T18:45:35.063Z</time>
      </trkpt>
      <trkpt lat="48.524626" lon="10.005725">
        <ele>571.674625</ele>
        <time>2025-11-11T18:45:40.073Z</time>
      </trkpt>
      <trkpt lat="48.524200" lon="10.005280">
        <ele>570.955619</ele>
        <time>2025-11-11T18:45:46.690Z</time>
      </trkpt>
      <trkpt lat="48.523832" lon="10.004714">
        <ele>570.226489</ele>
        <time>2025-11-11T18:45:53.392Z</time>
      </trkpt>
      <trkpt lat="48.523732" lon="10.004560">
        <ele>570.028228</ele>
        <time>2025-11-11T18:45:55.088Z</time>
      </trkpt>
      <trkpt lat="48.523184" lon="10.003566">
        <ele>567.471046</ele>
        <time>2025-11-11T18:46:04.186Z</time>
      </trkpt>
      <trkpt lat="48.522336" lon="10.001846">
        <ele>560.583701</ele>
        <time>2025-11-11T18:46:17.409Z</time>
      </trkpt>
      <trkpt lat="48.521946" lon="10.001166">
        <ele>556.524726</ele>
        <time>2025-11-11T18:46:22.737Z</time>
      </trkpt>
      <trkpt lat="48.521479" lon="10.000473">
        <ele>552.063576</ele>
        <time>2025-11-11T18:46:28.587Z</time>
      </trkpt>
      <trkpt lat="48.521193" lon="10.000108">
        <ele>549.512210</ele>
        <time>2025-11-11T18:46:31.950Z</time>
      </trkpt>
      <trkpt lat="48.520612" lon="9.999526">
        <ele>545.236371</ele>
        <time>2025-11-11T18:46:38.299Z</time>
      </trkpt>
      <trkpt lat="48.519995" lon="9.998908">
        <ele>540.838043</ele>
        <time>2025-11-11T18:46:45.151Z</time>
      </trkpt>
      <trkpt lat="48.519177" lon="9.998151">
        <ele>535.640821</ele>
        <time>2025-11-11T18:46:54.025Z</time>
      </trkpt>
      <trkpt lat="48.518354" lon="9.997266">
        <ele>530.778904</ele>
        <time>2025-11-11T18:47:03.495Z</time>
      </trkpt>
      <trkpt lat="48.518001" lon="9.996703">
        <ele>529.024891</ele>
        <time>2025-11-11T18:47:08.584Z</time>
      </trkpt>
      <trkpt lat="48.517756" lon="9.996178">
        <ele>528.769543</ele>
        <time>2025-11-11T18:47:13.223Z</time>
      </trkpt>
      <trkpt lat="48.517697" lon="9.996016">
        <ele>528.696036</ele>
        <time>2025-11-11T18:47:14.687Z</time>
      </trkpt>
      <trkpt lat="48.517543" lon="9.995340">
        <ele>528.411799</ele>
        <time>2025-11-11T18:47:21.374Z</time>
      </trkpt>
      <trkpt lat="48.517486" lon="9.994905">
        <ele>528.235486</ele>
        <time>2025-11-11T18:47:26.923Z</time>
      </trkpt>
      <trkpt lat="48.517474" lon="9.994724">
        <ele>528.163159</ele>
        <time>2025-11-11T18:47:29.569Z</time>
      </trkpt>
      <trkpt lat="48.517460" lon="9.994319">
        <ele>528.189092</ele>
        <time>2025-11-11T18:47:35.618Z</time>
      </trkpt>
      <trkpt lat="48.517461" lon="9.994178">
        <ele>528.363759</ele>
        <time>2025-11-11T18:47:37.720Z</time>
      </trkpt>
      <trkpt lat="48.517463" lon="9.993928">
        <ele>528.673456</ele>
        <time>2025-11-11T18:47:41.532Z</time>
      </trkpt>
      <trkpt lat="48.517467" lon="9.993707">
        <ele>528.947311</ele>
        <time>2025-11-11T18:47:45.078Z</time>
      </trkpt>
      <trkpt lat="48.517469" lon="9.993528">
        <ele>529.169069</ele>
        <time>2025-11-11T18:47:48.000Z</time>
      </trkpt>
      <trkpt lat="48.517459" lon="9.993262">
        <ele>529.499093</ele>
        <time>2025-11-11T18:47:52.421Z</time>
      </trkpt>
      <trkpt lat="48.517443" lon="9.993027">
        <ele>529.791721</ele>
        <time>2025-11-11T18:47:56.347Z</time>
      </trkpt>
      <trkpt lat="48.517355" lon="9.992513">
        <ele>530.449336</ele>
        <time>2025-11-11T18:48:05.611Z</time>
      </trkpt>
      <trkpt lat="48.517306" lon="9.992255">
        <ele>530.781798</ele>
        <time>2025-11-11T18:48:10.033Z</time>
      </trkpt>
      <trkpt lat="48.517277" lon="9.992105">
        <ele>530.975356</ele>
        <time>2025-11-11T18:48:12.478Z</time>
      </trkpt>
      <trkpt lat="48.517234" lon="9.991877">
        <ele>531.269004</ele>
        <time>2025-11-11T18:48:15.870Z</time>
      </trkpt>
      <trkpt lat="48.517209" lon="9.991751">
        <ele>531.389253</ele>
        <time>2025-11-11T18:48:17.578Z</time>
      </trkpt>
      <trkpt lat="48.517179" lon="9.991554">
        <ele>531.130953</ele>
        <time>2025-11-11T18:48:19.743Z</time>
      </trkpt>
      <trkpt lat="48.517142" lon="9.990979">
        <ele>530.392742</ele>
        <time>2025-11-11T18:48:24.398Z</time>
      </trkpt>
      <trkpt lat="48.516677" lon="9.991011">
        <ele>529.494777</ele>
        <time>2025-11-11T18:48:29.511Z</time>
      </trkpt>
      <trkpt lat="48.516538" lon="9.991021">
        <ele>529.226327</ele>
        <time>2025-11-11T18:48:30.935Z</time>
      </trkpt>
      <trkpt lat="48.516283" lon="9.991088">
        <ele>528.727011</ele>
        <time>2025-11-11T18:48:33.512Z</time>
      </trkpt>
      <trkpt lat="48.516264" lon="9.991093">
        <ele>528.689805</ele>
        <time>2025-11-11T18:48:33.703Z</time>
      </trkpt>
      <trkpt lat="48.516066" lon="9.991149">
        <ele>528.301197</ele>
        <time>2025-11-11T18:48:35.687Z</time>
      </trkpt>
      <trkpt lat="48.515850" lon="9.991220">
        <ele>527.883759</ele>
        <time>2025-11-11T18:48:37.833Z</time>
      </trkpt>
      <trkpt lat="48.515726" lon="9.991261">
        <ele>527.672112</ele>
        <time>2025-11-11T18:48:39.090Z</time>
      </trkpt>
      <trkpt lat="48.515597" lon="9.991323">
        <ele>527.446391</ele>
        <time>2025-11-11T18:48:40.441Z</time>
      </trkpt>
      <trkpt lat="48.515510" lon="9.991372">
        <ele>527.291569</ele>
        <time>2025-11-11T18:48:41.373Z</time>
      </trkpt>
      <trkpt lat="48.515257" lon="9.991526">
        <ele>526.836740</ele>
        <time>2025-11-11T18:48:44.174Z</time>
      </trkpt>
      <trkpt lat="48.515225" lon="9.991429">
        <ele>526.717057</ele>
        <time>2025-11-11T18:48:44.988Z</time>
      </trkpt>
      <trkpt lat="48.515204" lon="9.991363">
        <ele>526.636189</ele>
        <time>2025-11-11T18:48:45.543Z</time>
      </trkpt>
      <trkpt lat="48.515112" lon="9.991184">
        <ele>526.385961</ele>
        <time>2025-11-11T18:48:47.294Z</time>
      </trkpt>
      <trkpt lat="48.514999" lon="9.991055">
        <ele>526.149749</ele>
        <time>2025-11-11T18:48:48.985Z</time>
      </trkpt>
      <trkpt lat="48.514761" lon="9.990797">
        <ele>525.661216</ele>
        <time>2025-11-11T18:48:52.692Z</time>
      </trkpt>
      <trkpt lat="48.514608" lon="9.990564">
        <ele>525.298863</ele>
        <time>2025-11-11T18:48:55.692Z</time>
      </trkpt>
      <trkpt lat="48.514334" lon="9.989858">
        <ele>525.118528</ele>
        <time>2025-11-11T18:49:04.336Z</time>
      </trkpt>
      <trkpt lat="48.514264" lon="9.989602">
        <ele>525.217076</ele>
        <time>2025-11-11T18:49:07.223Z</time>
      </trkpt>
      <trkpt lat="48.514221" lon="9.989317">
        <ele>525.321086</ele>
        <time>2025-11-11T18:49:10.282Z</time>
      </trkpt>
      <trkpt lat="48.514090" lon="9.988273">
        <ele>525.699183</ele>
        <time>2025-11-11T18:49:23.139Z</time>
      </trkpt>
      <trkpt lat="48.513781" lon="9.987988">
        <ele>525.893694</ele>
        <time>2025-11-11T18:49:29.740Z</time>
      </trkpt>
      <trkpt lat="48.513965" lon="9.987531">
        <ele>526.139104</ele>
        <time>2025-11-11T18:49:35.994Z</time>
      </trkpt>
      <trkpt lat="48.514053" lon="9.987425">
        <ele>526.218562</ele>
        <time>2025-11-11T18:49:37.953Z</time>
      </trkpt>
      <trkpt lat="48.514266" lon="9.987428">
        <ele>526.368898</ele>
        <time>2025-11-11T18:49:41.663Z</time>
      </trkpt>
      <trkpt lat="48.514615" lon="9.986745">
        <ele>526.772182</ele>
        <time>2025-11-11T18:49:51.674Z</time>
      </trkpt>
      <trkpt lat="48.514905" lon="9.986413">
        <ele>527.029056</ele>
        <time>2025-11-11T18:49:57.851Z</time>
      </trkpt>
      <trkpt lat="48.515630" lon="9.985766">
        <ele>527.804505</ele>
        <time>2025-11-11T18:50:13.037Z</time>
      </trkpt>
      <trkpt lat="48.516032" lon="9.985363">
        <ele>528.283457</ele>
        <time>2025-11-11T18:50:22.597Z</time>
      </trkpt>
      <trkpt lat="48.516437" lon="9.984761">
        <ele>528.847571</ele>
        <time>2025-11-11T18:50:33.729Z</time>
      </trkpt>
      <trkpt lat="48.516722" lon="9.983984">
        <ele>529.326163</ele>
        <time>2025-11-11T18:50:44.747Z</time>
      </trkpt>
      <trkpt lat="48.517190" lon="9.980749">
        <ele>530.752823</ele>
        <time>2025-11-11T18:51:22.847Z</time>
      </trkpt>
      <trkpt lat="48.517261" lon="9.980373">
        <ele>530.874138</ele>
        <time>2025-11-11T18:51:27.441Z</time>
      </trkpt>
      <trkpt lat="48.517421" lon="9.979812">
        <ele>531.063658</ele>
        <time>2025-11-11T18:51:34.311Z</time>
      </trkpt>
      <trkpt lat="48.517695" lon="9.979200">
        <ele>531.058467</ele>
        <time>2025-11-11T18:51:42.095Z</time>
      </trkpt>
      <trkpt lat="48.519068" lon="9.976548">
        <ele>529.678629</ele>
        <time>2025-11-11T18:52:10.122Z</time>
      </trkpt>
      <trkpt lat="48.519512" lon="9.975671">
        <ele>529.179406</ele>
        <time>2025-11-11T18:52:19.083Z</time>
      </trkpt>
      <trkpt lat="48.519637" lon="9.975274">
        <ele>528.980606</ele>
        <time>2025-11-11T18:52:22.902Z</time>
      </trkpt>
      <trkpt lat="48.519675" lon="9.974843">
        <ele>528.934085</ele>
        <time>2025-11-11T18:52:26.890Z</time>
      </trkpt>
      <trkpt lat="48.519556" lon="9.972699">
        <ele>529.269544</ele>
        <time>2025-11-11T18:52:50.709Z</time>
      </trkpt>
      <trkpt lat="48.519582" lon="9.972238">
        <ele>529.324270</ele>
        <time>2025-11-11T18:52:55.699Z</time>
      </trkpt>
      <trkpt lat="48.519764" lon="9.971006">
        <ele>529.370050</ele>
        <time>2025-11-11T18:53:08.255Z</time>
      </trkpt>
      <trkpt lat="48.519842" lon="9.970387">
        <ele>529.392902</ele>
        <time>2025-11-11T18:53:14.228Z</time>
      </trkpt>
      <trkpt lat="48.519789" lon="9.970086">
        <ele>529.404198</ele>
        <time>2025-11-11T18:53:17.200Z</time>
      </trkpt>
      <trkpt lat="48.519387" lon="9.968802">
        <ele>529.596466</ele>
        <time>2025-11-11T18:53:31.295Z</time>
      </trkpt>
      <trkpt lat="48.518980" lon="9.967711">
        <ele>529.809089</ele>
        <time>2025-11-11T18:53:44.578Z</time>
      </trkpt>
      <trkpt lat="48.518825" lon="9.967232">
        <ele>529.936893</ele>
        <time>2025-11-11T18:53:50.528Z</time>
      </trkpt>
      <trkpt lat="48.518691" lon="9.966437">
        <ele>530.323142</ele>
        <time>2025-11-11T18:54:00.007Z</time>
      </trkpt>
      <trkpt lat="48.518624" lon="9.965314">
        <ele>530.854039</ele>
        <time>2025-11-11T18:54:13.543Z</time>
      </trkpt>
      <trkpt lat="48.518685" lon="9.964691">
        <ele>531.150562</ele>
        <time>2025-11-11T18:54:20.881Z</time>
      </trkpt>
      <trkpt lat="48.518706" lon="9.964014">
        <ele>531.637038</ele>
        <time>2025-11-11T18:54:29.011Z</time>
      </trkpt>
      <trkpt lat="48.518662" lon="9.963706">
        <ele>531.864836</ele>
        <time>2025-11-11T18:54:33.098Z</time>
      </trkpt>
      <trkpt lat="48.518586" lon="9.963453">
        <ele>532.065682</ele>
        <time>2025-11-11T18:54:36.880Z</time>
      </trkpt>
      <trkpt lat="48.518547" lon="9.963437">
        <ele>532.109794</ele>
        <time>2025-11-11T18:54:37.755Z</time>
      </trkpt>
      <trkpt lat="48.518507" lon="9.963420">
        <ele>532.155151</ele>
        <time>2025-11-11T18:54:38.662Z</time>
      </trkpt>
      <trkpt lat="48.518334" lon="9.963382">
        <ele>532.345969</ele>
        <time>2025-11-11T18:54:42.542Z</time>
      </trkpt>
      <trkpt lat="48.517675" lon="9.963299">
        <ele>533.067764</ele>
        <time>2025-11-11T18:54:55.617Z</time>
      </trkpt>
      <trkpt lat="48.517517" lon="9.963253">
        <ele>533.120843</ele>
        <time>2025-11-11T18:54:58.408Z</time>
      </trkpt>
      <trkpt lat="48.517432" lon="9.963167">
        <ele>533.121293</ele>
        <time>2025-11-11T18:55:00.184Z</time>
      </trkpt>
      <trkpt lat="48.517357" lon="9.962964">
        <ele>533.121970</ele>
        <time>2025-11-11T18:55:02.763Z</time>
      </trkpt>
      <trkpt lat="48.517361" lon="9.961331">
        <ele>533.126728</ele>
        <time>2025-11-11T18:55:18.129Z</time>
      </trkpt>
      <trkpt lat="48.517345" lon="9.960909">
        <ele>533.127959</ele>
        <time>2025-11-11T18:55:21.568Z</time>
      </trkpt>
      <trkpt lat="48.517382" lon="9.960110">
        <ele>533.186217</ele>
        <time>2025-11-11T18:55:28.784Z</time>
      </trkpt>
      <trkpt lat="48.517364" lon="9.958951">
        <ele>533.282429</ele>
        <time>2025-11-11T18:55:40.894Z</time>
      </trkpt>
      <trkpt lat="48.517362" lon="9.958891">
        <ele>533.287414</ele>
        <time>2025-11-11T18:55:41.561Z</time>
      </trkpt>
      <trkpt lat="48.517293" lon="9.958537">
        <ele>533.318038</ele>
        <time>2025-11-11T18:55:45.647Z</time>
      </trkpt>
      <trkpt lat="48.517222" lon="9.958178">
        <ele>533.349131</ele>
        <time>2025-11-11T18:55:49.907Z</time>
      </trkpt>
      <trkpt lat="48.517207" lon="9.958099">
        <ele>533.372528</ele>
        <time>2025-11-11T18:55:50.836Z</time>
      </trkpt>
      <trkpt lat="48.517153" lon="9.957833">
        <ele>533.558773</ele>
        <time>2025-11-11T18:55:53.909Z</time>
      </trkpt>
      <trkpt lat="48.517108" lon="9.957607">
        <ele>533.716754</ele>
        <time>2025-11-11T18:55:56.514Z</time>
      </trkpt>
      <trkpt lat="48.517091" lon="9.957522">
        <ele>533.776193</ele>
        <time>2025-11-11T18:55:57.496Z</time>
      </trkpt>
      <trkpt lat="48.517040" lon="9.957255">
        <ele>533.962217</ele>
        <time>2025-11-11T18:56:00.451Z</time>
      </trkpt>
      <trkpt lat="48.516942" lon="9.956776">
        <ele>534.297826</ele>
        <time>2025-11-11T18:56:05.900Z</time>
      </trkpt>
      <trkpt lat="48.516917" lon="9.956542">
        <ele>534.456499</ele>
        <time>2025-11-11T18:56:08.659Z</time>
      </trkpt>
      <trkpt lat="48.516910" lon="9.956309">
        <ele>534.612639</ele>
        <time>2025-11-11T18:56:11.554Z</time>
      </trkpt>
      <trkpt lat="48.516904" lon="9.956118">
        <ele>534.740646</ele>
        <time>2025-11-11T18:56:14.092Z</time>
      </trkpt>
      <trkpt lat="48.516876" lon="9.956008">
        <ele>534.819535</ele>
        <time>2025-11-11T18:56:15.716Z</time>
      </trkpt>
      <trkpt lat="48.516906" lon="9.955928">
        <ele>534.881077</ele>
        <time>2025-11-11T18:56:16.992Z</time>
      </trkpt>
      <trkpt lat="48.516904" lon="9.955815">
        <ele>534.956751</ele>
        <time>2025-11-11T18:56:18.604Z</time>
      </trkpt>
      <trkpt lat="48.516839" lon="9.955702">
        <ele>535.056939</ele>
        <time>2025-11-11T18:56:20.781Z</time>
      </trkpt>
      <trkpt lat="48.516765" lon="9.955683">
        <ele>535.132800</ele>
        <time>2025-11-11T18:56:22.518Z</time>
      </trkpt>
      <trkpt lat="48.516711" lon="9.955712">
        <ele>535.214538</ele>
        <time>2025-11-11T18:56:23.855Z</time>
      </trkpt>
      <trkpt lat="48.516636" lon="9.955657">
        <ele>535.402492</ele>
        <time>2025-11-11T18:56:25.863Z</time>
      </trkpt>
      <trkpt lat="48.516526" lon="9.955632">
        <ele>535.653246</ele>
        <time>2025-11-11T18:56:28.604Z</time>
      </trkpt>
      <trkpt lat="48.515831" lon="9.955437">
        <ele>537.246726</ele>
        <time>2025-11-11T18:56:47.693Z</time>
      </trkpt>
      <trkpt lat="48.515114" lon="9.955187">
        <ele>538.905521</ele>
        <time>2025-11-11T18:57:05.989Z</time>
      </trkpt>
      <trkpt lat="48.514400" lon="9.954856">
        <ele>539.637577</ele>
        <time>2025-11-11T18:57:19.481Z</time>
      </trkpt>
      <trkpt lat="48.514418" lon="9.954766">
        <ele>539.679974</ele>
        <time>2025-11-11T18:57:20.387Z</time>
      </trkpt>
      <trkpt lat="48.514253" lon="9.953831">
        <ele>540.116340</ele>
        <time>2025-11-11T18:57:28.982Z</time>
      </trkpt>
      <trkpt lat="48.514158" lon="9.953612">
        <ele>540.234395</ele>
        <time>2025-11-11T18:57:31.654Z</time>
      </trkpt>
      <trkpt lat="48.514033" lon="9.953480">
        <ele>540.338248</ele>
        <time>2025-11-11T18:57:34.218Z</time>
      </trkpt>
      <trkpt lat="48.513692" lon="9.953416">
        <ele>540.999679</ele>
        <time>2025-11-11T18:57:40.587Z</time>
      </trkpt>
      <trkpt lat="48.513589" lon="9.953363">
        <ele>541.333639</ele>
        <time>2025-11-11T18:57:42.824Z</time>
      </trkpt>
      <trkpt lat="48.513365" lon="9.951719">
        <ele>544.745861</ele>
        <time>2025-11-11T18:58:17.117Z</time>
      </trkpt>
      <trkpt lat="48.513265" lon="9.951464">
        <ele>545.348307</ele>
        <time>2025-11-11T18:58:22.287Z</time>
      </trkpt>
      <trkpt lat="48.513001" lon="9.951168">
        <ele>546.577607</ele>
        <time>2025-11-11T18:58:30.269Z</time>
      </trkpt>
      <trkpt lat="48.512953" lon="9.951029">
        <ele>547.077366</ele>
        <time>2025-11-11T18:58:33.184Z</time>
      </trkpt>
      <trkpt lat="48.512952" lon="9.950936">
        <ele>547.373909</ele>
        <time>2025-11-11T18:58:34.855Z</time>
      </trkpt>
      <trkpt lat="48.512949" lon="9.950801">
        <ele>547.804561</ele>
        <time>2025-11-11T18:58:37.731Z</time>
      </trkpt>
      <trkpt lat="48.512982" lon="9.950012">
        <ele>550.325073</ele>
        <time>2025-11-11T18:58:56.222Z</time>
      </trkpt>
      <trkpt lat="48.512977" lon="9.949831">
        <ele>550.902642</ele>
        <time>2025-11-11T18:59:00.816Z</time>
      </trkpt>
      <trkpt lat="48.512971" lon="9.949786">
        <ele>551.048989</ele>
        <time>2025-11-11T18:59:01.872Z</time>
      </trkpt>
      <trkpt lat="48.512824" lon="9.949713">
        <ele>551.793764</ele>
        <time>2025-11-11T18:59:07.391Z</time>
      </trkpt>
      <trkpt lat="48.512516" lon="9.949684">
        <ele>553.278976</ele>
        <time>2025-11-11T18:59:17.610Z</time>
      </trkpt>
      <trkpt lat="48.512421" lon="9.949582">
        <ele>553.840046</ele>
        <time>2025-11-11T18:59:21.586Z</time>
      </trkpt>
      <trkpt lat="48.512273" lon="9.949146">
        <ele>555.310319</ele>
        <time>2025-11-11T18:59:33.990Z</time>
      </trkpt>
      <trkpt lat="48.512155" lon="9.949040">
        <ele>555.893033</ele>
        <time>2025-11-11T18:59:39.962Z</time>
      </trkpt>
      <trkpt lat="48.512037" lon="9.948934">
        <ele>556.475748</ele>
        <time>2025-11-11T18:59:46.117Z</time>
      </trkpt>
      <trkpt lat="48.511871" lon="9.948940">
        <ele>557.180402</ele>
        <time>2025-11-11T18:59:53.377Z</time>
      </trkpt>
      <trkpt lat="48.511646" lon="9.949113">
        <ele>558.251962</ele>
        <time>2025-11-11T19:00:03.268Z</time>
      </trkpt>
      <trkpt lat="48.510262" lon="9.949878">
        <ele>563.393966</ele>
        <time>2025-11-11T19:00:39.840Z</time>
      </trkpt>
      <trkpt lat="48.510194" lon="9.949882">
        <ele>563.539758</ele>
        <time>2025-11-11T19:00:41.139Z</time>
      </trkpt>
      <trkpt lat="48.510083" lon="9.949779">
        <ele>563.818903</ele>
        <time>2025-11-11T19:00:43.592Z</time>
      </trkpt>
      <trkpt lat="48.509996" lon="9.949664">
        <ele>564.066655</ele>
        <time>2025-11-11T19:00:46.440Z</time>
      </trkpt>
      <trkpt lat="48.509566" lon="9.949398">
        <ele>565.062240</ele>
        <time>2025-11-11T19:00:58.629Z</time>
      </trkpt>
      <trkpt lat="48.509039" lon="9.949177">
        <ele>566.284380</ele>
        <time>2025-11-11T19:01:15.108Z</time>
      </trkpt>
      <trkpt lat="48.508705" lon="9.948930">
        <ele>567.412485</ele>
        <time>2025-11-11T19:01:27.560Z</time>
      </trkpt>
      <trkpt lat="48.508340" lon="9.948492">
        <ele>568.826794</ele>
        <time>2025-11-11T19:01:44.193Z</time>
      </trkpt>
      <trkpt lat="48.508103" lon="9.948107">
        <ele>569.882852</ele>
        <time>2025-11-11T19:01:56.413Z</time>
      </trkpt>
      <trkpt lat="48.507785" lon="9.947695">
        <ele>571.153966</ele>
        <time>2025-11-11T19:02:10.094Z</time>
      </trkpt>
      <trkpt lat="48.507440" lon="9.947454">
        <ele>572.028284</ele>
        <time>2025-11-11T19:02:20.774Z</time>
      </trkpt>
      <trkpt lat="48.506518" lon="9.947180">
        <ele>573.802896</ele>
        <time>2025-11-11T19:02:43.609Z</time>
      </trkpt>
      <trkpt lat="48.506429" lon="9.947145">
        <ele>573.976583</ele>
        <time>2025-11-11T19:02:45.895Z</time>
      </trkpt>
      <trkpt lat="48.505855" lon="9.947028">
        <ele>575.169639</ele>
        <time>2025-11-11T19:03:02.139Z</time>
      </trkpt>
      <trkpt lat="48.504926" lon="9.947059">
        <ele>578.578143</ele>
        <time>2025-11-11T19:03:36.747Z</time>
      </trkpt>
      <trkpt lat="48.504678" lon="9.947019">
        <ele>579.493013</ele>
        <time>2025-11-11T19:03:46.786Z</time>
      </trkpt>
      <trkpt lat="48.504236" lon="9.946878">
        <ele>581.150135</ele>
        <time>2025-11-11T19:04:02.970Z</time>
      </trkpt>
      <trkpt lat="48.503987" lon="9.946814">
        <ele>581.792668</ele>
        <time>2025-11-11T19:04:10.833Z</time>
      </trkpt>
      <trkpt lat="48.503655" lon="9.946795">
        <ele>582.337936</ele>
        <time>2025-11-11T19:04:21.136Z</time>
      </trkpt>
      <trkpt lat="48.503311" lon="9.946941">
        <ele>582.924405</ele>
        <time>2025-11-11T19:04:31.382Z</time>
      </trkpt>
      <trkpt lat="48.503082" lon="9.947045">
        <ele>583.316884</ele>
        <time>2025-11-11T19:04:37.320Z</time>
      </trkpt>
      <trkpt lat="48.503075" lon="9.947014">
        <ele>583.352498</ele>
        <time>2025-11-11T19:04:37.751Z</time>
      </trkpt>
      <trkpt lat="48.502971" lon="9.946524">
        <ele>583.912006</ele>
        <time>2025-11-11T19:04:43.500Z</time>
      </trkpt>
      <trkpt lat="48.502909" lon="9.946218">
        <ele>584.259968</ele>
        <time>2025-11-11T19:04:46.815Z</time>
      </trkpt>
      <trkpt lat="48.502763" lon="9.945585">
        <ele>584.527072</ele>
        <time>2025-11-11T19:04:54.252Z</time>
      </trkpt>
      <trkpt lat="48.502713" lon="9.945357">
        <ele>584.533911</ele>
        <time>2025-11-11T19:04:57.195Z</time>
      </trkpt>
      <trkpt lat="48.502701" lon="9.945303">
        <ele>584.535532</ele>
        <time>2025-11-11T19:04:57.869Z</time>
      </trkpt>
      <trkpt lat="48.502626" lon="9.944824">
        <ele>584.549548</ele>
        <time>2025-11-11T19:05:03.090Z</time>
      </trkpt>
      <trkpt lat="48.502621" lon="9.944769">
        <ele>584.551129</ele>
        <time>2025-11-11T19:05:03.595Z</time>
      </trkpt>
      <trkpt lat="48.502607" lon="9.944599">
        <ele>584.556007</ele>
        <time>2025-11-11T19:05:05.112Z</time>
      </trkpt>
      <trkpt lat="48.502602" lon="9.944389">
        <ele>584.561991</ele>
        <time>2025-11-11T19:05:06.931Z</time>
      </trkpt>
      <trkpt lat="48.502545" lon="9.943597">
        <ele>584.584676</ele>
        <time>2025-11-11T19:05:13.718Z</time>
      </trkpt>
      <trkpt lat="48.502510" lon="9.943341">
        <ele>584.604384</ele>
        <time>2025-11-11T19:05:16.059Z</time>
      </trkpt>
      <trkpt lat="48.502476" lon="9.943217">
        <ele>584.892754</ele>
        <time>2025-11-11T19:05:17.325Z</time>
      </trkpt>
      <trkpt lat="48.502444" lon="9.943086">
        <ele>585.192773</ele>
        <time>2025-11-11T19:05:18.748Z</time>
      </trkpt>
      <trkpt lat="48.502443" lon="9.942886">
        <ele>585.622554</ele>
        <time>2025-11-11T19:05:20.972Z</time>
      </trkpt>
      <trkpt lat="48.502379" lon="9.942694">
        <ele>586.084400</ele>
        <time>2025-11-11T19:05:23.584Z</time>
      </trkpt>
      <trkpt lat="48.502303" lon="9.942550">
        <ele>586.480000</ele>
        <time>2025-11-11T19:05:26.037Z</time>
      </trkpt>
      <trkpt lat="48.502240" lon="9.942501">
        <ele>586.709851</ele>
        <time>2025-11-11T19:05:27.598Z</time>
      </trkpt>
      <trkpt lat="48.502181" lon="9.942400">
        <ele>586.999188</ele>
        <time>2025-11-11T19:05:29.686Z</time>
      </trkpt>
      <trkpt lat="48.502129" lon="9.942401">
        <ele>587.167844</ele>
        <time>2025-11-11T19:05:30.954Z</time>
      </trkpt>
      <trkpt lat="48.502085" lon="9.942315">
        <ele>587.401326</ele>
        <time>2025-11-11T19:05:32.800Z</time>
      </trkpt>
      <trkpt lat="48.501986" lon="9.941981">
        <ele>588.187586</ele>
        <time>2025-11-11T19:05:39.764Z</time>
      </trkpt>
      <trkpt lat="48.501916" lon="9.941619">
        <ele>588.997924</ele>
        <time>2025-11-11T19:05:48.224Z</time>
      </trkpt>
      <trkpt lat="48.501874" lon="9.941203">
        <ele>589.902170</ele>
        <time>2025-11-11T19:05:58.973Z</time>
      </trkpt>
      <trkpt lat="48.501891" lon="9.940790">
        <ele>591.148931</ele>
        <time>2025-11-11T19:06:10.488Z</time>
      </trkpt>
      <trkpt lat="48.501988" lon="9.939749">
        <ele>595.613521</ele>
        <time>2025-11-11T19:06:42.395Z</time>
      </trkpt>
      <trkpt lat="48.502120" lon="9.938565">
        <ele>600.712595</ele>
        <time>2025-11-11T19:07:14.979Z</time>
      </trkpt>
      <trkpt lat="48.502127" lon="9.937854">
        <ele>602.999177</ele>
        <time>2025-11-11T19:07:30.900Z</time>
      </trkpt>
      <trkpt lat="48.502212" lon="9.937362">
        <ele>604.268311</ele>
        <time>2025-11-11T19:07:41.141Z</time>
      </trkpt>
      <trkpt lat="48.502220" lon="9.937079">
        <ele>604.975346</ele>
        <time>2025-11-11T19:07:46.532Z</time>
      </trkpt>
      <trkpt lat="48.502156" lon="9.936482">
        <ele>606.484887</ele>
        <time>2025-11-11T19:07:57.438Z</time>
      </trkpt>
      <trkpt lat="48.502063" lon="9.936090">
        <ele>607.524185</ele>
        <time>2025-11-11T19:08:04.790Z</time>
      </trkpt>
      <trkpt lat="48.501916" lon="9.935700">
        <ele>608.644150</ele>
        <time>2025-11-11T19:08:13.119Z</time>
      </trkpt>
      <trkpt lat="48.501774" lon="9.935416">
        <ele>609.313313</ele>
        <time>2025-11-11T19:08:19.927Z</time>
      </trkpt>
      <trkpt lat="48.501604" lon="9.935158">
        <ele>609.973852</ele>
        <time>2025-11-11T19:08:26.878Z</time>
      </trkpt>
      <trkpt lat="48.500611" lon="9.934180">
        <ele>613.222568</ele>
        <time>2025-11-11T19:08:57.817Z</time>
      </trkpt>
      <trkpt lat="48.500344" lon="9.933815">
        <ele>613.835330</ele>
        <time>2025-11-11T19:09:05.687Z</time>
      </trkpt>
      <trkpt lat="48.500220" lon="9.933595">
        <ele>614.004269</ele>
        <time>2025-11-11T19:09:09.596Z</time>
      </trkpt>
      <trkpt lat="48.500027" lon="9.933100">
        <ele>614.340210</ele>
        <time>2025-11-11T19:09:16.853Z</time>
      </trkpt>
      <trkpt lat="48.499933" lon="9.932656">
        <ele>614.612849</ele>
        <time>2025-11-11T19:09:22.203Z</time>
      </trkpt>
      <trkpt lat="48.499680" lon="9.930552">
        <ele>615.190902</ele>
        <time>2025-11-11T19:09:44.362Z</time>
      </trkpt>
      <trkpt lat="48.499633" lon="9.930307">
        <ele>615.177814</ele>
        <time>2025-11-11T19:09:46.731Z</time>
      </trkpt>
      <trkpt lat="48.499469" lon="9.930114">
        <ele>615.161708</ele>
        <time>2025-11-11T19:09:49.593Z</time>
      </trkpt>
      <trkpt lat="48.499370" lon="9.930085">
        <ele>615.153898</ele>
        <time>2025-11-11T19:09:51.000Z</time>
      </trkpt>
      <trkpt lat="48.498860" lon="9.930083">
        <ele>615.114402</ele>
        <time>2025-11-11T19:09:57.928Z</time>
      </trkpt>
      <trkpt lat="48.496899" lon="9.930150">
        <ele>614.767936</ele>
        <time>2025-11-11T19:10:25.602Z</time>
      </trkpt>
      <trkpt lat="48.496519" lon="9.930162">
        <ele>614.807530</ele>
        <time>2025-11-11T19:10:31.324Z</time>
      </trkpt>
      <trkpt lat="48.494336" lon="9.930331">
        <ele>615.052929</ele>
        <time>2025-11-11T19:11:05.121Z</time>
      </trkpt>
      <trkpt lat="48.489788" lon="9.931327">
        <ele>615.516254</ele>
        <time>2025-11-11T19:12:15.393Z</time>
      </trkpt>
      <trkpt lat="48.488575" lon="9.931692">
        <ele>615.137395</ele>
        <time>2025-11-11T19:12:32.722Z</time>
      </trkpt>
      <trkpt lat="48.487046" lon="9.931985">
        <ele>614.270152</ele>
        <time>2025-11-11T19:12:52.767Z</time>
      </trkpt>
      <trkpt lat="48.486999" lon="9.932136">
        <ele>614.192560</ele>
        <time>2025-11-11T19:12:54.114Z</time>
      </trkpt>
      <trkpt lat="48.487119" lon="9.933836">
        <ele>613.640432</ele>
        <time>2025-11-11T19:13:08.185Z</time>
      </trkpt>
      <trkpt lat="48.487166" lon="9.933988">
        <ele>613.623236</ele>
        <time>2025-11-11T19:13:09.655Z</time>
      </trkpt>
      <trkpt lat="48.487144" lon="9.934105">
        <ele>613.610767</ele>
        <time>2025-11-11T19:13:10.734Z</time>
      </trkpt>
      <trkpt lat="48.487049" lon="9.934143">
        <ele>613.595564</ele>
        <time>2025-11-11T19:13:12.077Z</time>
      </trkpt>
      <trkpt lat="48.486969" lon="9.933024">
        <ele>613.480174</ele>
        <time>2025-11-11T19:13:23.457Z</time>
      </trkpt>
      <trkpt lat="48.486690" lon="9.930505">
        <ele>613.829677</ele>
        <time>2025-11-11T19:13:52.316Z</time>
      </trkpt>
      <trkpt lat="48.486517" lon="9.929034">
        <ele>613.618564</ele>
        <time>2025-11-11T19:14:05.868Z</time>
      </trkpt>
      <trkpt lat="48.486370" lon="9.927612">
        <ele>613.055232</ele>
        <time>2025-11-11T19:14:17.719Z</time>
      </trkpt>
      <trkpt lat="48.486275" lon="9.925865">
        <ele>612.937084</ele>
        <time>2025-11-11T19:14:33.154Z</time>
      </trkpt>
      <trkpt lat="48.486131" lon="9.925039">
        <ele>612.966908</ele>
        <time>2025-11-11T19:14:42.561Z</time>
      </trkpt>
      <trkpt lat="48.485869" lon="9.923756">
        <ele>613.234199</ele>
        <time>2025-11-11T19:14:58.668Z</time>
      </trkpt>
      <trkpt lat="48.485500" lon="9.922261">
        <ele>613.721298</ele>
        <time>2025-11-11T19:15:16.248Z</time>
      </trkpt>
      <trkpt lat="48.484824" lon="9.920190">
        <ele>614.099330</ele>
        <time>2025-11-11T19:15:38.779Z</time>
      </trkpt>
      <trkpt lat="48.484751" lon="9.919871">
        <ele>614.147368</ele>
        <time>2025-11-11T19:15:42.527Z</time>
      </trkpt>
      <trkpt lat="48.484384" lon="9.917804">
        <ele>614.566064</ele>
        <time>2025-11-11T19:16:07.580Z</time>
      </trkpt>
      <trkpt lat="48.484212" lon="9.916466">
        <ele>614.660600</ele>
        <time>2025-11-11T19:16:20.293Z</time>
      </trkpt>
      <trkpt lat="48.484203" lon="9.916412">
        <ele>614.647172</ele>
        <time>2025-11-11T19:16:20.744Z</time>
      </trkpt>
      <trkpt lat="48.484034" lon="9.915865">
        <ele>614.501629</ele>
        <time>2025-11-11T19:16:25.854Z</time>
      </trkpt>
      <trkpt lat="48.484015" lon="9.915817">
        <ele>614.488146</ele>
        <time>2025-11-11T19:16:26.317Z</time>
      </trkpt>
      <trkpt lat="48.483968" lon="9.915713">
        <ele>614.457790</ele>
        <time>2025-11-11T19:16:27.349Z</time>
      </trkpt>
      <trkpt lat="48.483882" lon="9.915532">
        <ele>614.404082</ele>
        <time>2025-11-11T19:16:29.184Z</time>
      </trkpt>
      <trkpt lat="48.483762" lon="9.915278">
        <ele>614.328859</ele>
        <time>2025-11-11T19:16:31.841Z</time>
      </trkpt>
      <trkpt lat="48.483731" lon="9.915212">
        <ele>614.309351</ele>
        <time>2025-11-11T19:16:32.508Z</time>
      </trkpt>
      <trkpt lat="48.483627" lon="9.914991">
        <ele>614.243987</ele>
        <time>2025-11-11T19:16:34.882Z</time>
      </trkpt>
      <trkpt lat="48.483514" lon="9.914775">
        <ele>614.177625</ele>
        <time>2025-11-11T19:16:37.446Z</time>
      </trkpt>
      <trkpt lat="48.483418" lon="9.914597">
        <ele>614.122282</ele>
        <time>2025-11-11T19:16:39.730Z</time>
      </trkpt>
      <trkpt lat="48.483368" lon="9.914504">
        <ele>614.166356</ele>
        <time>2025-11-11T19:16:40.941Z</time>
      </trkpt>
      <trkpt lat="48.483305" lon="9.914392">
        <ele>614.320346</ele>
        <time>2025-11-11T19:16:42.497Z</time>
      </trkpt>
      <trkpt lat="48.483162" lon="9.914146">
        <ele>614.663354</ele>
        <time>2025-11-11T19:16:46.233Z</time>
      </trkpt>
      <trkpt lat="48.482950" lon="9.913753">
        <ele>615.194535</ele>
        <time>2025-11-11T19:16:52.632Z</time>
      </trkpt>
      <trkpt lat="48.482906" lon="9.913648">
        <ele>615.324761</ele>
        <time>2025-11-11T19:16:54.312Z</time>
      </trkpt>
      <trkpt lat="48.482804" lon="9.913331">
        <ele>615.694165</ele>
        <time>2025-11-11T19:16:59.174Z</time>
      </trkpt>
      <trkpt lat="48.482736" lon="9.913076">
        <ele>615.982310</ele>
        <time>2025-11-11T19:17:03.047Z</time>
      </trkpt>
      <trkpt lat="48.482543" lon="9.912120">
        <ele>617.112711</ele>
        <time>2025-11-11T19:17:19.897Z</time>
      </trkpt>
      <trkpt lat="48.482512" lon="9.911943">
        <ele>617.507542</ele>
        <time>2025-11-11T19:17:23.221Z</time>
      </trkpt>
      <trkpt lat="48.482472" lon="9.911597">
        <ele>618.265014</ele>
        <time>2025-11-11T19:17:29.643Z</time>
      </trkpt>
      <trkpt lat="48.482453" lon="9.911402">
        <ele>618.690085</ele>
        <time>2025-11-11T19:17:33.335Z</time>
      </trkpt>
      <trkpt lat="48.482444" lon="9.911306">
        <ele>618.899186</ele>
        <time>2025-11-11T19:17:35.186Z</time>
      </trkpt>
      <trkpt lat="48.482408" lon="9.910984">
        <ele>619.603444</ele>
        <time>2025-11-11T19:17:41.572Z</time>
      </trkpt>
      <trkpt lat="48.482361" lon="9.910568">
        <ele>620.513560</ele>
        <time>2025-11-11T19:17:49.748Z</time>
      </trkpt>
      <trkpt lat="48.482269" lon="9.909964">
        <ele>621.850144</ele>
        <time>2025-11-11T19:18:01.749Z</time>
      </trkpt>
      <trkpt lat="48.482194" lon="9.909672">
        <ele>622.525521</ele>
        <time>2025-11-11T19:18:07.778Z</time>
      </trkpt>
      <trkpt lat="48.482160" lon="9.909602">
        <ele>622.712681</ele>
        <time>2025-11-11T19:18:09.483Z</time>
      </trkpt>
      <trkpt lat="48.481895" lon="9.909112">
        <ele>623.581084</ele>
        <time>2025-11-11T19:18:20.323Z</time>
      </trkpt>
      <trkpt lat="48.481809" lon="9.908845">
        <ele>623.972063</ele>
        <time>2025-11-11T19:18:25.084Z</time>
      </trkpt>
      <trkpt lat="48.481715" lon="9.908490">
        <ele>624.475552</ele>
        <time>2025-11-11T19:18:31.083Z</time>
      </trkpt>
      <trkpt lat="48.481670" lon="9.908283">
        <ele>624.762476</ele>
        <time>2025-11-11T19:18:34.499Z</time>
      </trkpt>
      <trkpt lat="48.481604" lon="9.908023">
        <ele>625.129169</ele>
        <time>2025-11-11T19:18:38.628Z</time>
      </trkpt>
      <trkpt lat="48.481488" lon="9.907305">
        <ele>626.102521</ele>
        <time>2025-11-11T19:18:48.206Z</time>
      </trkpt>
      <trkpt lat="48.481477" lon="9.907194">
        <ele>626.250343</ele>
        <time>2025-11-11T19:18:49.521Z</time>
      </trkpt>
      <trkpt lat="48.481467" lon="9.906623">
        <ele>626.554102</ele>
        <time>2025-11-11T19:18:56.224Z</time>
      </trkpt>
      <trkpt lat="48.481495" lon="9.906396">
        <ele>626.639945</ele>
        <time>2025-11-11T19:18:58.952Z</time>
      </trkpt>
      <trkpt lat="48.481381" lon="9.906349">
        <ele>626.706230</ele>
        <time>2025-11-11T19:19:01.035Z</time>
      </trkpt>
      <trkpt lat="48.481034" lon="9.906361">
        <ele>626.900904</ele>
        <time>2025-11-11T19:19:06.872Z</time>
      </trkpt>
      <trkpt lat="48.480720" lon="9.906378">
        <ele>627.077131</ele>
        <time>2025-11-11T19:19:12.121Z</time>
      </trkpt>
      <trkpt lat="48.480566" lon="9.906393">
        <ele>627.163686</ele>
        <time>2025-11-11T19:19:14.581Z</time>
      </trkpt>
      <trkpt lat="48.480501" lon="9.906399">
        <ele>627.200211</ele>
        <time>2025-11-11T19:19:15.641Z</time>
      </trkpt>
      <trkpt lat="48.480218" lon="9.906469">
        <ele>627.361057</ele>
        <time>2025-11-11T19:19:20.205Z</time>
      </trkpt>
      <trkpt lat="48.480182" lon="9.906070">
        <ele>627.402643</ele>
        <time>2025-11-11T19:19:25.974Z</time>
      </trkpt>
      <trkpt lat="48.480165" lon="9.905665">
        <ele>627.422245</ele>
        <time>2025-11-11T19:19:31.875Z</time>
      </trkpt>
      <trkpt lat="48.480153" lon="9.905395">
        <ele>627.435317</ele>
        <time>2025-11-11T19:19:35.707Z</time>
      </trkpt>
      <trkpt lat="48.480137" lon="9.905035">
        <ele>627.452745</ele>
        <time>2025-11-11T19:19:40.665Z</time>
      </trkpt>
      <trkpt lat="48.480135" lon="9.904982">
        <ele>627.455309</ele>
        <time>2025-11-11T19:19:41.369Z</time>
      </trkpt>
      <trkpt lat="48.480112" lon="9.904350">
        <ele>627.485883</ele>
        <time>2025-11-11T19:19:49.908Z</time>
      </trkpt>
      <trkpt lat="48.480101" lon="9.904035">
        <ele>627.501119</ele>
        <time>2025-11-11T19:19:54.078Z</time>
      </trkpt>
      <trkpt lat="48.480097" lon="9.903917">
        <ele>627.506827</ele>
        <time>2025-11-11T19:19:55.613Z</time>
      </trkpt>
      <trkpt lat="48.480051" lon="9.901159">
        <ele>627.182431</ele>
        <time>2025-11-11T19:20:30.344Z</time>
      </trkpt>
      <trkpt lat="48.479998" lon="9.898643">
        <ele>627.543354</ele>
        <time>2025-11-11T19:21:06.607Z</time>
      </trkpt>
      <trkpt lat="48.479982" lon="9.897705">
        <ele>627.315984</ele>
        <time>2025-11-11T19:21:19.737Z</time>
      </trkpt>
      <trkpt lat="48.479988" lon="9.896446">
        <ele>626.673387</ele>
        <time>2025-11-11T19:21:35.203Z</time>
      </trkpt>
      <trkpt lat="48.479982" lon="9.893988">
        <ele>624.326164</ele>
        <time>2025-11-11T19:22:01.302Z</time>
      </trkpt>
      <trkpt lat="48.480085" lon="9.892215">
        <ele>623.040322</ele>
        <time>2025-11-11T19:22:19.770Z</time>
      </trkpt>
      <trkpt lat="48.480087" lon="9.891960">
        <ele>623.078440</ele>
        <time>2025-11-11T19:22:22.777Z</time>
      </trkpt>
      <trkpt lat="48.480056" lon="9.891647">
        <ele>623.125744</ele>
        <time>2025-11-11T19:22:26.784Z</time>
      </trkpt>
      <trkpt lat="48.479565" lon="9.889034">
        <ele>624.162867</ele>
        <time>2025-11-11T19:23:14.454Z</time>
      </trkpt>
      <trkpt lat="48.479250" lon="9.887360">
        <ele>625.067457</ele>
        <time>2025-11-11T19:23:41.394Z</time>
      </trkpt>
      <trkpt lat="48.479120" lon="9.886723">
        <ele>624.771971</ele>
        <time>2025-11-11T19:23:49.851Z</time>
      </trkpt>
      <trkpt lat="48.478662" lon="9.884945">
        <ele>623.937193</ele>
        <time>2025-11-11T19:24:11.360Z</time>
      </trkpt>
      <trkpt lat="48.478332" lon="9.882704">
        <ele>623.177076</ele>
        <time>2025-11-11T19:24:37.524Z</time>
      </trkpt>
      <trkpt lat="48.478188" lon="9.882212">
        <ele>623.452241</ele>
        <time>2025-11-11T19:24:46.487Z</time>
      </trkpt>
      <trkpt lat="48.477375" lon="9.880195">
        <ele>627.594992</ele>
        <time>2025-11-11T19:25:38.268Z</time>
      </trkpt>
      <trkpt lat="48.477143" lon="9.879595">
        <ele>628.471726</ele>
        <time>2025-11-11T19:25:50.383Z</time>
      </trkpt>
      <trkpt lat="48.477116" lon="9.879525">
        <ele>628.564285</ele>
        <time>2025-11-11T19:25:51.706Z</time>
      </trkpt>
      <trkpt lat="48.477077" lon="9.879438">
        <ele>628.684317</ele>
        <time>2025-11-11T19:25:53.420Z</time>
      </trkpt>
      <trkpt lat="48.476892" lon="9.878974">
        <ele>629.303147</ele>
        <time>2025-11-11T19:26:01.769Z</time>
      </trkpt>
      <trkpt lat="48.476330" lon="9.877680">
        <ele>630.947565</ele>
        <time>2025-11-11T19:26:21.456Z</time>
      </trkpt>
      <trkpt lat="48.473843" lon="9.871473">
        <ele>632.041571</ele>
        <time>2025-11-11T19:27:34.731Z</time>
      </trkpt>
      <trkpt lat="48.469712" lon="9.863895">
        <ele>637.113450</ele>
        <time>2025-11-11T19:29:36.464Z</time>
      </trkpt>
      <trkpt lat="48.469310" lon="9.863115">
        <ele>636.835954</ele>
        <time>2025-11-11T19:29:44.389Z</time>
      </trkpt>
      <trkpt lat="48.469164" lon="9.862620">
        <ele>636.683779</ele>
        <time>2025-11-11T19:29:48.452Z</time>
      </trkpt>
      <trkpt lat="48.469000" lon="9.860735">
        <ele>636.285627</ele>
        <time>2025-11-11T19:30:03.928Z</time>
      </trkpt>
      <trkpt lat="48.468838" lon="9.858612">
        <ele>636.428806</ele>
        <time>2025-11-11T19:30:29.418Z</time>
      </trkpt>
      <trkpt lat="48.466138" lon="9.857633">
        <ele>638.211682</ele>
        <time>2025-11-11T19:31:14.446Z</time>
      </trkpt>
      <trkpt lat="48.464090" lon="9.856896">
        <ele>642.566461</ele>
        <time>2025-11-11T19:32:08.038Z</time>
      </trkpt>
      <trkpt lat="48.463777" lon="9.856783">
        <ele>642.831803</ele>
        <time>2025-11-11T19:32:14.783Z</time>
      </trkpt>
      <trkpt lat="48.460416" lon="9.855568">
        <ele>644.623590</ele>
        <time>2025-11-11T19:33:08.883Z</time>
      </trkpt>
      <trkpt lat="48.460619" lon="9.852966">
        <ele>645.425594</ele>
        <time>2025-11-11T19:33:41.500Z</time>
      </trkpt>
      <trkpt lat="48.458638" lon="9.852272">
        <ele>643.662936</ele>
        <time>2025-11-11T19:34:06.235Z</time>
      </trkpt>
      <trkpt lat="48.458572" lon="9.852246">
        <ele>643.552534</ele>
        <time>2025-11-11T19:34:07.026Z</time>
      </trkpt>
      <trkpt lat="48.457825" lon="9.853755">
        <ele>641.467961</ele>
        <time>2025-11-11T19:34:21.124Z</time>
      </trkpt>
      <trkpt lat="48.457378" lon="9.854539">
        <ele>639.556302</ele>
        <time>2025-11-11T19:34:28.260Z</time>
      </trkpt>
      <trkpt lat="48.456871" lon="9.855438">
        <ele>637.374309</ele>
        <time>2025-11-11T19:34:36.161Z</time>
      </trkpt>
      <trkpt lat="48.456506" lon="9.856155">
        <ele>636.192054</ele>
        <time>2025-11-11T19:34:42.311Z</time>
      </trkpt>
      <trkpt lat="48.456256" lon="9.856714">
        <ele>635.621590</ele>
        <time>2025-11-11T19:34:47.204Z</time>
      </trkpt>
      <trkpt lat="48.455405" lon="9.858711">
        <ele>634.479530</ele>
        <time>2025-11-11T19:35:08.919Z</time>
      </trkpt>
      <trkpt lat="48.455404" lon="9.858714">
        <ele>634.480222</ele>
        <time>2025-11-11T19:35:08.957Z</time>
      </trkpt>
      <trkpt lat="48.454977" lon="9.859499">
        <ele>634.689371</ele>
        <time>2025-11-11T19:35:20.973Z</time>
      </trkpt>
      <trkpt lat="48.454383" lon="9.860347">
        <ele>634.798384</ele>
        <time>2025-11-11T19:35:35.183Z</time>
      </trkpt>
      <trkpt lat="48.452433" lon="9.862386">
        <ele>633.390857</ele>
        <time>2025-11-11T19:36:06.419Z</time>
      </trkpt>
      <trkpt lat="48.452025" lon="9.862840">
        <ele>632.797699</ele>
        <time>2025-11-11T19:36:12.260Z</time>
      </trkpt>
      <trkpt lat="48.451684" lon="9.863556">
        <ele>632.032435</ele>
        <time>2025-11-11T19:36:18.819Z</time>
      </trkpt>
      <trkpt lat="48.451434" lon="9.863952">
        <ele>631.336255</ele>
        <time>2025-11-11T19:36:22.838Z</time>
      </trkpt>
      <trkpt lat="48.450734" lon="9.864758">
        <ele>629.645210</ele>
        <time>2025-11-11T19:36:32.600Z</time>
      </trkpt>
      <trkpt lat="48.450228" lon="9.865452">
        <ele>628.366849</ele>
        <time>2025-11-11T19:36:40.068Z</time>
      </trkpt>
      <trkpt lat="48.450096" lon="9.865779">
        <ele>627.916785</ele>
        <time>2025-11-11T19:36:42.827Z</time>
      </trkpt>
      <trkpt lat="48.449705" lon="9.866924">
        <ele>626.402638</ele>
        <time>2025-11-11T19:36:52.236Z</time>
      </trkpt>
      <trkpt lat="48.449704" lon="9.866928">
        <ele>626.397612</ele>
        <time>2025-11-11T19:36:52.266Z</time>
      </trkpt>
      <trkpt lat="48.449525" lon="9.867547">
        <ele>625.603674</ele>
        <time>2025-11-11T19:36:57.422Z</time>
      </trkpt>
      <trkpt lat="48.449433" lon="9.867787">
        <ele>625.549360</ele>
        <time>2025-11-11T19:36:59.584Z</time>
      </trkpt>
      <trkpt lat="48.449033" lon="9.869234">
        <ele>625.263650</ele>
        <time>2025-11-11T19:37:13.178Z</time>
      </trkpt>
      <trkpt lat="48.448462" lon="9.871510">
        <ele>626.192089</ele>
        <time>2025-11-11T19:37:42.390Z</time>
      </trkpt>
      <trkpt lat="48.448290" lon="9.872288">
        <ele>626.762614</ele>
        <time>2025-11-11T19:37:53.938Z</time>
      </trkpt>
      <trkpt lat="48.448240" lon="9.872545">
        <ele>626.948940</ele>
        <time>2025-11-11T19:37:57.656Z</time>
      </trkpt>
      <trkpt lat="48.448115" lon="9.872932">
        <ele>627.016135</ele>
        <time>2025-11-11T19:38:03.419Z</time>
      </trkpt>
      <trkpt lat="48.447708" lon="9.873633">
        <ele>627.078365</ele>
        <time>2025-11-11T19:38:14.285Z</time>
      </trkpt>
      <trkpt lat="48.447558" lon="9.873985">
        <ele>627.106312</ele>
        <time>2025-11-11T19:38:18.169Z</time>
      </trkpt>
      <trkpt lat="48.447442" lon="9.874297">
        <ele>627.130204</ele>
        <time>2025-11-11T19:38:21.205Z</time>
      </trkpt>
      <trkpt lat="48.447138" lon="9.875356">
        <ele>626.986878</ele>
        <time>2025-11-11T19:38:30.449Z</time>
      </trkpt>
      <trkpt lat="48.446812" lon="9.876643">
        <ele>626.494139</ele>
        <time>2025-11-11T19:38:42.185Z</time>
      </trkpt>
      <trkpt lat="48.446723" lon="9.877189">
        <ele>626.293042</ele>
        <time>2025-11-11T19:38:47.701Z</time>
      </trkpt>
      <trkpt lat="48.446693" lon="9.877605">
        <ele>626.122361</ele>
        <time>2025-11-11T19:38:51.872Z</time>
      </trkpt>
      <trkpt lat="48.446707" lon="9.878354">
        <ele>625.759505</ele>
        <time>2025-11-11T19:38:59.419Z</time>
      </trkpt>
      <trkpt lat="48.446760" lon="9.880420">
        <ele>624.330330</ele>
        <time>2025-11-11T19:39:16.397Z</time>
      </trkpt>
      <trkpt lat="48.446760" lon="9.880427">
        <ele>624.315897</ele>
        <time>2025-11-11T19:39:16.443Z</time>
      </trkpt>
      <trkpt lat="48.446755" lon="9.881103">
        <ele>622.921932</ele>
        <time>2025-11-11T19:39:21.158Z</time>
      </trkpt>
      <trkpt lat="48.446711" lon="9.881861">
        <ele>621.353000</ele>
        <time>2025-11-11T19:39:26.247Z</time>
      </trkpt>
      <trkpt lat="48.446606" lon="9.884823">
        <ele>613.765933</ele>
        <time>2025-11-11T19:39:45.267Z</time>
      </trkpt>
      <trkpt lat="48.446600" lon="9.885222">
        <ele>612.644995</ele>
        <time>2025-11-11T19:39:47.807Z</time>
      </trkpt>
      <trkpt lat="48.446642" lon="9.886115">
        <ele>610.361942</ele>
        <time>2025-11-11T19:39:53.551Z</time>
      </trkpt>
      <trkpt lat="48.446688" lon="9.886585">
        <ele>609.226508</ele>
        <time>2025-11-11T19:39:56.641Z</time>
      </trkpt>
      <trkpt lat="48.446691" lon="9.887044">
        <ele>608.129472</ele>
        <time>2025-11-11T19:39:59.663Z</time>
      </trkpt>
      <trkpt lat="48.446601" lon="9.887654">
        <ele>606.635979</ele>
        <time>2025-11-11T19:40:03.869Z</time>
      </trkpt>
      <trkpt lat="48.446483" lon="9.888079">
        <ele>605.534861</ele>
        <time>2025-11-11T19:40:06.996Z</time>
      </trkpt>
      <trkpt lat="48.446208" lon="9.888708">
        <ele>604.186859</ele>
        <time>2025-11-11T19:40:12.063Z</time>
      </trkpt>
      <trkpt lat="48.446066" lon="9.889032">
        <ele>603.544874</ele>
        <time>2025-11-11T19:40:14.746Z</time>
      </trkpt>
      <trkpt lat="48.446017" lon="9.888985">
        <ele>603.400131</ele>
        <time>2025-11-11T19:40:15.618Z</time>
      </trkpt>
      <trkpt lat="48.445889" lon="9.889297">
        <ele>602.793658</ele>
        <time>2025-11-11T19:40:18.183Z</time>
      </trkpt>
      <trkpt lat="48.445780" lon="9.889453">
        <ele>602.419081</ele>
        <time>2025-11-11T19:40:19.768Z</time>
      </trkpt>
      <trkpt lat="48.445712" lon="9.889707">
        <ele>601.966261</ele>
        <time>2025-11-11T19:40:21.662Z</time>
      </trkpt>
      <trkpt lat="48.445687" lon="9.889761">
        <ele>601.857396</ele>
        <time>2025-11-11T19:40:22.113Z</time>
      </trkpt>
      <trkpt lat="48.445465" lon="9.890242">
        <ele>600.888664</ele>
        <time>2025-11-11T19:40:26.217Z</time>
      </trkpt>
      <trkpt lat="48.445359" lon="9.890418">
        <ele>600.756485</ele>
        <time>2025-11-11T19:40:27.964Z</time>
      </trkpt>
      <trkpt lat="48.445136" lon="9.890688">
        <ele>600.874857</ele>
        <time>2025-11-11T19:40:31.490Z</time>
      </trkpt>
      <trkpt lat="48.444792" lon="9.890938">
        <ele>601.032906</ele>
        <time>2025-11-11T19:40:38.074Z</time>
      </trkpt>
      <trkpt lat="48.444238" lon="9.891201">
        <ele>601.273286</ele>
        <time>2025-11-11T19:40:49.354Z</time>
      </trkpt>
      <trkpt lat="48.444154" lon="9.891235">
        <ele>601.309282</ele>
        <time>2025-11-11T19:40:51.251Z</time>
      </trkpt>
      <trkpt lat="48.444004" lon="9.891287">
        <ele>601.372981</ele>
        <time>2025-11-11T19:40:54.611Z</time>
      </trkpt>
      <trkpt lat="48.442983" lon="9.891736">
        <ele>601.138292</ele>
        <time>2025-11-11T19:41:15.900Z</time>
      </trkpt>
      <trkpt lat="48.442740" lon="9.891849">
        <ele>601.040268</ele>
        <time>2025-11-11T19:41:19.002Z</time>
      </trkpt>
      <trkpt lat="48.442092" lon="9.892265">
        <ele>600.764241</ele>
        <time>2025-11-11T19:41:26.711Z</time>
      </trkpt>
      <trkpt lat="48.441104" lon="9.892808">
        <ele>599.235868</ele>
        <time>2025-11-11T19:41:42.668Z</time>
      </trkpt>
      <trkpt lat="48.440700" lon="9.893178">
        <ele>598.548839</ele>
        <time>2025-11-11T19:41:51.009Z</time>
      </trkpt>
      <trkpt lat="48.440492" lon="9.893402">
        <ele>598.177320</ele>
        <time>2025-11-11T19:41:56.191Z</time>
      </trkpt>
      <trkpt lat="48.439903" lon="9.893885">
        <ele>598.716584</ele>
        <time>2025-11-11T19:42:12.655Z</time>
      </trkpt>
      <trkpt lat="48.439624" lon="9.894096">
        <ele>598.983125</ele>
        <time>2025-11-11T19:42:20.706Z</time>
      </trkpt>
      <trkpt lat="48.439189" lon="9.894322">
        <ele>599.376014</ele>
        <time>2025-11-11T19:42:31.966Z</time>
      </trkpt>
      <trkpt lat="48.438270" lon="9.894395">
        <ele>600.001519</ele>
        <time>2025-11-11T19:42:53.193Z</time>
      </trkpt>
      <trkpt lat="48.437833" lon="9.894603">
        <ele>600.259252</ele>
        <time>2025-11-11T19:43:02.876Z</time>
      </trkpt>
      <trkpt lat="48.437222" lon="9.895146">
        <ele>600.658161</ele>
        <time>2025-11-11T19:43:18.906Z</time>
      </trkpt>
      <trkpt lat="48.436951" lon="9.895340">
        <ele>600.883500</ele>
        <time>2025-11-11T19:43:25.835Z</time>
      </trkpt>
      <trkpt lat="48.436603" lon="9.895536">
        <ele>601.188505</ele>
        <time>2025-11-11T19:43:34.338Z</time>
      </trkpt>
      <trkpt lat="48.436568" lon="9.895549">
        <ele>601.218100</ele>
        <time>2025-11-11T19:43:35.141Z</time>
      </trkpt>
      <trkpt lat="48.436141" lon="9.895716">
        <ele>601.580280</ele>
        <time>2025-11-11T19:43:45.017Z</time>
      </trkpt>
      <trkpt lat="48.435382" lon="9.895887">
        <ele>602.265393</ele>
        <time>2025-11-11T19:44:03.074Z</time>
      </trkpt>
      <trkpt lat="48.435192" lon="9.895960">
        <ele>602.722971</ele>
        <time>2025-11-11T19:44:08.053Z</time>
      </trkpt>
      <trkpt lat="48.434883" lon="9.896161">
        <ele>603.508367</ele>
        <time>2025-11-11T19:44:17.249Z</time>
      </trkpt>
      <trkpt lat="48.434378" lon="9.896644">
        <ele>604.904128</ele>
        <time>2025-11-11T19:44:35.590Z</time>
      </trkpt>
      <trkpt lat="48.434225" lon="9.896779">
        <ele>605.317865</ele>
        <time>2025-11-11T19:44:41.501Z</time>
      </trkpt>
      <trkpt lat="48.433676" lon="9.896969">
        <ele>606.361482</ele>
        <time>2025-11-11T19:45:00.654Z</time>
      </trkpt>
      <trkpt lat="48.433086" lon="9.897068">
        <ele>606.271979</ele>
        <time>2025-11-11T19:45:18.378Z</time>
      </trkpt>
      <trkpt lat="48.432732" lon="9.897182">
        <ele>606.217402</ele>
        <time>2025-11-11T19:45:26.431Z</time>
      </trkpt>
      <trkpt lat="48.432395" lon="9.897317">
        <ele>606.164828</ele>
        <time>2025-11-11T19:45:32.360Z</time>
      </trkpt>
      <trkpt lat="48.431894" lon="9.897512">
        <ele>605.173528</ele>
        <time>2025-11-11T19:45:39.818Z</time>
      </trkpt>
      <trkpt lat="48.431690" lon="9.897623">
        <ele>603.642196</ele>
        <time>2025-11-11T19:45:42.706Z</time>
      </trkpt>
      <trkpt lat="48.431013" lon="9.898318">
        <ele>597.858702</ele>
        <time>2025-11-11T19:45:53.028Z</time>
      </trkpt>
      <trkpt lat="48.430916" lon="9.898399">
        <ele>597.075735</ele>
        <time>2025-11-11T19:45:54.408Z</time>
      </trkpt>
      <trkpt lat="48.430765" lon="9.898522">
        <ele>595.863843</ele>
        <time>2025-11-11T19:45:56.539Z</time>
      </trkpt>
      <trkpt lat="48.430502" lon="9.898745">
        <ele>593.733225</ele>
        <time>2025-11-11T19:46:00.298Z</time>
      </trkpt>
      <trkpt lat="48.430383" lon="9.898894">
        <ele>592.389227</ele>
        <time>2025-11-11T19:46:02.238Z</time>
      </trkpt>
      <trkpt lat="48.429960" lon="9.899571">
        <ele>586.602473</ele>
        <time>2025-11-11T19:46:09.947Z</time>
      </trkpt>
      <trkpt lat="48.429723" lon="9.899819">
        <ele>583.896526</ele>
        <time>2025-11-11T19:46:13.534Z</time>
      </trkpt>
      <trkpt lat="48.429525" lon="9.899941">
        <ele>581.890382</ele>
        <time>2025-11-11T19:46:16.184Z</time>
      </trkpt>
      <trkpt lat="48.429339" lon="9.899993">
        <ele>580.116225</ele>
        <time>2025-11-11T19:46:18.505Z</time>
      </trkpt>
      <trkpt lat="48.429063" lon="9.900002">
        <ele>577.527160</ele>
        <time>2025-11-11T19:46:21.852Z</time>
      </trkpt>
      <trkpt lat="48.428776" lon="9.899877">
        <ele>574.368211</ele>
        <time>2025-11-11T19:46:25.399Z</time>
      </trkpt>
      <trkpt lat="48.428709" lon="9.899831">
        <ele>573.541726</ele>
        <time>2025-11-11T19:46:26.278Z</time>
      </trkpt>
      <trkpt lat="48.428357" lon="9.899590">
        <ele>569.201666</ele>
        <time>2025-11-11T19:46:30.891Z</time>
      </trkpt>
      <trkpt lat="48.428185" lon="9.899521">
        <ele>567.203632</ele>
        <time>2025-11-11T19:46:33.038Z</time>
      </trkpt>
      <trkpt lat="48.427898" lon="9.899482">
        <ele>563.968824</ele>
        <time>2025-11-11T19:46:36.511Z</time>
      </trkpt>
      <trkpt lat="48.427604" lon="9.899602">
        <ele>560.549601</ele>
        <time>2025-11-11T19:46:40.158Z</time>
      </trkpt>
      <trkpt lat="48.427277" lon="9.899848">
        <ele>556.446883</ele>
        <time>2025-11-11T19:46:44.558Z</time>
      </trkpt>
      <trkpt lat="48.427114" lon="9.899926">
        <ele>554.817098</ele>
        <time>2025-11-11T19:46:46.611Z</time>
      </trkpt>
      <trkpt lat="48.426929" lon="9.899918">
        <ele>553.070384</ele>
        <time>2025-11-11T19:46:48.837Z</time>
      </trkpt>
      <trkpt lat="48.426571" lon="9.899742">
        <ele>549.516401</ele>
        <time>2025-11-11T19:46:53.549Z</time>
      </trkpt>
      <trkpt lat="48.426372" lon="9.899680">
        <ele>547.598557</ele>
        <time>2025-11-11T19:46:56.120Z</time>
      </trkpt>
      <trkpt lat="48.426147" lon="9.899686">
        <ele>545.474716</ele>
        <time>2025-11-11T19:46:58.882Z</time>
      </trkpt>
      <trkpt lat="48.425894" lon="9.899737">
        <ele>543.065681</ele>
        <time>2025-11-11T19:47:01.997Z</time>
      </trkpt>
      <trkpt lat="48.425588" lon="9.899812">
        <ele>540.139761</ele>
        <time>2025-11-11T19:47:05.783Z</time>
      </trkpt>
      <trkpt lat="48.425419" lon="9.899809">
        <ele>538.697059</ele>
        <time>2025-11-11T19:47:07.866Z</time>
      </trkpt>
      <trkpt lat="48.425046" lon="9.899736">
        <ele>535.800402</ele>
        <time>2025-11-11T19:47:12.594Z</time>
      </trkpt>
      <trkpt lat="48.424330" lon="9.899445">
        <ele>530.089345</ele>
        <time>2025-11-11T19:47:22.057Z</time>
      </trkpt>
      <trkpt lat="48.424164" lon="9.899342">
        <ele>528.706821</ele>
        <time>2025-11-11T19:47:24.320Z</time>
      </trkpt>
      <trkpt lat="48.423998" lon="9.899240">
        <ele>527.326234</ele>
        <time>2025-11-11T19:47:25.909Z</time>
      </trkpt>
      <trkpt lat="48.423423" lon="9.898703">
        <ele>523.520905</ele>
        <time>2025-11-11T19:47:31.964Z</time>
      </trkpt>
      <trkpt lat="48.422821" lon="9.898219">
        <ele>520.433611</ele>
        <time>2025-11-11T19:47:38.365Z</time>
      </trkpt>
      <trkpt lat="48.422712" lon="9.898136">
        <ele>519.881029</ele>
        <time>2025-11-11T19:47:39.548Z</time>
      </trkpt>
      <trkpt lat="48.422815" lon="9.898047">
        <ele>519.343805</ele>
        <time>2025-11-11T19:47:40.732Z</time>
      </trkpt>
      <trkpt lat="48.422941" lon="9.898033">
        <ele>518.772150</ele>
        <time>2025-11-11T19:47:42.034Z</time>
      </trkpt>
      <trkpt lat="48.423338" lon="9.898077">
        <ele>517.327470</ele>
        <time>2025-11-11T19:47:46.596Z</time>
      </trkpt>
      <trkpt lat="48.423740" lon="9.898124">
        <ele>517.081614</ele>
        <time>2025-11-11T19:47:52.564Z</time>
      </trkpt>
      <trkpt lat="48.423932" lon="9.898462">
        <ele>516.901582</ele>
        <time>2025-11-11T19:47:57.470Z</time>
      </trkpt>
      <trkpt lat="48.424162" lon="9.898719">
        <ele>516.726990</ele>
        <time>2025-11-11T19:48:01.999Z</time>
      </trkpt>
      <trkpt lat="48.424334" lon="9.898836">
        <ele>516.611922</ele>
        <time>2025-11-11T19:48:04.835Z</time>
      </trkpt>
      <trkpt lat="48.425112" lon="9.898917">
        <ele>515.908332</ele>
        <time>2025-11-11T19:48:14.394Z</time>
      </trkpt>
      <trkpt lat="48.425472" lon="9.898802">
        <ele>515.342445</ele>
        <time>2025-11-11T19:48:18.432Z</time>
      </trkpt>
      <trkpt lat="48.425745" lon="9.898593">
        <ele>514.871575</ele>
        <time>2025-11-11T19:48:21.734Z</time>
      </trkpt>
      <trkpt lat="48.425879" lon="9.898490">
        <ele>514.640261</ele>
        <time>2025-11-11T19:48:23.331Z</time>
      </trkpt>
      <trkpt lat="48.426011" lon="9.898387">
        <ele>514.411682</ele>
        <time>2025-11-11T19:48:24.936Z</time>
      </trkpt>
      <trkpt lat="48.426042" lon="9.898362">
        <ele>514.357615</ele>
        <time>2025-11-11T19:48:25.314Z</time>
      </trkpt>
      <trkpt lat="48.426232" lon="9.898136">
        <ele>513.985396</ele>
        <time>2025-11-11T19:48:28.067Z</time>
      </trkpt>
      <trkpt lat="48.426381" lon="9.897955">
        <ele>513.691101</ele>
        <time>2025-11-11T19:48:30.332Z</time>
      </trkpt>
      <trkpt lat="48.426525" lon="9.897779">
        <ele>513.494337</ele>
        <time>2025-11-11T19:48:32.600Z</time>
      </trkpt>
      <trkpt lat="48.426631" lon="9.897618">
        <ele>513.441582</ele>
        <time>2025-11-11T19:48:34.611Z</time>
      </trkpt>
      <trkpt lat="48.426749" lon="9.897415">
        <ele>513.378808</ele>
        <time>2025-11-11T19:48:37.251Z</time>
      </trkpt>
      <trkpt lat="48.427018" lon="9.896843">
        <ele>513.215732</ele>
        <time>2025-11-11T19:48:44.337Z</time>
      </trkpt>
      <trkpt lat="48.427048" lon="9.896767">
        <ele>513.195163</ele>
        <time>2025-11-11T19:48:45.159Z</time>
      </trkpt>
      <trkpt lat="48.427889" lon="9.894580">
        <ele>512.506073</ele>
        <time>2025-11-11T19:49:08.400Z</time>
      </trkpt>
      <trkpt lat="48.427935" lon="9.894478">
        <ele>512.467124</ele>
        <time>2025-11-11T19:49:09.427Z</time>
      </trkpt>
      <trkpt lat="48.427975" lon="9.894379">
        <ele>512.430519</ele>
        <time>2025-11-11T19:49:10.410Z</time>
      </trkpt>
      <trkpt lat="48.428244" lon="9.893718">
        <ele>512.185638</ele>
        <time>2025-11-11T19:49:16.924Z</time>
      </trkpt>
      <trkpt lat="48.428485" lon="9.893255">
        <ele>512.051429</ele>
        <time>2025-11-11T19:49:21.927Z</time>
      </trkpt>
      <trkpt lat="48.428922" lon="9.892773">
        <ele>512.183875</ele>
        <time>2025-11-11T19:49:29.471Z</time>
      </trkpt>
      <trkpt lat="48.429446" lon="9.892264">
        <ele>512.336346</ele>
        <time>2025-11-11T19:49:39.695Z</time>
      </trkpt>
      <trkpt lat="48.430567" lon="9.891574">
        <ele>512.894573</ele>
        <time>2025-11-11T19:50:01.878Z</time>
      </trkpt>
      <trkpt lat="48.430906" lon="9.891261">
        <ele>513.152380</ele>
        <time>2025-11-11T19:50:08.805Z</time>
      </trkpt>
      <trkpt lat="48.431432" lon="9.890499">
        <ele>513.625504</ele>
        <time>2025-11-11T19:50:21.042Z</time>
      </trkpt>
      <trkpt lat="48.432247" lon="9.889150">
        <ele>513.857824</ele>
        <time>2025-11-11T19:50:40.269Z</time>
      </trkpt>
      <trkpt lat="48.432992" lon="9.888122">
        <ele>513.828922</ele>
        <time>2025-11-11T19:50:55.380Z</time>
      </trkpt>
      <trkpt lat="48.434118" lon="9.886828">
        <ele>513.321213</ele>
        <time>2025-11-11T19:51:14.754Z</time>
      </trkpt>
      <trkpt lat="48.435108" lon="9.885974">
        <ele>512.340894</ele>
        <time>2025-11-11T19:51:28.398Z</time>
      </trkpt>
      <trkpt lat="48.435941" lon="9.884417">
        <ele>512.171071</ele>
        <time>2025-11-11T19:51:45.426Z</time>
      </trkpt>
      <trkpt lat="48.436256" lon="9.883823">
        <ele>512.451622</ele>
        <time>2025-11-11T19:51:54.153Z</time>
      </trkpt>
      <trkpt lat="48.436342" lon="9.883708">
        <ele>512.515553</ele>
        <time>2025-11-11T19:51:56.356Z</time>
      </trkpt>
      <trkpt lat="48.436608" lon="9.883652">
        <ele>512.664907</ele>
        <time>2025-11-11T19:52:01.845Z</time>
      </trkpt>
      <trkpt lat="48.436729" lon="9.883698">
        <ele>512.734300</ele>
        <time>2025-11-11T19:52:04.571Z</time>
      </trkpt>
      <trkpt lat="48.436841" lon="9.883833">
        <ele>512.910960</ele>
        <time>2025-11-11T19:52:07.863Z</time>
      </trkpt>
      <trkpt lat="48.437114" lon="9.884394">
        <ele>514.199679</ele>
        <time>2025-11-11T19:52:19.563Z</time>
      </trkpt>
      <trkpt lat="48.437461" lon="9.885008">
        <ele>515.693698</ele>
        <time>2025-11-11T19:52:34.855Z</time>
      </trkpt>
      <trkpt lat="48.437898" lon="9.885493">
        <ele>517.208849</ele>
        <time>2025-11-11T19:52:50.842Z</time>
      </trkpt>
      <trkpt lat="48.438269" lon="9.885734">
        <ele>517.639669</ele>
        <time>2025-11-11T19:53:01.002Z</time>
      </trkpt>
      <trkpt lat="48.438611" lon="9.885899">
        <ele>517.311159</ele>
        <time>2025-11-11T19:53:07.941Z</time>
      </trkpt>
      <trkpt lat="48.438899" lon="9.885961">
        <ele>517.045011</ele>
        <time>2025-11-11T19:53:11.558Z</time>
      </trkpt>
      <trkpt lat="48.439393" lon="9.885828">
        <ele>516.585929</ele>
        <time>2025-11-11T19:53:17.007Z</time>
      </trkpt>
      <trkpt lat="48.439585" lon="9.885697">
        <ele>516.393124</ele>
        <time>2025-11-11T19:53:19.172Z</time>
      </trkpt>
      <trkpt lat="48.439765" lon="9.885509">
        <ele>516.192786</ele>
        <time>2025-11-11T19:53:21.358Z</time>
      </trkpt>
      <trkpt lat="48.440103" lon="9.885058">
        <ele>515.405756</ele>
        <time>2025-11-11T19:53:25.832Z</time>
      </trkpt>
      <trkpt lat="48.440378" lon="9.884538">
        <ele>514.611457</ele>
        <time>2025-11-11T19:53:30.374Z</time>
      </trkpt>
      <trkpt lat="48.440556" lon="9.884030">
        <ele>513.925258</ele>
        <time>2025-11-11T19:53:34.729Z</time>
      </trkpt>
      <trkpt lat="48.440906" lon="9.882792">
        <ele>513.057250</ele>
        <time>2025-11-11T19:53:47.414Z</time>
      </trkpt>
      <trkpt lat="48.440972" lon="9.882624">
        <ele>513.106712</ele>
        <time>2025-11-11T19:53:49.753Z</time>
      </trkpt>
      <trkpt lat="48.441103" lon="9.882227">
        <ele>513.219040</ele>
        <time>2025-11-11T19:53:55.539Z</time>
      </trkpt>
      <trkpt lat="48.441225" lon="9.881555">
        <ele>513.395539</ele>
        <time>2025-11-11T19:54:04.454Z</time>
      </trkpt>
      <trkpt lat="48.441301" lon="9.880932">
        <ele>513.556010</ele>
        <time>2025-11-11T19:54:11.366Z</time>
      </trkpt>
      <trkpt lat="48.441306" lon="9.880407">
        <ele>513.504891</ele>
        <time>2025-11-11T19:54:16.270Z</time>
      </trkpt>
      <trkpt lat="48.441249" lon="9.879861">
        <ele>513.297867</ele>
        <time>2025-11-11T19:54:20.883Z</time>
      </trkpt>
      <trkpt lat="48.440989" lon="9.878893">
        <ele>512.906705</ele>
        <time>2025-11-11T19:54:29.246Z</time>
      </trkpt>
      <trkpt lat="48.440941" lon="9.878621">
        <ele>512.801282</ele>
        <time>2025-11-11T19:54:31.480Z</time>
      </trkpt>
      <trkpt lat="48.440949" lon="9.878346">
        <ele>512.698180</ele>
        <time>2025-11-11T19:54:33.812Z</time>
      </trkpt>
      <trkpt lat="48.440996" lon="9.878073">
        <ele>512.609873</ele>
        <time>2025-11-11T19:54:36.439Z</time>
      </trkpt>
      <trkpt lat="48.441195" lon="9.877412">
        <ele>513.045645</ele>
        <time>2025-11-11T19:54:44.219Z</time>
      </trkpt>
      <trkpt lat="48.441585" lon="9.875934">
        <ele>514.000547</ele>
        <time>2025-11-11T19:55:05.132Z</time>
      </trkpt>
      <trkpt lat="48.441705" lon="9.875598">
        <ele>514.231003</ele>
        <time>2025-11-11T19:55:10.622Z</time>
      </trkpt>
      <trkpt lat="48.441867" lon="9.875298">
        <ele>514.578962</ele>
        <time>2025-11-11T19:55:16.067Z</time>
      </trkpt>
      <trkpt lat="48.442386" lon="9.874811">
        <ele>515.407911</ele>
        <time>2025-11-11T19:55:28.290Z</time>
      </trkpt>
      <trkpt lat="48.442642" lon="9.874531">
        <ele>515.836783</ele>
        <time>2025-11-11T19:55:34.485Z</time>
      </trkpt>
      <trkpt lat="48.442991" lon="9.873974">
        <ele>516.525965</ele>
        <time>2025-11-11T19:55:45.305Z</time>
      </trkpt>
      <trkpt lat="48.443127" lon="9.873643">
        <ele>516.742030</ele>
        <time>2025-11-11T19:55:50.750Z</time>
      </trkpt>
      <trkpt lat="48.443352" lon="9.872549">
        <ele>517.115425</ele>
        <time>2025-11-11T19:56:04.497Z</time>
      </trkpt>
      <trkpt lat="48.443427" lon="9.872290">
        <ele>517.207553</ele>
        <time>2025-11-11T19:56:07.782Z</time>
      </trkpt>
      <trkpt lat="48.443454" lon="9.871940">
        <ele>517.322423</ele>
        <time>2025-11-11T19:56:11.708Z</time>
      </trkpt>
      <trkpt lat="48.443450" lon="9.871116">
        <ele>517.457160</ele>
        <time>2025-11-11T19:56:19.414Z</time>
      </trkpt>
      <trkpt lat="48.443487" lon="9.870682">
        <ele>517.137997</ele>
        <time>2025-11-11T19:56:22.893Z</time>
      </trkpt>
      <trkpt lat="48.443481" lon="9.869708">
        <ele>516.427532</ele>
        <time>2025-11-11T19:56:30.007Z</time>
      </trkpt>
      <trkpt lat="48.443563" lon="9.869331">
        <ele>516.138144</ele>
        <time>2025-11-11T19:56:33.027Z</time>
      </trkpt>
      <trkpt lat="48.443918" lon="9.868494">
        <ele>515.659472</ele>
        <time>2025-11-11T19:56:41.266Z</time>
      </trkpt>
      <trkpt lat="48.444088" lon="9.867983">
        <ele>515.889657</ele>
        <time>2025-11-11T19:56:47.067Z</time>
      </trkpt>
      <trkpt lat="48.444583" lon="9.866792">
        <ele>516.455574</ele>
        <time>2025-11-11T19:57:04.513Z</time>
      </trkpt>
      <trkpt lat="48.444718" lon="9.866411">
        <ele>516.629500</ele>
        <time>2025-11-11T19:57:10.309Z</time>
      </trkpt>
      <trkpt lat="48.444887" lon="9.865822">
        <ele>517.230168</ele>
        <time>2025-11-11T19:57:18.719Z</time>
      </trkpt>
      <trkpt lat="48.445001" lon="9.865567">
        <ele>517.543077</ele>
        <time>2025-11-11T19:57:22.652Z</time>
      </trkpt>
      <trkpt lat="48.445939" lon="9.863743">
        <ele>520.341293</ele>
        <time>2025-11-11T19:57:55.358Z</time>
      </trkpt>
      <trkpt lat="48.446171" lon="9.863261">
        <ele>521.528844</ele>
        <time>2025-11-11T19:58:05.379Z</time>
      </trkpt>
      <trkpt lat="48.446594" lon="9.862376">
        <ele>523.704056</ele>
        <time>2025-11-11T19:58:26.576Z</time>
      </trkpt>
      <trkpt lat="48.446652" lon="9.862108">
        <ele>524.266199</ele>
        <time>2025-11-11T19:58:32.351Z</time>
      </trkpt>
      <trkpt lat="48.446669" lon="9.861884">
        <ele>524.715791</ele>
        <time>2025-11-11T19:58:36.750Z</time>
      </trkpt>
      <trkpt lat="48.446684" lon="9.861695">
        <ele>525.166490</ele>
        <time>2025-11-11T19:58:40.299Z</time>
      </trkpt>
      <trkpt lat="48.446707" lon="9.861551">
        <ele>525.541038</ele>
        <time>2025-11-11T19:58:43.138Z</time>
      </trkpt>
      <trkpt lat="48.446756" lon="9.861424">
        <ele>525.912565</ele>
        <time>2025-11-11T19:58:45.997Z</time>
      </trkpt>
      <trkpt lat="48.446879" lon="9.861323">
        <ele>526.446521</ele>
        <time>2025-11-11T19:58:49.923Z</time>
      </trkpt>
      <trkpt lat="48.447668" lon="9.860903">
        <ele>529.636409</ele>
        <time>2025-11-11T19:59:13.866Z</time>
      </trkpt>
      <trkpt lat="48.448092" lon="9.860724">
        <ele>531.314996</ele>
        <time>2025-11-11T19:59:27.813Z</time>
      </trkpt>
      <trkpt lat="48.448336" lon="9.860596">
        <ele>532.547733</ele>
        <time>2025-11-11T19:59:36.549Z</time>
      </trkpt>
      <trkpt lat="48.448379" lon="9.860536">
        <ele>532.861421</ele>
        <time>2025-11-11T19:59:38.450Z</time>
      </trkpt>
      <trkpt lat="48.448433" lon="9.860459">
        <ele>533.259361</ele>
        <time>2025-11-11T19:59:41.096Z</time>
      </trkpt>
      <trkpt lat="48.448528" lon="9.860304">
        <ele>534.008812</ele>
        <time>2025-11-11T19:59:45.892Z</time>
      </trkpt>
      <trkpt lat="48.448620" lon="9.860173">
        <ele>534.686332</ele>
        <time>2025-11-11T19:59:50.296Z</time>
      </trkpt>
      <trkpt lat="48.448665" lon="9.860098">
        <ele>535.045473</ele>
        <time>2025-11-11T19:59:52.682Z</time>
      </trkpt>
      <trkpt lat="48.448717" lon="9.860021">
        <ele>535.435702</ele>
        <time>2025-11-11T19:59:55.215Z</time>
      </trkpt>
      <trkpt lat="48.448807" lon="9.859890">
        <ele>536.105476</ele>
        <time>2025-11-11T19:59:59.712Z</time>
      </trkpt>
      <trkpt lat="48.449094" lon="9.859512">
        <ele>538.145804</ele>
        <time>2025-11-11T20:00:13.888Z</time>
      </trkpt>
      <trkpt lat="48.449592" lon="9.859350">
        <ele>540.873407</ele>
        <time>2025-11-11T20:00:34.120Z</time>
      </trkpt>
      <trkpt lat="48.449832" lon="9.859168">
        <ele>542.063668</ele>
        <time>2025-11-11T20:00:44.523Z</time>
      </trkpt>
      <trkpt lat="48.449929" lon="9.858929">
        <ele>542.810590</ele>
        <time>2025-11-11T20:00:51.512Z</time>
      </trkpt>
      <trkpt lat="48.449961" lon="9.858789">
        <ele>543.205331</ele>
        <time>2025-11-11T20:00:55.198Z</time>
      </trkpt>
      <trkpt lat="48.449934" lon="9.858566">
        <ele>543.809613</ele>
        <time>2025-11-11T20:01:00.653Z</time>
      </trkpt>
      <trkpt lat="48.449879" lon="9.858385">
        <ele>544.340336</ele>
        <time>2025-11-11T20:01:05.321Z</time>
      </trkpt>
      <trkpt lat="48.449804" lon="9.858237">
        <ele>544.836836</ele>
        <time>2025-11-11T20:01:09.561Z</time>
      </trkpt>
      <trkpt lat="48.449660" lon="9.858074">
        <ele>545.560541</ele>
        <time>2025-11-11T20:01:15.448Z</time>
      </trkpt>
      <trkpt lat="48.449456" lon="9.857992">
        <ele>546.409067</ele>
        <time>2025-11-11T20:01:21.792Z</time>
      </trkpt>
      <trkpt lat="48.449304" lon="9.857841">
        <ele>547.140658</ele>
        <time>2025-11-11T20:01:26.667Z</time>
      </trkpt>
      <trkpt lat="48.449215" lon="9.857650">
        <ele>547.762906</ele>
        <time>2025-11-11T20:01:30.426Z</time>
      </trkpt>
      <trkpt lat="48.449188" lon="9.857454">
        <ele>548.296547</ele>
        <time>2025-11-11T20:01:33.396Z</time>
      </trkpt>
      <trkpt lat="48.449196" lon="9.857229">
        <ele>548.560068</ele>
        <time>2025-11-11T20:01:36.440Z</time>
      </trkpt>
      <trkpt lat="48.449267" lon="9.856421">
        <ele>548.649294</ele>
        <time>2025-11-11T20:01:44.526Z</time>
      </trkpt>
      <trkpt lat="48.449252" lon="9.856118">
        <ele>548.682557</ele>
        <time>2025-11-11T20:01:47.060Z</time>
      </trkpt>
      <trkpt lat="48.449180" lon="9.855677">
        <ele>548.732275</ele>
        <time>2025-11-11T20:01:50.805Z</time>
      </trkpt>
      <trkpt lat="48.449070" lon="9.855095">
        <ele>548.798524</ele>
        <time>2025-11-11T20:01:56.194Z</time>
      </trkpt>
      <trkpt lat="48.448775" lon="9.854118">
        <ele>549.119911</ele>
        <time>2025-11-11T20:02:08.040Z</time>
      </trkpt>
      <trkpt lat="48.448736" lon="9.853882">
        <ele>549.220338</ele>
        <time>2025-11-11T20:02:10.923Z</time>
      </trkpt>
      <trkpt lat="48.448729" lon="9.853655">
        <ele>549.314171</ele>
        <time>2025-11-11T20:02:13.720Z</time>
      </trkpt>
      <trkpt lat="48.448753" lon="9.853475">
        <ele>549.389983</ele>
        <time>2025-11-11T20:02:16.054Z</time>
      </trkpt>
      <trkpt lat="48.448828" lon="9.853231">
        <ele>549.501027</ele>
        <time>2025-11-11T20:02:19.495Z</time>
      </trkpt>
      <trkpt lat="48.448969" lon="9.853007">
        <ele>549.628540</ele>
        <time>2025-11-11T20:02:23.389Z</time>
      </trkpt>
      <trkpt lat="48.449427" lon="9.852527">
        <ele>549.960051</ele>
        <time>2025-11-11T20:02:33.183Z</time>
      </trkpt>
      <trkpt lat="48.449594" lon="9.852249">
        <ele>549.935639</ele>
        <time>2025-11-11T20:02:37.108Z</time>
      </trkpt>
      <trkpt lat="48.449752" lon="9.851887">
        <ele>549.907434</ele>
        <time>2025-11-11T20:02:41.492Z</time>
      </trkpt>
      <trkpt lat="48.450076" lon="9.851497">
        <ele>549.866749</ele>
        <time>2025-11-11T20:02:47.508Z</time>
      </trkpt>
      <trkpt lat="48.450120" lon="9.851385">
        <ele>549.858277</ele>
        <time>2025-11-11T20:02:48.717Z</time>
      </trkpt>
      <trkpt lat="48.450748" lon="9.849118">
        <ele>549.874644</ele>
        <time>2025-11-11T20:03:10.433Z</time>
      </trkpt>
      <trkpt lat="48.450886" lon="9.848133">
        <ele>549.941394</ele>
        <time>2025-11-11T20:03:20.359Z</time>
      </trkpt>
      <trkpt lat="48.450994" lon="9.847656">
        <ele>550.252275</ele>
        <time>2025-11-11T20:03:26.343Z</time>
      </trkpt>
      <trkpt lat="48.451169" lon="9.847129">
        <ele>551.454947</ele>
        <time>2025-11-11T20:03:35.440Z</time>
      </trkpt>
      <trkpt lat="48.451310" lon="9.846927">
        <ele>552.053369</ele>
        <time>2025-11-11T20:03:40.761Z</time>
      </trkpt>
      <trkpt lat="48.451440" lon="9.846815">
        <ele>552.514032</ele>
        <time>2025-11-11T20:03:45.071Z</time>
      </trkpt>
      <trkpt lat="48.451709" lon="9.846732">
        <ele>553.358814</ele>
        <time>2025-11-11T20:03:53.111Z</time>
      </trkpt>
      <trkpt lat="48.451981" lon="9.846559">
        <ele>554.267087</ele>
        <time>2025-11-11T20:04:01.876Z</time>
      </trkpt>
      <trkpt lat="48.452016" lon="9.846532">
        <ele>554.388048</ele>
        <time>2025-11-11T20:04:03.010Z</time>
      </trkpt>
      <trkpt lat="48.452319" lon="9.846188">
        <ele>555.599451</ele>
        <time>2025-11-11T20:04:14.847Z</time>
      </trkpt>
      <trkpt lat="48.452527" lon="9.845813">
        <ele>557.393310</ele>
        <time>2025-11-11T20:04:25.830Z</time>
      </trkpt>
      <trkpt lat="48.452646" lon="9.845538">
        <ele>558.598216</ele>
        <time>2025-11-11T20:04:33.371Z</time>
      </trkpt>
      <trkpt lat="48.452735" lon="9.845255">
        <ele>559.747517</ele>
        <time>2025-11-11T20:04:40.406Z</time>
      </trkpt>
      <trkpt lat="48.453055" lon="9.843706">
        <ele>565.838260</ele>
        <time>2025-11-11T20:05:21.456Z</time>
      </trkpt>
      <trkpt lat="48.453056" lon="9.843702">
        <ele>565.862557</ele>
        <time>2025-11-11T20:05:21.581Z</time>
      </trkpt>
      <trkpt lat="48.453141" lon="9.843145">
        <ele>569.111273</ele>
        <time>2025-11-11T20:05:39.531Z</time>
      </trkpt>
      <trkpt lat="48.453223" lon="9.841470">
        <ele>578.657866</ele>
        <time>2025-11-11T20:06:34.091Z</time>
      </trkpt>
      <trkpt lat="48.453268" lon="9.840935">
        <ele>582.027522</ele>
        <time>2025-11-11T20:06:53.551Z</time>
      </trkpt>
      <trkpt lat="48.453334" lon="9.840344">
        <ele>586.642781</ele>
        <time>2025-11-11T20:07:18.120Z</time>
      </trkpt>
      <trkpt lat="48.453440" lon="9.839846">
        <ele>590.670447</ele>
        <time>2025-11-11T20:07:41.335Z</time>
      </trkpt>
      <trkpt lat="48.453494" lon="9.839733">
        <ele>591.742996</ele>
        <time>2025-11-11T20:07:47.384Z</time>
      </trkpt>
      <trkpt lat="48.453550" lon="9.839681">
        <ele>592.506633</ele>
        <time>2025-11-11T20:07:51.750Z</time>
      </trkpt>
      <trkpt lat="48.453641" lon="9.839662">
        <ele>593.573326</ele>
        <time>2025-11-11T20:07:57.602Z</time>
      </trkpt>
      <trkpt lat="48.454129" lon="9.839837">
        <ele>599.397595</ele>
        <time>2025-11-11T20:08:29.031Z</time>
      </trkpt>
      <trkpt lat="48.454289" lon="9.839724">
        <ele>601.449068</ele>
        <time>2025-11-11T20:08:39.835Z</time>
      </trkpt>
      <trkpt lat="48.454337" lon="9.839536">
        <ele>602.963684</ele>
        <time>2025-11-11T20:08:47.950Z</time>
      </trkpt>
      <trkpt lat="48.454385" lon="9.838807">
        <ele>608.439609</ele>
        <time>2025-11-11T20:09:17.341Z</time>
      </trkpt>
      <trkpt lat="48.454505" lon="9.838307">
        <ele>612.414192</ele>
        <time>2025-11-11T20:09:37.831Z</time>
      </trkpt>
      <trkpt lat="48.454668" lon="9.837952">
        <ele>615.641611</ele>
        <time>2025-11-11T20:09:54.223Z</time>
      </trkpt>
      <trkpt lat="48.454779" lon="9.837781">
        <ele>617.430139</ele>
        <time>2025-11-11T20:10:03.439Z</time>
      </trkpt>
      <trkpt lat="48.454938" lon="9.837582">
        <ele>619.759065</ele>
        <time>2025-11-11T20:10:16.086Z</time>
      </trkpt>
      <trkpt lat="48.455448" lon="9.837054">
        <ele>625.622414</ele>
        <time>2025-11-11T20:10:55.492Z</time>
      </trkpt>
      <trkpt lat="48.455640" lon="9.836892">
        <ele>627.518224</ele>
        <time>2025-11-11T20:11:09.182Z</time>
      </trkpt>
      <trkpt lat="48.455793" lon="9.836825">
        <ele>628.891050</ele>
        <time>2025-11-11T20:11:18.486Z</time>
      </trkpt>
      <trkpt lat="48.456367" lon="9.836607">
        <ele>633.991507</ele>
        <time>2025-11-11T20:11:46.748Z</time>
      </trkpt>
      <trkpt lat="48.456465" lon="9.836585">
        <ele>634.845250</ele>
        <time>2025-11-11T20:11:50.536Z</time>
      </trkpt>
      <trkpt lat="48.456843" lon="9.836486">
        <ele>637.730211</ele>
        <time>2025-11-11T20:12:03.090Z</time>
      </trkpt>
      <trkpt lat="48.457307" lon="9.836461">
        <ele>639.064231</ele>
        <time>2025-11-11T20:12:15.736Z</time>
      </trkpt>
      <trkpt lat="48.457389" lon="9.836461">
        <ele>639.299835</ele>
        <time>2025-11-11T20:12:17.812Z</time>
      </trkpt>
      <trkpt lat="48.457561" lon="9.837534">
        <ele>641.403254</ele>
        <time>2025-11-11T20:12:35.112Z</time>
      </trkpt>
      <trkpt lat="48.457688" lon="9.838115">
        <ele>642.568900</ele>
        <time>2025-11-11T20:12:44.593Z</time>
      </trkpt>
      <trkpt lat="48.457936" lon="9.838817">
        <ele>643.781656</ele>
        <time>2025-11-11T20:12:57.191Z</time>
      </trkpt>
      <trkpt lat="48.457966" lon="9.838895">
        <ele>643.916223</ele>
        <time>2025-11-11T20:12:58.578Z</time>
      </trkpt>
      <trkpt lat="48.458258" lon="9.839509">
        <ele>645.043810</ele>
        <time>2025-11-11T20:13:10.782Z</time>
      </trkpt>
      <trkpt lat="48.458382" lon="9.839763">
        <ele>645.514510</ele>
        <time>2025-11-11T20:13:15.795Z</time>
      </trkpt>
      <trkpt lat="48.458505" lon="9.840008">
        <ele>645.973099</ele>
        <time>2025-11-11T20:13:20.665Z</time>
      </trkpt>
      <trkpt lat="48.458683" lon="9.840389">
        <ele>646.668625</ele>
        <time>2025-11-11T20:13:28.095Z</time>
      </trkpt>
      <trkpt lat="48.458987" lon="9.840804">
        <ele>647.285038</ele>
        <time>2025-11-11T20:13:37.799Z</time>
      </trkpt>
      <trkpt lat="48.459067" lon="9.840905">
        <ele>647.435817</ele>
        <time>2025-11-11T20:13:40.244Z</time>
      </trkpt>
      <trkpt lat="48.459298" lon="9.841285">
        <ele>647.929836</ele>
        <time>2025-11-11T20:13:48.036Z</time>
      </trkpt>
      <trkpt lat="48.459417" lon="9.841542">
        <ele>648.230223</ele>
        <time>2025-11-11T20:13:52.421Z</time>
      </trkpt>
      <trkpt lat="48.459486" lon="9.841757">
        <ele>648.459124</ele>
        <time>2025-11-11T20:13:55.530Z</time>
      </trkpt>
      <trkpt lat="48.459603" lon="9.842173">
        <ele>648.892161</ele>
        <time>2025-11-11T20:14:01.133Z</time>
      </trkpt>
      <trkpt lat="48.459668" lon="9.842230">
        <ele>649.000822</ele>
        <time>2025-11-11T20:14:02.483Z</time>
      </trkpt>
      <trkpt lat="48.459721" lon="9.842247">
        <ele>649.079126</ele>
        <time>2025-11-11T20:14:03.415Z</time>
      </trkpt>
      <trkpt lat="48.459955" lon="9.842301">
        <ele>649.306382</ele>
        <time>2025-11-11T20:14:07.352Z</time>
      </trkpt>
      <trkpt lat="48.459987" lon="9.842207">
        <ele>649.273661</ele>
        <time>2025-11-11T20:14:08.445Z</time>
      </trkpt>
      <trkpt lat="48.459986" lon="9.842102">
        <ele>649.241141</ele>
        <time>2025-11-11T20:14:09.552Z</time>
      </trkpt>
      <trkpt lat="48.459980" lon="9.842020">
        <ele>649.215594</ele>
        <time>2025-11-11T20:14:10.384Z</time>
      </trkpt>
      <trkpt lat="48.459968" lon="9.841833">
        <ele>649.157414</ele>
        <time>2025-11-11T20:14:12.319Z</time>
      </trkpt>
      <trkpt lat="48.460213" lon="9.841514">
        <ele>649.006255</ele>
        <time>2025-11-11T20:14:16.708Z</time>
      </trkpt>
      <trkpt lat="48.460311" lon="9.841425">
        <ele>648.952832</ele>
        <time>2025-11-11T20:14:18.177Z</time>
      </trkpt>
      <trkpt lat="48.460459" lon="9.841364">
        <ele>648.881184</ele>
        <time>2025-11-11T20:14:20.112Z</time>
      </trkpt>
      <trkpt lat="48.460506" lon="9.841357">
        <ele>648.859128</ele>
        <time>2025-11-11T20:14:20.691Z</time>
      </trkpt>
      <trkpt lat="48.460667" lon="9.841333">
        <ele>648.783577</ele>
        <time>2025-11-11T20:14:22.702Z</time>
      </trkpt>
      <trkpt lat="48.460937" lon="9.841359">
        <ele>648.657235</ele>
        <time>2025-11-11T20:14:26.090Z</time>
      </trkpt>
      <trkpt lat="48.461169" lon="9.841361">
        <ele>648.548892</ele>
        <time>2025-11-11T20:14:28.944Z</time>
      </trkpt>
      <trkpt lat="48.461416" lon="9.841434">
        <ele>648.344182</ele>
        <time>2025-11-11T20:14:32.006Z</time>
      </trkpt>
      <trkpt lat="48.461613" lon="9.841473">
        <ele>648.123291</ele>
        <time>2025-11-11T20:14:34.420Z</time>
      </trkpt>
      <trkpt lat="48.461947" lon="9.841524">
        <ele>647.750074</ele>
        <time>2025-11-11T20:14:38.481Z</time>
      </trkpt>
      <trkpt lat="48.462007" lon="9.841533">
        <ele>647.683040</ele>
        <time>2025-11-11T20:14:39.198Z</time>
      </trkpt>
      <trkpt lat="48.462210" lon="9.841563">
        <ele>647.456277</ele>
        <time>2025-11-11T20:14:41.597Z</time>
      </trkpt>
      <trkpt lat="48.462526" lon="9.841629">
        <ele>647.101616</ele>
        <time>2025-11-11T20:14:45.477Z</time>
      </trkpt>
      <trkpt lat="48.462691" lon="9.841645">
        <ele>646.917801</ele>
        <time>2025-11-11T20:14:47.493Z</time>
      </trkpt>
      <trkpt lat="48.462740" lon="9.841616">
        <ele>646.859281</ele>
        <time>2025-11-11T20:14:48.117Z</time>
      </trkpt>
      <trkpt lat="48.463722" lon="9.841852">
        <ele>645.669827</ele>
        <time>2025-11-11T20:15:00.008Z</time>
      </trkpt>
      <trkpt lat="48.464089" lon="9.841941">
        <ele>645.209764</ele>
        <time>2025-11-11T20:15:04.398Z</time>
      </trkpt>
      <trkpt lat="48.464217" lon="9.841900">
        <ele>645.047807</ele>
        <time>2025-11-11T20:15:05.932Z</time>
      </trkpt>
      <trkpt lat="48.464397" lon="9.841718">
        <ele>644.779587</ele>
        <time>2025-11-11T20:15:09.537Z</time>
      </trkpt>
      <trkpt lat="48.465301" lon="9.840882">
        <ele>643.835870</ele>
        <time>2025-11-11T20:15:27.410Z</time>
      </trkpt>
      <trkpt lat="48.465533" lon="9.840757">
        <ele>643.671218</ele>
        <time>2025-11-11T20:15:31.734Z</time>
      </trkpt>
      <trkpt lat="48.466113" lon="9.840521">
        <ele>643.269723</ele>
        <time>2025-11-11T20:15:42.922Z</time>
      </trkpt>
      <trkpt lat="48.466509" lon="9.840297">
        <ele>643.160919</ele>
        <time>2025-11-11T20:15:51.574Z</time>
      </trkpt>
      <trkpt lat="48.466822" lon="9.840027">
        <ele>643.446437</ele>
        <time>2025-11-11T20:15:59.397Z</time>
      </trkpt>
      <trkpt lat="48.467099" lon="9.839728">
        <ele>643.716162</ele>
        <time>2025-11-11T20:16:07.038Z</time>
      </trkpt>
      <trkpt lat="48.467410" lon="9.839267">
        <ele>644.061450</ele>
        <time>2025-11-11T20:16:17.282Z</time>
      </trkpt>
      <trkpt lat="48.467692" lon="9.838672">
        <ele>644.445436</ele>
        <time>2025-11-11T20:16:29.537Z</time>
      </trkpt>
      <trkpt lat="48.467972" lon="9.837719">
        <ele>645.654877</ele>
        <time>2025-11-11T20:16:48.642Z</time>
      </trkpt>
      <trkpt lat="48.468185" lon="9.837237">
        <ele>646.360259</ele>
        <time>2025-11-11T20:16:59.614Z</time>
      </trkpt>
      <trkpt lat="48.468274" lon="9.837034">
        <ele>646.656619</ele>
        <time>2025-11-11T20:17:04.322Z</time>
      </trkpt>
      <trkpt lat="48.468323" lon="9.836923">
        <ele>646.819009</ele>
        <time>2025-11-11T20:17:06.897Z</time>
      </trkpt>
      <trkpt lat="48.468348" lon="9.836866">
        <ele>646.902233</ele>
        <time>2025-11-11T20:17:07.974Z</time>
      </trkpt>
      <trkpt lat="48.469183" lon="9.834822">
        <ele>648.982791</ele>
        <time>2025-11-11T20:17:42.554Z</time>
      </trkpt>
      <trkpt lat="48.469398" lon="9.834342">
        <ele>649.395462</ele>
        <time>2025-11-11T20:17:48.961Z</time>
      </trkpt>
      <trkpt lat="48.469674" lon="9.833845">
        <ele>649.613113</ele>
        <time>2025-11-11T20:17:55.290Z</time>
      </trkpt>
      <trkpt lat="48.470103" lon="9.833127">
        <ele>649.012246</ele>
        <time>2025-11-11T20:18:03.597Z</time>
      </trkpt>
      <trkpt lat="48.470486" lon="9.832562">
        <ele>648.509915</ele>
        <time>2025-11-11T20:18:09.917Z</time>
      </trkpt>
      <trkpt lat="48.470654" lon="9.832377">
        <ele>648.314875</ele>
        <time>2025-11-11T20:18:12.314Z</time>
      </trkpt>
      <trkpt lat="48.470906" lon="9.832114">
        <ele>648.024232</ele>
        <time>2025-11-11T20:18:15.832Z</time>
      </trkpt>
      <trkpt lat="48.470985" lon="9.832036">
        <ele>647.912977</ele>
        <time>2025-11-11T20:18:16.900Z</time>
      </trkpt>
      <trkpt lat="48.471629" lon="9.831357">
        <ele>646.987150</ele>
        <time>2025-11-11T20:18:25.899Z</time>
      </trkpt>
      <trkpt lat="48.472192" lon="9.830708">
        <ele>646.152224</ele>
        <time>2025-11-11T20:18:34.421Z</time>
      </trkpt>
      <trkpt lat="48.472555" lon="9.830241">
        <ele>645.885348</ele>
        <time>2025-11-11T20:18:40.669Z</time>
      </trkpt>
      <trkpt lat="48.473466" lon="9.829062">
        <ele>645.732547</ele>
        <time>2025-11-11T20:18:58.812Z</time>
      </trkpt>
      <trkpt lat="48.473717" lon="9.828602">
        <ele>645.645460</ele>
        <time>2025-11-11T20:19:04.792Z</time>
      </trkpt>
      <trkpt lat="48.473825" lon="9.828305">
        <ele>645.510433</ele>
        <time>2025-11-11T20:19:08.133Z</time>
      </trkpt>
      <trkpt lat="48.474085" lon="9.827413">
        <ele>645.122025</ele>
        <time>2025-11-11T20:19:17.615Z</time>
      </trkpt>
      <trkpt lat="48.474398" lon="9.826571">
        <ele>644.737236</ele>
        <time>2025-11-11T20:19:25.799Z</time>
      </trkpt>
      <trkpt lat="48.474580" lon="9.826231">
        <ele>644.396232</ele>
        <time>2025-11-11T20:19:29.093Z</time>
      </trkpt>
      <trkpt lat="48.474845" lon="9.825814">
        <ele>643.360102</ele>
        <time>2025-11-11T20:19:33.207Z</time>
      </trkpt>
      <trkpt lat="48.475534" lon="9.824873">
        <ele>640.845314</ele>
        <time>2025-11-11T20:19:42.438Z</time>
      </trkpt>
      <trkpt lat="48.476126" lon="9.824321">
        <ele>639.806697</ele>
        <time>2025-11-11T20:19:49.639Z</time>
      </trkpt>
      <trkpt lat="48.476292" lon="9.824072">
        <ele>639.857330</ele>
        <time>2025-11-11T20:19:52.602Z</time>
      </trkpt>
      <trkpt lat="48.476333" lon="9.823991">
        <ele>639.871942</ele>
        <time>2025-11-11T20:19:53.601Z</time>
      </trkpt>
      <trkpt lat="48.476538" lon="9.823267">
        <ele>639.984823</ele>
        <time>2025-11-11T20:20:03.329Z</time>
      </trkpt>
      <trkpt lat="48.476810" lon="9.822674">
        <ele>640.088216</ele>
        <time>2025-11-11T20:20:14.318Z</time>
      </trkpt>
      <trkpt lat="48.476874" lon="9.822479">
        <ele>640.119414</ele>
        <time>2025-11-11T20:20:17.865Z</time>
      </trkpt>
      <trkpt lat="48.477037" lon="9.822012">
        <ele>639.884459</ele>
        <time>2025-11-11T20:20:25.640Z</time>
      </trkpt>
      <trkpt lat="48.477348" lon="9.821290">
        <ele>639.388159</ele>
        <time>2025-11-11T20:20:34.606Z</time>
      </trkpt>
      <trkpt lat="48.477417" lon="9.820957">
        <ele>639.187060</ele>
        <time>2025-11-11T20:20:37.237Z</time>
      </trkpt>
      <trkpt lat="48.477446" lon="9.820517">
        <ele>638.932194</ele>
        <time>2025-11-11T20:20:40.337Z</time>
      </trkpt>
      <trkpt lat="48.477502" lon="9.820116">
        <ele>638.695985</ele>
        <time>2025-11-11T20:20:43.123Z</time>
      </trkpt>
      <trkpt lat="48.477583" lon="9.819625">
        <ele>638.159398</ele>
        <time>2025-11-11T20:20:46.531Z</time>
      </trkpt>
      <trkpt lat="48.477673" lon="9.819299">
        <ele>637.653609</ele>
        <time>2025-11-11T20:20:48.907Z</time>
      </trkpt>
      <trkpt lat="48.477796" lon="9.818776">
        <ele>636.858796</ele>
        <time>2025-11-11T20:20:52.693Z</time>
      </trkpt>
      <trkpt lat="48.477900" lon="9.818100">
        <ele>635.864860</ele>
        <time>2025-11-11T20:20:57.626Z</time>
      </trkpt>
      <trkpt lat="48.477991" lon="9.817235">
        <ele>634.631456</ele>
        <time>2025-11-11T20:21:04.494Z</time>
      </trkpt>
      <trkpt lat="48.478227" lon="9.816016">
        <ele>633.337381</ele>
        <time>2025-11-11T20:21:16.357Z</time>
      </trkpt>
      <trkpt lat="48.478255" lon="9.815609">
        <ele>632.920414</ele>
        <time>2025-11-11T20:21:20.256Z</time>
      </trkpt>
      <trkpt lat="48.478255" lon="9.815136">
        <ele>632.438420</ele>
        <time>2025-11-11T20:21:23.967Z</time>
      </trkpt>
      <trkpt lat="48.478231" lon="9.814463">
        <ele>631.200838</ele>
        <time>2025-11-11T20:21:28.426Z</time>
      </trkpt>
      <trkpt lat="48.478206" lon="9.814277">
        <ele>630.368566</ele>
        <time>2025-11-11T20:21:29.579Z</time>
      </trkpt>
      <trkpt lat="48.478091" lon="9.814030">
        <ele>629.044917</ele>
        <time>2025-11-11T20:21:31.409Z</time>
      </trkpt>
      <trkpt lat="48.477693" lon="9.813623">
        <ele>625.864053</ele>
        <time>2025-11-11T20:21:35.727Z</time>
      </trkpt>
      <trkpt lat="48.477524" lon="9.813385">
        <ele>624.334585</ele>
        <time>2025-11-11T20:21:37.764Z</time>
      </trkpt>
      <trkpt lat="48.477444" lon="9.813159">
        <ele>623.211034</ele>
        <time>2025-11-11T20:21:39.252Z</time>
      </trkpt>
      <trkpt lat="48.477465" lon="9.812743">
        <ele>621.381421</ele>
        <time>2025-11-11T20:21:41.668Z</time>
      </trkpt>
      <trkpt lat="48.477778" lon="9.811783">
        <ele>618.026863</ele>
        <time>2025-11-11T20:21:48.033Z</time>
      </trkpt>
      <trkpt lat="48.477878" lon="9.811591">
        <ele>617.386033</ele>
        <time>2025-11-11T20:21:49.614Z</time>
      </trkpt>
      <trkpt lat="48.477979" lon="9.811457">
        <ele>616.853517</ele>
        <time>2025-11-11T20:21:50.976Z</time>
      </trkpt>
      <trkpt lat="48.478091" lon="9.811367">
        <ele>616.351112</ele>
        <time>2025-11-11T20:21:52.259Z</time>
      </trkpt>
      <trkpt lat="48.478225" lon="9.811287">
        <ele>615.780561</ele>
        <time>2025-11-11T20:21:53.737Z</time>
      </trkpt>
      <trkpt lat="48.478769" lon="9.811088">
        <ele>613.564407</ele>
        <time>2025-11-11T20:21:59.703Z</time>
      </trkpt>
      <trkpt lat="48.479045" lon="9.810903">
        <ele>613.162977</ele>
        <time>2025-11-11T20:22:03.063Z</time>
      </trkpt>
      <trkpt lat="48.479213" lon="9.810610">
        <ele>613.669786</ele>
        <time>2025-11-11T20:22:06.215Z</time>
      </trkpt>
      <trkpt lat="48.479292" lon="9.810328">
        <ele>614.070299</ele>
        <time>2025-11-11T20:22:09.259Z</time>
      </trkpt>
      <trkpt lat="48.479343" lon="9.810082">
        <ele>614.407496</ele>
        <time>2025-11-11T20:22:12.336Z</time>
      </trkpt>
      <trkpt lat="48.479342" lon="9.809727">
        <ele>614.871922</ele>
        <time>2025-11-11T20:22:17.217Z</time>
      </trkpt>
      <trkpt lat="48.479325" lon="9.809411">
        <ele>615.286682</ele>
        <time>2025-11-11T20:22:22.363Z</time>
      </trkpt>
      <trkpt lat="48.479238" lon="9.808897">
        <ele>615.980687</ele>
        <time>2025-11-11T20:22:32.973Z</time>
      </trkpt>
      <trkpt lat="48.479168" lon="9.808647">
        <ele>616.335725</ele>
        <time>2025-11-11T20:22:39.454Z</time>
      </trkpt>
      <trkpt lat="48.479042" lon="9.808340">
        <ele>617.889517</ele>
        <time>2025-11-11T20:22:49.079Z</time>
      </trkpt>
      <trkpt lat="48.478896" lon="9.808209">
        <ele>619.232726</ele>
        <time>2025-11-11T20:22:56.790Z</time>
      </trkpt>
      <trkpt lat="48.478755" lon="9.807977">
        <ele>620.882510</ele>
        <time>2025-11-11T20:23:06.979Z</time>
      </trkpt>
      <trkpt lat="48.478440" lon="9.806884">
        <ele>627.129611</ele>
        <time>2025-11-11T20:23:46.970Z</time>
      </trkpt>
      <trkpt lat="48.478374" lon="9.806562">
        <ele>628.896259</ele>
        <time>2025-11-11T20:23:58.147Z</time>
      </trkpt>
      <trkpt lat="48.478332" lon="9.806204">
        <ele>630.792889</ele>
        <time>2025-11-11T20:24:09.950Z</time>
      </trkpt>
      <trkpt lat="48.478336" lon="9.804586">
        <ele>638.690655</ele>
        <time>2025-11-11T20:24:59.745Z</time>
      </trkpt>
      <trkpt lat="48.478433" lon="9.802900">
        <ele>645.537660</ele>
        <time>2025-11-11T20:25:45.909Z</time>
      </trkpt>
      <trkpt lat="48.478416" lon="9.802586">
        <ele>646.359638</ele>
        <time>2025-11-11T20:25:53.044Z</time>
      </trkpt>
      <trkpt lat="48.478202" lon="9.801172">
        <ele>650.143806</ele>
        <time>2025-11-11T20:26:19.492Z</time>
      </trkpt>
      <trkpt lat="48.478179" lon="9.801038">
        <ele>650.504953</ele>
        <time>2025-11-11T20:26:21.468Z</time>
      </trkpt>
      <trkpt lat="48.477618" lon="9.796953">
        <ele>655.533103</ele>
        <time>2025-11-11T20:27:19.698Z</time>
      </trkpt>
      <trkpt lat="48.477067" lon="9.792893">
        <ele>661.407795</ele>
        <time>2025-11-11T20:28:23.344Z</time>
      </trkpt>
      <trkpt lat="48.477083" lon="9.792609">
        <ele>662.215110</ele>
        <time>2025-11-11T20:28:28.845Z</time>
      </trkpt>
      <trkpt lat="48.477212" lon="9.792387">
        <ele>663.066873</ele>
        <time>2025-11-11T20:28:34.582Z</time>
      </trkpt>
      <trkpt lat="48.477601" lon="9.792627">
        <ele>664.896066</ele>
        <time>2025-11-11T20:28:47.868Z</time>
      </trkpt>
      <trkpt lat="48.477840" lon="9.792701">
        <ele>665.957960</ele>
        <time>2025-11-11T20:28:56.268Z</time>
      </trkpt>
      <trkpt lat="48.478155" lon="9.792697">
        <ele>667.328995</ele>
        <time>2025-11-11T20:29:07.234Z</time>
      </trkpt>
      <trkpt lat="48.478165" lon="9.792831">
        <ele>667.718053</ele>
        <time>2025-11-11T20:29:18.944Z</time>
      </trkpt>
      <trkpt lat="48.478155" lon="9.792697">
        <ele>668.107110</ele>
        <time>2025-11-11T20:29:30.715Z</time>
      </trkpt>
      <trkpt lat="48.478316" lon="9.792669">
        <ele>668.812478</ele>
        <time>2025-11-11T20:29:36.386Z</time>
      </trkpt>
      <trkpt lat="48.478380" lon="9.792653">
        <ele>669.094827</ele>
        <time>2025-11-11T20:29:38.669Z</time>
      </trkpt>
      <trkpt lat="48.478656" lon="9.792536">
        <ele>670.443519</ele>
        <time>2025-11-11T20:29:48.760Z</time>
      </trkpt>
      <trkpt lat="48.478686" lon="9.792513">
        <ele>670.603550</ele>
        <time>2025-11-11T20:29:50.001Z</time>
      </trkpt>
      <trkpt lat="48.478841" lon="9.792393">
        <ele>671.432048</ele>
        <time>2025-11-11T20:29:56.607Z</time>
      </trkpt>
      <trkpt lat="48.479053" lon="9.792228">
        <ele>672.566474</ele>
        <time>2025-11-11T20:30:05.452Z</time>
      </trkpt>
      <trkpt lat="48.479158" lon="9.792196">
        <ele>673.075884</ele>
        <time>2025-11-11T20:30:09.411Z</time>
      </trkpt>
      <trkpt lat="48.479239" lon="9.792224">
        <ele>673.471059</ele>
        <time>2025-11-11T20:30:12.485Z</time>
      </trkpt>
      <trkpt lat="48.479457" lon="9.792326">
        <ele>674.556467</ele>
        <time>2025-11-11T20:30:20.537Z</time>
      </trkpt>
      <trkpt lat="48.479483" lon="9.792183">
        <ele>675.023899</ele>
        <time>2025-11-11T20:30:24.306Z</time>
      </trkpt>
      <trkpt lat="48.479502" lon="9.791653">
        <ele>676.697076</ele>
        <time>2025-11-11T20:30:37.731Z</time>
      </trkpt>
      <trkpt lat="48.479497" lon="9.791144">
        <ele>677.966522</ele>
        <time>2025-11-11T20:30:50.008Z</time>
      </trkpt>
      <trkpt lat="48.479436" lon="9.790527">
        <ele>678.602246</ele>
        <time>2025-11-11T20:31:03.139Z</time>
      </trkpt>
      <trkpt lat="48.479374" lon="9.789917">
        <ele>679.231146</ele>
        <time>2025-11-11T20:31:13.625Z</time>
      </trkpt>
      <trkpt lat="48.479327" lon="9.789694">
        <ele>679.469610</ele>
        <time>2025-11-11T20:31:16.221Z</time>
      </trkpt>
      <trkpt lat="48.479273" lon="9.789437">
        <ele>679.744355</ele>
        <time>2025-11-11T20:31:19.228Z</time>
      </trkpt>
      <trkpt lat="48.479052" lon="9.788377">
        <ele>680.577442</ele>
        <time>2025-11-11T20:31:31.063Z</time>
      </trkpt>
      <trkpt lat="48.478913" lon="9.787714">
        <ele>680.591327</ele>
        <time>2025-11-11T20:31:37.669Z</time>
      </trkpt>
      <trkpt lat="48.478764" lon="9.787159">
        <ele>680.603284</ele>
        <time>2025-11-11T20:31:43.499Z</time>
      </trkpt>
      <trkpt lat="48.478789" lon="9.787077">
        <ele>680.605087</ele>
        <time>2025-11-11T20:31:44.375Z</time>
      </trkpt>
      <trkpt lat="48.478840" lon="9.786532">
        <ele>680.616078</ele>
        <time>2025-11-11T20:31:49.768Z</time>
      </trkpt>
      <trkpt lat="48.478714" lon="9.785157">
        <ele>681.037094</ele>
        <time>2025-11-11T20:32:03.568Z</time>
      </trkpt>
      <trkpt lat="48.478382" lon="9.781885">
        <ele>682.389538</ele>
        <time>2025-11-11T20:32:45.112Z</time>
      </trkpt>
      <trkpt lat="48.478210" lon="9.780333">
        <ele>682.449290</ele>
        <time>2025-11-11T20:33:00.887Z</time>
      </trkpt>
      <trkpt lat="48.478040" lon="9.779358">
        <ele>681.430947</ele>
        <time>2025-11-11T20:33:08.841Z</time>
      </trkpt>
      <trkpt lat="48.477804" lon="9.778292">
        <ele>680.295716</ele>
        <time>2025-11-11T20:33:16.931Z</time>
      </trkpt>
      <trkpt lat="48.477692" lon="9.777035">
        <ele>678.144797</ele>
        <time>2025-11-11T20:33:25.656Z</time>
      </trkpt>
      <trkpt lat="48.477745" lon="9.775396">
        <ele>675.132183</ele>
        <time>2025-11-11T20:33:36.733Z</time>
      </trkpt>
      <trkpt lat="48.478218" lon="9.775092">
        <ele>674.580335</ele>
        <time>2025-11-11T20:33:42.250Z</time>
      </trkpt>
      <trkpt lat="48.477776" lon="9.773380">
        <ele>673.324985</ele>
        <time>2025-11-11T20:33:58.062Z</time>
      </trkpt>
      <trkpt lat="48.477753" lon="9.773293">
        <ele>673.260987</ele>
        <time>2025-11-11T20:33:59.152Z</time>
      </trkpt>
      <trkpt lat="48.477580" lon="9.772621">
        <ele>673.659885</ele>
        <time>2025-11-11T20:34:07.600Z</time>
      </trkpt>
      <trkpt lat="48.477106" lon="9.770850">
        <ele>674.804261</ele>
        <time>2025-11-11T20:34:31.330Z</time>
      </trkpt>
      <trkpt lat="48.476810" lon="9.767475">
        <ele>678.877106</ele>
        <time>2025-11-11T20:35:20.994Z</time>
      </trkpt>
      <trkpt lat="48.476776" lon="9.766876">
        <ele>679.812509</ele>
        <time>2025-11-11T20:35:31.010Z</time>
      </trkpt>
      <trkpt lat="48.476722" lon="9.766348">
        <ele>680.643752</ele>
        <time>2025-11-11T20:35:39.970Z</time>
      </trkpt>
      <trkpt lat="48.476665" lon="9.766117">
        <ele>681.027260</ele>
        <time>2025-11-11T20:35:44.183Z</time>
      </trkpt>
      <trkpt lat="48.475909" lon="9.764109">
        <ele>684.883520</ele>
        <time>2025-11-11T20:36:21.572Z</time>
      </trkpt>
      <trkpt lat="48.475701" lon="9.763654">
        <ele>685.836689</ele>
        <time>2025-11-11T20:36:30.838Z</time>
      </trkpt>
      <trkpt lat="48.475272" lon="9.763576">
        <ele>686.976544</ele>
        <time>2025-11-11T20:36:42.417Z</time>
      </trkpt>
      <trkpt lat="48.474713" lon="9.763470">
        <ele>688.698277</ele>
        <time>2025-11-11T20:37:00.733Z</time>
      </trkpt>
      <trkpt lat="48.474227" lon="9.763199">
        <ele>690.281713</ele>
        <time>2025-11-11T20:37:17.798Z</time>
      </trkpt>
      <trkpt lat="48.473380" lon="9.762490">
        <ele>693.063657</ele>
        <time>2025-11-11T20:37:49.478Z</time>
      </trkpt>
      <trkpt lat="48.472922" lon="9.762227">
        <ele>694.255990</ele>
        <time>2025-11-11T20:38:04.651Z</time>
      </trkpt>
      <trkpt lat="48.472557" lon="9.762090">
        <ele>695.171117</ele>
        <time>2025-11-11T20:38:15.976Z</time>
      </trkpt>
      <trkpt lat="48.472105" lon="9.761981">
        <ele>696.284799</ele>
        <time>2025-11-11T20:38:29.306Z</time>
      </trkpt>
      <trkpt lat="48.471182" lon="9.761834">
        <ele>697.607399</ele>
        <time>2025-11-11T20:38:53.219Z</time>
      </trkpt>
      <trkpt lat="48.470731" lon="9.761865">
        <ele>698.134800</ele>
        <time>2025-11-11T20:39:04.347Z</time>
      </trkpt>
      <trkpt lat="48.469573" lon="9.762156">
        <ele>698.849832</ele>
        <time>2025-11-11T20:39:32.007Z</time>
      </trkpt>
      <trkpt lat="48.469314" lon="9.762223">
        <ele>698.852315</ele>
        <time>2025-11-11T20:39:37.517Z</time>
      </trkpt>
      <trkpt lat="48.468606" lon="9.762240">
        <ele>698.859005</ele>
        <time>2025-11-11T20:39:50.570Z</time>
      </trkpt>
      <trkpt lat="48.467508" lon="9.762188">
        <ele>699.269929</ele>
        <time>2025-11-11T20:40:10.759Z</time>
      </trkpt>
      <trkpt lat="48.467631" lon="9.759270">
        <ele>701.067255</ele>
        <time>2025-11-11T20:40:50.401Z</time>
      </trkpt>
      <trkpt lat="48.467716" lon="9.757207">
        <ele>702.951723</ele>
        <time>2025-11-11T20:41:17.977Z</time>
      </trkpt>
      <trkpt lat="48.467734" lon="9.756588">
        <ele>703.526333</ele>
        <time>2025-11-11T20:41:26.162Z</time>
      </trkpt>
      <trkpt lat="48.467689" lon="9.756332">
        <ele>703.771948</ele>
        <time>2025-11-11T20:41:29.801Z</time>
      </trkpt>
      <trkpt lat="48.469164" lon="9.755159">
        <ele>704.794530</ele>
        <time>2025-11-11T20:42:04.359Z</time>
      </trkpt>
      <trkpt lat="48.469661" lon="9.754763">
        <ele>704.847742</ele>
        <time>2025-11-11T20:42:11.329Z</time>
      </trkpt>
      <trkpt lat="48.470743" lon="9.754418">
        <ele>703.668018</ele>
        <time>2025-11-11T20:42:22.928Z</time>
      </trkpt>
      <trkpt lat="48.471658" lon="9.754026">
        <ele>702.487228</ele>
        <time>2025-11-11T20:42:34.506Z</time>
      </trkpt>
      <trkpt lat="48.471989" lon="9.753854">
        <ele>703.703907</ele>
        <time>2025-11-11T20:42:41.356Z</time>
      </trkpt>
      <trkpt lat="48.472339" lon="9.753527">
        <ele>705.134706</ele>
        <time>2025-11-11T20:42:51.414Z</time>
      </trkpt>
      <trkpt lat="48.472618" lon="9.753109">
        <ele>706.501344</ele>
        <time>2025-11-11T20:43:03.753Z</time>
      </trkpt>
      <trkpt lat="48.472762" lon="9.752795">
        <ele>707.381034</ele>
        <time>2025-11-11T20:43:13.025Z</time>
      </trkpt>
      <trkpt lat="48.472937" lon="9.752251">
        <ele>708.838812</ele>
        <time>2025-11-11T20:43:29.242Z</time>
      </trkpt>
      <trkpt lat="48.473272" lon="9.750623">
        <ele>714.757650</ele>
        <time>2025-11-11T20:44:15.193Z</time>
      </trkpt>
      <trkpt lat="48.473310" lon="9.750419">
        <ele>715.493413</ele>
        <time>2025-11-11T20:44:20.455Z</time>
      </trkpt>
      <trkpt lat="48.473660" lon="9.745721">
        <ele>724.776209</ele>
        <time>2025-11-11T20:45:42.913Z</time>
      </trkpt>
      <trkpt lat="48.473735" lon="9.744828">
        <ele>725.767121</ele>
        <time>2025-11-11T20:45:54.401Z</time>
      </trkpt>
      <trkpt lat="48.473755" lon="9.744095">
        <ele>726.259030</ele>
        <time>2025-11-11T20:46:02.101Z</time>
      </trkpt>
      <trkpt lat="48.473738" lon="9.743447">
        <ele>725.918157</ele>
        <time>2025-11-11T20:46:07.936Z</time>
      </trkpt>
      <trkpt lat="48.473556" lon="9.740503">
        <ele>723.725113</ele>
        <time>2025-11-11T20:46:31.241Z</time>
      </trkpt>
      <trkpt lat="48.473539" lon="9.740310">
        <ele>723.508274</ele>
        <time>2025-11-11T20:46:32.684Z</time>
      </trkpt>
      <trkpt lat="48.473403" lon="9.737974">
        <ele>721.168866</ele>
        <time>2025-11-11T20:46:49.712Z</time>
      </trkpt>
      <trkpt lat="48.473411" lon="9.737537">
        <ele>720.812355</ele>
        <time>2025-11-11T20:46:53.023Z</time>
      </trkpt>
      <trkpt lat="48.473454" lon="9.737127">
        <ele>720.473841</ele>
        <time>2025-11-11T20:46:56.246Z</time>
      </trkpt>
      <trkpt lat="48.473971" lon="9.734188">
        <ele>719.940403</ele>
        <time>2025-11-11T20:47:24.520Z</time>
      </trkpt>
      <trkpt lat="48.474951" lon="9.728977">
        <ele>722.670364</ele>
        <time>2025-11-11T20:48:35.980Z</time>
      </trkpt>
      <trkpt lat="48.475167" lon="9.728304">
        <ele>722.567279</ele>
        <time>2025-11-11T20:48:42.015Z</time>
      </trkpt>
      <trkpt lat="48.476602" lon="9.724242">
        <ele>712.557113</ele>
        <time>2025-11-11T20:49:12.133Z</time>
      </trkpt>
      <trkpt lat="48.476763" lon="9.723924">
        <ele>711.677121</ele>
        <time>2025-11-11T20:49:14.863Z</time>
      </trkpt>
      <trkpt lat="48.476890" lon="9.723751">
        <ele>711.109433</ele>
        <time>2025-11-11T20:49:16.669Z</time>
      </trkpt>
      <trkpt lat="48.476945" lon="9.722739">
        <ele>710.525461</ele>
        <time>2025-11-11T20:49:24.204Z</time>
      </trkpt>
      <trkpt lat="48.477111" lon="9.722540">
        <ele>710.366842</ele>
        <time>2025-11-11T20:49:26.871Z</time>
      </trkpt>
      <trkpt lat="48.477391" lon="9.722100">
        <ele>710.064374</ele>
        <time>2025-11-11T20:49:33.454Z</time>
      </trkpt>
      <trkpt lat="48.477553" lon="9.721754">
        <ele>709.854306</ele>
        <time>2025-11-11T20:49:38.003Z</time>
      </trkpt>
      <trkpt lat="48.477874" lon="9.720829">
        <ele>709.785411</ele>
        <time>2025-11-11T20:49:48.374Z</time>
      </trkpt>
      <trkpt lat="48.478245" lon="9.719277">
        <ele>710.102370</ele>
        <time>2025-11-11T20:50:05.084Z</time>
      </trkpt>
      <trkpt lat="48.478417" lon="9.718788">
        <ele>710.442670</ele>
        <time>2025-11-11T20:50:11.455Z</time>
      </trkpt>
      <trkpt lat="48.478684" lon="9.718251">
        <ele>711.673369</ele>
        <time>2025-11-11T20:50:20.450Z</time>
      </trkpt>
      <trkpt lat="48.478784" lon="9.717957">
        <ele>712.279201</ele>
        <time>2025-11-11T20:50:25.621Z</time>
      </trkpt>
      <trkpt lat="48.478879" lon="9.717166">
        <ele>713.753022</ele>
        <time>2025-11-11T20:50:40.132Z</time>
      </trkpt>
      <trkpt lat="48.479373" lon="9.714923">
        <ele>719.527832</ele>
        <time>2025-11-11T20:51:31.942Z</time>
      </trkpt>
      <trkpt lat="48.479503" lon="9.712979">
        <ele>723.961126</ele>
        <time>2025-11-11T20:52:10.131Z</time>
      </trkpt>
      <trkpt lat="48.479625" lon="9.710805">
        <ele>727.295081</ele>
        <time>2025-11-11T20:52:43.312Z</time>
      </trkpt>
      <trkpt lat="48.480119" lon="9.707477">
        <ele>731.294787</ele>
        <time>2025-11-11T20:53:25.678Z</time>
      </trkpt>
      <trkpt lat="48.480286" lon="9.706349">
        <ele>733.713671</ele>
        <time>2025-11-11T20:53:48.218Z</time>
      </trkpt>
      <trkpt lat="48.480437" lon="9.705334">
        <ele>736.856654</ele>
        <time>2025-11-11T20:54:13.678Z</time>
      </trkpt>
      <trkpt lat="48.480623" lon="9.703515">
        <ele>744.358561</ele>
        <time>2025-11-11T20:55:04.366Z</time>
      </trkpt>
      <trkpt lat="48.481066" lon="9.702060">
        <ele>748.520362</ele>
        <time>2025-11-11T20:55:45.328Z</time>
      </trkpt>
      <trkpt lat="48.481211" lon="9.701639">
        <ele>749.531131</ele>
        <time>2025-11-11T20:55:54.279Z</time>
      </trkpt>
      <trkpt lat="48.482203" lon="9.700079">
        <ele>751.905104</ele>
        <time>2025-11-11T20:56:14.651Z</time>
      </trkpt>
      <trkpt lat="48.482555" lon="9.699404">
        <ele>752.050817</ele>
        <time>2025-11-11T20:56:24.011Z</time>
      </trkpt>
      <trkpt lat="48.483088" lon="9.698258">
        <ele>752.098063</ele>
        <time>2025-11-11T20:56:40.269Z</time>
      </trkpt>
      <trkpt lat="48.483707" lon="9.696830">
        <ele>751.912510</ele>
        <time>2025-11-11T20:56:56.558Z</time>
      </trkpt>
      <trkpt lat="48.483963" lon="9.695989">
        <ele>751.862345</ele>
        <time>2025-11-11T20:57:03.553Z</time>
      </trkpt>
      <trkpt lat="48.484084" lon="9.695739">
        <ele>751.854655</ele>
        <time>2025-11-11T20:57:05.921Z</time>
      </trkpt>
      <trkpt lat="48.484358" lon="9.695336">
        <ele>751.840313</ele>
        <time>2025-11-11T20:57:10.709Z</time>
      </trkpt>
      <trkpt lat="48.484923" lon="9.694790">
        <ele>751.815167</ele>
        <time>2025-11-11T20:57:22.949Z</time>
      </trkpt>
      <trkpt lat="48.485039" lon="9.694590">
        <ele>751.852056</ele>
        <time>2025-11-11T20:57:26.882Z</time>
      </trkpt>
      <trkpt lat="48.485165" lon="9.694172">
        <ele>752.218257</ele>
        <time>2025-11-11T20:57:33.699Z</time>
      </trkpt>
      <trkpt lat="48.485286" lon="9.693913">
        <ele>752.470956</ele>
        <time>2025-11-11T20:57:38.505Z</time>
      </trkpt>
      <trkpt lat="48.485503" lon="9.693667">
        <ele>752.797535</ele>
        <time>2025-11-11T20:57:44.951Z</time>
      </trkpt>
      <trkpt lat="48.485777" lon="9.693432">
        <ele>753.176750</ele>
        <time>2025-11-11T20:57:52.681Z</time>
      </trkpt>
      <trkpt lat="48.486636" lon="9.692946">
        <ele>753.455713</ele>
        <time>2025-11-11T20:58:08.172Z</time>
      </trkpt>
      <trkpt lat="48.486835" lon="9.692830">
        <ele>753.021833</ele>
        <time>2025-11-11T20:58:10.469Z</time>
      </trkpt>
      <trkpt lat="48.487137" lon="9.692684">
        <ele>752.376868</ele>
        <time>2025-11-11T20:58:13.728Z</time>
      </trkpt>
      <trkpt lat="48.487504" lon="9.692507">
        <ele>751.593261</ele>
        <time>2025-11-11T20:58:17.617Z</time>
      </trkpt>
      <trkpt lat="48.488123" lon="9.692207">
        <ele>750.326155</ele>
        <time>2025-11-11T20:58:24.263Z</time>
      </trkpt>
      <trkpt lat="48.488194" lon="9.691821">
        <ele>750.449467</ele>
        <time>2025-11-11T20:58:27.099Z</time>
      </trkpt>
      <trkpt lat="48.488218" lon="9.691696">
        <ele>750.489528</ele>
        <time>2025-11-11T20:58:28.088Z</time>
      </trkpt>
      <trkpt lat="48.488903" lon="9.690593">
        <ele>750.954822</ele>
        <time>2025-11-11T20:58:45.032Z</time>
      </trkpt>
      <trkpt lat="48.489169" lon="9.690149">
        <ele>751.139057</ele>
        <time>2025-11-11T20:58:55.476Z</time>
      </trkpt>
      <trkpt lat="48.489255" lon="9.689978">
        <ele>751.490299</ele>
        <time>2025-11-11T20:58:59.442Z</time>
      </trkpt>
      <trkpt lat="48.489386" lon="9.689628">
        <ele>752.269214</ele>
        <time>2025-11-11T20:59:07.204Z</time>
      </trkpt>
      <trkpt lat="48.489486" lon="9.689345">
        <ele>752.890689</ele>
        <time>2025-11-11T20:59:13.623Z</time>
      </trkpt>
      <trkpt lat="48.489610" lon="9.689288">
        <ele>753.269699</ele>
        <time>2025-11-11T20:59:17.598Z</time>
      </trkpt>
      <trkpt lat="48.489535" lon="9.688905">
        <ele>754.043595</ele>
        <time>2025-11-11T20:59:25.555Z</time>
      </trkpt>
      <trkpt lat="48.489444" lon="9.688317">
        <ele>755.213677</ele>
        <time>2025-11-11T20:59:36.541Z</time>
      </trkpt>
      <trkpt lat="48.489415" lon="9.687563">
        <ele>756.458129</ele>
        <time>2025-11-11T20:59:48.599Z</time>
      </trkpt>
      <trkpt lat="48.489416" lon="9.687230">
        <ele>756.573855</ele>
        <time>2025-11-11T20:59:52.997Z</time>
      </trkpt>
      <trkpt lat="48.489417" lon="9.687074">
        <ele>756.628070</ele>
        <time>2025-11-11T20:59:54.852Z</time>
      </trkpt>
      <trkpt lat="48.489430" lon="9.686563">
        <ele>756.805784</ele>
        <time>2025-11-11T21:00:00.479Z</time>
      </trkpt>
      <trkpt lat="48.489468" lon="9.686075">
        <ele>756.976540</ele>
        <time>2025-11-11T21:00:05.451Z</time>
      </trkpt>
      <trkpt lat="48.489480" lon="9.685915">
        <ele>757.032498</ele>
        <time>2025-11-11T21:00:06.928Z</time>
      </trkpt>
      <trkpt lat="48.489484" lon="9.685797">
        <ele>757.073559</ele>
        <time>2025-11-11T21:00:08.024Z</time>
      </trkpt>
      <trkpt lat="48.489556" lon="9.685734">
        <ele>757.117202</ele>
        <time>2025-11-11T21:00:09.125Z</time>
      </trkpt>
      <trkpt lat="48.489663" lon="9.685730">
        <ele>757.173325</ele>
        <time>2025-11-11T21:00:10.616Z</time>
      </trkpt>
      <trkpt lat="48.489814" lon="9.685677">
        <ele>757.254616</ele>
        <time>2025-11-11T21:00:12.790Z</time>
      </trkpt>
      <trkpt lat="48.489860" lon="9.685673">
        <ele>757.278776</ele>
        <time>2025-11-11T21:00:13.432Z</time>
      </trkpt>
      <trkpt lat="48.490218" lon="9.685675">
        <ele>757.230654</ele>
        <time>2025-11-11T21:00:18.598Z</time>
      </trkpt>
      <trkpt lat="48.490571" lon="9.685662">
        <ele>757.029795</ele>
        <time>2025-11-11T21:00:23.711Z</time>
      </trkpt>
      <trkpt lat="48.490856" lon="9.685651">
        <ele>756.867624</ele>
        <time>2025-11-11T21:00:27.985Z</time>
      </trkpt>
      <trkpt lat="48.490984" lon="9.685671">
        <ele>756.794424</ele>
        <time>2025-11-11T21:00:29.942Z</time>
      </trkpt>
      <trkpt lat="48.491299" lon="9.685753">
        <ele>756.612594</ele>
        <time>2025-11-11T21:00:34.455Z</time>
      </trkpt>
      <trkpt lat="48.491444" lon="9.685812">
        <ele>756.527167</ele>
        <time>2025-11-11T21:00:36.346Z</time>
      </trkpt>
      <trkpt lat="48.491687" lon="9.685974">
        <ele>756.376049</ele>
        <time>2025-11-11T21:00:39.453Z</time>
      </trkpt>
      <trkpt lat="48.491933" lon="9.686244">
        <ele>755.663568</ele>
        <time>2025-11-11T21:00:42.816Z</time>
      </trkpt>
      <trkpt lat="48.492162" lon="9.686370">
        <ele>754.937031</ele>
        <time>2025-11-11T21:00:45.414Z</time>
      </trkpt>
      <trkpt lat="48.492347" lon="9.686417">
        <ele>754.377846</ele>
        <time>2025-11-11T21:00:47.372Z</time>
      </trkpt>
      <trkpt lat="48.492717" lon="9.686469">
        <ele>753.270225</ele>
        <time>2025-11-11T21:00:51.153Z</time>
      </trkpt>
      <trkpt lat="48.492741" lon="9.686557">
        <ele>753.082251</ele>
        <time>2025-11-11T21:00:52.077Z</time>
      </trkpt>
      <trkpt lat="48.492780" lon="9.686588">
        <ele>752.950863</ele>
        <time>2025-11-11T21:00:52.704Z</time>
      </trkpt>
      <trkpt lat="48.492840" lon="9.686576">
        <ele>752.770458</ele>
        <time>2025-11-11T21:00:53.568Z</time>
      </trkpt>
      <trkpt lat="48.492876" lon="9.686506">
        <ele>752.595434</ele>
        <time>2025-11-11T21:00:54.409Z</time>
      </trkpt>
      <trkpt lat="48.493546" lon="9.686874">
        <ele>750.659025</ele>
        <time>2025-11-11T21:01:01.363Z</time>
      </trkpt>
      <trkpt lat="48.494045" lon="9.687148">
        <ele>749.675330</ele>
        <time>2025-11-11T21:01:06.690Z</time>
      </trkpt>
      <trkpt lat="48.494180" lon="9.687230">
        <ele>749.405743</ele>
        <time>2025-11-11T21:01:08.204Z</time>
      </trkpt>
      <trkpt lat="48.494299" lon="9.687301">
        <ele>749.168690</ele>
        <time>2025-11-11T21:01:09.577Z</time>
      </trkpt>
      <trkpt lat="48.494681" lon="9.687488">
        <ele>748.424731</ele>
        <time>2025-11-11T21:01:14.267Z</time>
      </trkpt>
      <trkpt lat="48.494903" lon="9.687604">
        <ele>747.989520</ele>
        <time>2025-11-11T21:01:17.401Z</time>
      </trkpt>
      <trkpt lat="48.495264" lon="9.687792">
        <ele>748.096285</ele>
        <time>2025-11-11T21:01:24.022Z</time>
      </trkpt>
      <trkpt lat="48.495704" lon="9.687981">
        <ele>749.192367</ele>
        <time>2025-11-11T21:01:34.752Z</time>
      </trkpt>
      <trkpt lat="48.496024" lon="9.688080">
        <ele>749.975007</ele>
        <time>2025-11-11T21:01:43.916Z</time>
      </trkpt>
      <trkpt lat="48.496192" lon="9.688126">
        <ele>750.384094</ele>
        <time>2025-11-11T21:01:48.989Z</time>
      </trkpt>
      <trkpt lat="48.496459" lon="9.688197">
        <ele>751.033660</ele>
        <time>2025-11-11T21:01:57.153Z</time>
      </trkpt>
      <trkpt lat="48.496977" lon="9.688439">
        <ele>751.977355</ele>
        <time>2025-11-11T21:02:11.578Z</time>
      </trkpt>
      <trkpt lat="48.497407" lon="9.688849">
        <ele>752.074669</ele>
        <time>2025-11-11T21:02:23.511Z</time>
      </trkpt>
      <trkpt lat="48.497861" lon="9.689363">
        <ele>752.183255</ele>
        <time>2025-11-11T21:02:32.160Z</time>
      </trkpt>
      <trkpt lat="48.498108" lon="9.689652">
        <ele>752.243051</ele>
        <time>2025-11-11T21:02:35.733Z</time>
      </trkpt>
      <trkpt lat="48.498258" lon="9.689827">
        <ele>752.279326</ele>
        <time>2025-11-11T21:02:37.756Z</time>
      </trkpt>
      <trkpt lat="48.498922" lon="9.690690">
        <ele>748.678612</ele>
        <time>2025-11-11T21:02:46.490Z</time>
      </trkpt>
      <trkpt lat="48.499769" lon="9.691699">
        <ele>743.862705</ele>
        <time>2025-11-11T21:03:00.829Z</time>
      </trkpt>
      <trkpt lat="48.499959" lon="9.692044">
        <ele>742.406741</ele>
        <time>2025-11-11T21:03:04.774Z</time>
      </trkpt>
      <trkpt lat="48.500098" lon="9.692463">
        <ele>740.885950</ele>
        <time>2025-11-11T21:03:08.916Z</time>
      </trkpt>
      <trkpt lat="48.500486" lon="9.693924">
        <ele>735.777574</ele>
        <time>2025-11-11T21:03:23.175Z</time>
      </trkpt>
      <trkpt lat="48.500763" lon="9.695072">
        <ele>732.436331</ele>
        <time>2025-11-11T21:03:34.600Z</time>
      </trkpt>
      <trkpt lat="48.500872" lon="9.695372">
        <ele>731.512207</ele>
        <time>2025-11-11T21:03:37.779Z</time>
      </trkpt>
      <trkpt lat="48.501022" lon="9.695604">
        <ele>730.636689</ele>
        <time>2025-11-11T21:03:40.793Z</time>
      </trkpt>
      <trkpt lat="48.501238" lon="9.695816">
        <ele>729.586389</ele>
        <time>2025-11-11T21:03:44.388Z</time>
      </trkpt>
      <trkpt lat="48.501508" lon="9.696014">
        <ele>728.362734</ele>
        <time>2025-11-11T21:03:48.553Z</time>
      </trkpt>
      <trkpt lat="48.501971" lon="9.696182">
        <ele>726.947294</ele>
        <time>2025-11-11T21:03:55.202Z</time>
      </trkpt>
      <trkpt lat="48.502302" lon="9.696199">
        <ele>725.996401</ele>
        <time>2025-11-11T21:03:59.921Z</time>
      </trkpt>
      <trkpt lat="48.502753" lon="9.696120">
        <ele>724.692831</ele>
        <time>2025-11-11T21:04:06.545Z</time>
      </trkpt>
      <trkpt lat="48.503296" lon="9.695977">
        <ele>723.110253</ele>
        <time>2025-11-11T21:04:15.145Z</time>
      </trkpt>
      <trkpt lat="48.503931" lon="9.695625">
        <ele>723.984641</ele>
        <time>2025-11-11T21:04:28.807Z</time>
      </trkpt>
      <trkpt lat="48.505140" lon="9.694779">
        <ele>725.939475</ele>
        <time>2025-11-11T21:05:10.617Z</time>
      </trkpt>
      <trkpt lat="48.505469" lon="9.694650">
        <ele>726.454267</ele>
        <time>2025-11-11T21:05:21.892Z</time>
      </trkpt>
      <trkpt lat="48.507570" lon="9.694429">
        <ele>727.332134</ele>
        <time>2025-11-11T21:06:11.717Z</time>
      </trkpt>
      <trkpt lat="48.508510" lon="9.694223">
        <ele>726.130776</ele>
        <time>2025-11-11T21:06:25.663Z</time>
      </trkpt>
      <trkpt lat="48.508688" lon="9.694225">
        <ele>725.814357</ele>
        <time>2025-11-11T21:06:28.193Z</time>
      </trkpt>
      <trkpt lat="48.509025" lon="9.694229">
        <ele>725.197036</ele>
        <time>2025-11-11T21:06:33.023Z</time>
      </trkpt>
      <trkpt lat="48.509815" lon="9.694406">
        <ele>723.734095</ele>
        <time>2025-11-11T21:06:45.501Z</time>
      </trkpt>
      <trkpt lat="48.510269" lon="9.694544">
        <ele>722.885785</ele>
        <time>2025-11-11T21:06:54.277Z</time>
      </trkpt>
      <trkpt lat="48.510461" lon="9.694651">
        <ele>722.968623</ele>
        <time>2025-11-11T21:06:58.574Z</time>
      </trkpt>
      <trkpt lat="48.510683" lon="9.694811">
        <ele>723.197165</ele>
        <time>2025-11-11T21:07:03.946Z</time>
      </trkpt>
      <trkpt lat="48.511464" lon="9.695581">
        <ele>724.063769</ele>
        <time>2025-11-11T21:07:26.831Z</time>
      </trkpt>
      <trkpt lat="48.511771" lon="9.695633">
        <ele>724.350764</ele>
        <time>2025-11-11T21:07:35.080Z</time>
      </trkpt>
      <trkpt lat="48.512072" lon="9.695495">
        <ele>724.691126</ele>
        <time>2025-11-11T21:07:43.647Z</time>
      </trkpt>
      <trkpt lat="48.512309" lon="9.695200">
        <ele>725.063703</ele>
        <time>2025-11-11T21:07:51.954Z</time>
      </trkpt>
      <trkpt lat="48.512890" lon="9.694477">
        <ele>725.976970</ele>
        <time>2025-11-11T21:08:11.599Z</time>
      </trkpt>
      <trkpt lat="48.514375" lon="9.692629">
        <ele>727.680200</ele>
        <time>2025-11-11T21:08:54.611Z</time>
      </trkpt>
      <trkpt lat="48.515085" lon="9.691640">
        <ele>728.781902</ele>
        <time>2025-11-11T21:09:18.837Z</time>
      </trkpt>
      <trkpt lat="48.516073" lon="9.690168">
        <ele>730.751163</ele>
        <time>2025-11-11T21:09:56.694Z</time>
      </trkpt>
      <trkpt lat="48.516681" lon="9.689418">
        <ele>731.377690</ele>
        <time>2025-11-11T21:10:15.240Z</time>
      </trkpt>
      <trkpt lat="48.517627" lon="9.688251">
        <ele>732.253430</ele>
        <time>2025-11-11T21:10:41.862Z</time>
      </trkpt>
      <trkpt lat="48.517865" lon="9.687995">
        <ele>732.396305</ele>
        <time>2025-11-11T21:10:48.747Z</time>
      </trkpt>
      <trkpt lat="48.518093" lon="9.687826">
        <ele>732.520487</ele>
        <time>2025-11-11T21:10:54.619Z</time>
      </trkpt>
      <trkpt lat="48.518758" lon="9.687502">
        <ele>732.862124</ele>
        <time>2025-11-11T21:11:10.311Z</time>
      </trkpt>
      <trkpt lat="48.519332" lon="9.687330">
        <ele>733.020736</ele>
        <time>2025-11-11T21:11:22.717Z</time>
      </trkpt>
      <trkpt lat="48.519776" lon="9.687024">
        <ele>733.082686</ele>
        <time>2025-11-11T21:11:32.512Z</time>
      </trkpt>
      <trkpt lat="48.520543" lon="9.686363">
        <ele>733.194783</ele>
        <time>2025-11-11T21:11:50.203Z</time>
      </trkpt>
      <trkpt lat="48.521567" lon="9.685241">
        <ele>733.822289</ele>
        <time>2025-11-11T21:12:17.898Z</time>
      </trkpt>
      <trkpt lat="48.523001" lon="9.683776">
        <ele>735.064713</ele>
        <time>2025-11-11T21:12:58.836Z</time>
      </trkpt>
      <trkpt lat="48.524078" lon="9.682393">
        <ele>736.060667</ele>
        <time>2025-11-11T21:13:32.091Z</time>
      </trkpt>
      <trkpt lat="48.526215" lon="9.678711">
        <ele>737.699027</ele>
        <time>2025-11-11T21:14:43.644Z</time>
      </trkpt>
      <trkpt lat="48.526165" lon="9.674772">
        <ele>738.973567</ele>
        <time>2025-11-11T21:15:26.851Z</time>
      </trkpt>
      <trkpt lat="48.526159" lon="9.674359">
        <ele>739.116254</ele>
        <time>2025-11-11T21:15:31.405Z</time>
      </trkpt>
      <trkpt lat="48.526355" lon="9.669661">
        <ele>742.703342</ele>
        <time>2025-11-11T21:16:27.461Z</time>
      </trkpt>
      <trkpt lat="48.529044" lon="9.669141">
        <ele>752.048507</ele>
        <time>2025-11-11T21:17:47.576Z</time>
      </trkpt>
      <trkpt lat="48.529355" lon="9.669122">
        <ele>753.872549</ele>
        <time>2025-11-11T21:17:59.220Z</time>
      </trkpt>
      <trkpt lat="48.530825" lon="9.669029">
        <ele>762.114398</ele>
        <time>2025-11-11T21:19:00.460Z</time>
      </trkpt>
      <trkpt lat="48.530972" lon="9.669019">
        <ele>762.319449</ele>
        <time>2025-11-11T21:19:05.814Z</time>
      </trkpt>
      <trkpt lat="48.531378" lon="9.668992">
        <ele>762.885756</ele>
        <time>2025-11-11T21:19:18.897Z</time>
      </trkpt>
      <trkpt lat="48.532529" lon="9.669062">
        <ele>764.490968</ele>
        <time>2025-11-11T21:19:35.352Z</time>
      </trkpt>
      <trkpt lat="48.532816" lon="9.669069">
        <ele>763.681850</ele>
        <time>2025-11-11T21:19:38.180Z</time>
      </trkpt>
      <trkpt lat="48.533910" lon="9.669122">
        <ele>760.463909</ele>
        <time>2025-11-11T21:19:48.718Z</time>
      </trkpt>
      <trkpt lat="48.534158" lon="9.669125">
        <ele>759.734783</ele>
        <time>2025-11-11T21:19:51.214Z</time>
      </trkpt>
      <trkpt lat="48.535395" lon="9.669100">
        <ele>761.001415</ele>
        <time>2025-11-11T21:20:09.332Z</time>
      </trkpt>
      <trkpt lat="48.535496" lon="9.669098">
        <ele>761.171707</ele>
        <time>2025-11-11T21:20:11.975Z</time>
      </trkpt>
      <trkpt lat="48.535290" lon="9.665887">
        <ele>770.402119</ele>
        <time>2025-11-11T21:21:27.843Z</time>
      </trkpt>
      <trkpt lat="48.535179" lon="9.664071">
        <ele>777.862828</ele>
        <time>2025-11-11T21:22:17.743Z</time>
      </trkpt>
      <trkpt lat="48.535056" lon="9.663242">
        <ele>781.475204</ele>
        <time>2025-11-11T21:22:41.636Z</time>
      </trkpt>
      <trkpt lat="48.535013" lon="9.662671">
        <ele>783.807297</ele>
        <time>2025-11-11T21:22:56.766Z</time>
      </trkpt>
      <trkpt lat="48.535358" lon="9.662419">
        <ele>785.445683</ele>
        <time>2025-11-11T21:23:10.999Z</time>
      </trkpt>
      <trkpt lat="48.535633" lon="9.662279">
        <ele>786.686351</ele>
        <time>2025-11-11T21:23:20.982Z</time>
      </trkpt>
      <trkpt lat="48.536151" lon="9.662253">
        <ele>788.902103</ele>
        <time>2025-11-11T21:23:37.683Z</time>
      </trkpt>
      <trkpt lat="48.537858" lon="9.662166">
        <ele>794.250909</ele>
        <time>2025-11-11T21:24:20.625Z</time>
      </trkpt>
      <trkpt lat="48.538148" lon="9.662091">
        <ele>795.010377</ele>
        <time>2025-11-11T21:24:27.497Z</time>
      </trkpt>
      <trkpt lat="48.539526" lon="9.661732">
        <ele>799.444965</ele>
        <time>2025-11-11T21:25:02.896Z</time>
      </trkpt>
      <trkpt lat="48.539884" lon="9.661598">
        <ele>800.687682</ele>
        <time>2025-11-11T21:25:14.403Z</time>
      </trkpt>
      <trkpt lat="48.540276" lon="9.661379">
        <ele>802.085153</ele>
        <time>2025-11-11T21:25:28.502Z</time>
      </trkpt>
      <trkpt lat="48.541013" lon="9.660739">
        <ele>804.688368</ele>
        <time>2025-11-11T21:25:56.912Z</time>
      </trkpt>
      <trkpt lat="48.540982" lon="9.660341">
        <ele>805.500835</ele>
        <time>2025-11-11T21:26:05.757Z</time>
      </trkpt>
      <trkpt lat="48.541011" lon="9.660128">
        <ele>805.941705</ele>
        <time>2025-11-11T21:26:10.155Z</time>
      </trkpt>
      <trkpt lat="48.541025" lon="9.660030">
        <ele>806.144962</ele>
        <time>2025-11-11T21:26:12.143Z</time>
      </trkpt>
      <trkpt lat="48.540678" lon="9.659889">
        <ele>807.245305</ele>
        <time>2025-11-11T21:26:19.470Z</time>
      </trkpt>
      <trkpt lat="48.540271" lon="9.659639">
        <ele>806.922824</ele>
        <time>2025-11-11T21:26:25.827Z</time>
      </trkpt>
      <trkpt lat="48.540009" lon="9.659454">
        <ele>806.472011</ele>
        <time>2025-11-11T21:26:29.230Z</time>
      </trkpt>
      <trkpt lat="48.539533" lon="9.659200">
        <ele>805.685109</ele>
        <time>2025-11-11T21:26:34.699Z</time>
      </trkpt>
      <trkpt lat="48.539056" lon="9.659051">
        <ele>804.925859</ele>
        <time>2025-11-11T21:26:39.825Z</time>
      </trkpt>
      <trkpt lat="48.538325" lon="9.658919">
        <ele>803.485127</ele>
        <time>2025-11-11T21:26:47.382Z</time>
      </trkpt>
      <trkpt lat="48.537755" lon="9.658776">
        <ele>802.292226</ele>
        <time>2025-11-11T21:26:53.419Z</time>
      </trkpt>
      <trkpt lat="48.537408" lon="9.658648">
        <ele>801.554780</ele>
        <time>2025-11-11T21:26:57.454Z</time>
      </trkpt>
      <trkpt lat="48.537057" lon="9.658470">
        <ele>800.989887</ele>
        <time>2025-11-11T21:27:02.063Z</time>
      </trkpt>
      <trkpt lat="48.537057" lon="9.658366">
        <ele>801.006945</ele>
        <time>2025-11-11T21:27:03.006Z</time>
      </trkpt>
      <trkpt lat="48.537174" lon="9.657177">
        <ele>801.204107</ele>
        <time>2025-11-11T21:27:16.614Z</time>
      </trkpt>
      <trkpt lat="48.537381" lon="9.655076">
        <ele>799.316785</ele>
        <time>2025-11-11T21:27:41.004Z</time>
      </trkpt>
      <trkpt lat="48.537390" lon="9.654967">
        <ele>799.043854</ele>
        <time>2025-11-11T21:27:41.774Z</time>
      </trkpt>
      <trkpt lat="48.537407" lon="9.654479">
        <ele>797.829637</ele>
        <time>2025-11-11T21:27:44.985Z</time>
      </trkpt>
      <trkpt lat="48.537383" lon="9.653848">
        <ele>796.259200</ele>
        <time>2025-11-11T21:27:48.871Z</time>
      </trkpt>
      <trkpt lat="48.537269" lon="9.653018">
        <ele>794.079727</ele>
        <time>2025-11-11T21:27:53.819Z</time>
      </trkpt>
      <trkpt lat="48.537163" lon="9.652464">
        <ele>792.441658</ele>
        <time>2025-11-11T21:27:57.187Z</time>
      </trkpt>
      <trkpt lat="48.536933" lon="9.651753">
        <ele>790.193853</ele>
        <time>2025-11-11T21:28:01.971Z</time>
      </trkpt>
      <trkpt lat="48.536885" lon="9.651624">
        <ele>789.773519</ele>
        <time>2025-11-11T21:28:02.909Z</time>
      </trkpt>
      <trkpt lat="48.536637" lon="9.650966">
        <ele>787.622807</ele>
        <time>2025-11-11T21:28:08.342Z</time>
      </trkpt>
      <trkpt lat="48.536510" lon="9.650595">
        <ele>787.483114</ele>
        <time>2025-11-11T21:28:13.480Z</time>
      </trkpt>
      <trkpt lat="48.536408" lon="9.650097">
        <ele>789.030753</ele>
        <time>2025-11-11T21:28:23.309Z</time>
      </trkpt>
      <trkpt lat="48.536236" lon="9.648958">
        <ele>792.499186</ele>
        <time>2025-11-11T21:28:51.392Z</time>
      </trkpt>
      <trkpt lat="48.536192" lon="9.648552">
        <ele>793.720610</ele>
        <time>2025-11-11T21:29:02.384Z</time>
      </trkpt>
      <trkpt lat="48.536214" lon="9.647317">
        <ele>797.407654</ele>
        <time>2025-11-11T21:29:36.348Z</time>
      </trkpt>
      <trkpt lat="48.536268" lon="9.646723">
        <ele>799.202045</ele>
        <time>2025-11-11T21:29:51.408Z</time>
      </trkpt>
      <trkpt lat="48.536424" lon="9.645698">
        <ele>802.349633</ele>
        <time>2025-11-11T21:30:11.454Z</time>
      </trkpt>
      <trkpt lat="48.536592" lon="9.645502">
        <ele>803.193546</ele>
        <time>2025-11-11T21:30:16.201Z</time>
      </trkpt>
      <trkpt lat="48.537399" lon="9.645489">
        <ele>804.310624</ele>
        <time>2025-11-11T21:30:31.426Z</time>
      </trkpt>
      <trkpt lat="48.537594" lon="9.645454">
        <ele>804.582434</ele>
        <time>2025-11-11T21:30:34.509Z</time>
      </trkpt>
      <trkpt lat="48.537808" lon="9.645370">
        <ele>804.888485</ele>
        <time>2025-11-11T21:30:37.990Z</time>
      </trkpt>
      <trkpt lat="48.538215" lon="9.645113">
        <ele>805.499093</ele>
        <time>2025-11-11T21:30:46.603Z</time>
      </trkpt>
      <trkpt lat="48.538465" lon="9.644854">
        <ele>806.173602</ele>
        <time>2025-11-11T21:30:53.946Z</time>
      </trkpt>
      <trkpt lat="48.540248" lon="9.642226">
        <ele>812.392779</ele>
        <time>2025-11-11T21:31:59.517Z</time>
      </trkpt>
      <trkpt lat="48.540312" lon="9.642053">
        <ele>812.692742</ele>
        <time>2025-11-11T21:32:02.468Z</time>
      </trkpt>
      <trkpt lat="48.540329" lon="9.641797">
        <ele>813.082177</ele>
        <time>2025-11-11T21:32:06.234Z</time>
      </trkpt>
      <trkpt lat="48.540313" lon="9.641605">
        <ele>813.375089</ele>
        <time>2025-11-11T21:32:09.025Z</time>
      </trkpt>
      <trkpt lat="48.540067" lon="9.640147">
        <ele>815.030895</ele>
        <time>2025-11-11T21:32:29.942Z</time>
      </trkpt>
      <trkpt lat="48.539968" lon="9.639698">
        <ele>815.377607</ele>
        <time>2025-11-11T21:32:36.697Z</time>
      </trkpt>
      <trkpt lat="48.539902" lon="9.639399">
        <ele>815.608517</ele>
        <time>2025-11-11T21:32:40.984Z</time>
      </trkpt>
      <trkpt lat="48.539654" lon="9.638643">
        <ele>816.226642</ele>
        <time>2025-11-11T21:32:51.588Z</time>
      </trkpt>
      <trkpt lat="48.539138" lon="9.637002">
        <ele>814.927654</ele>
        <time>2025-11-11T21:33:08.099Z</time>
      </trkpt>
      <trkpt lat="48.538906" lon="9.636325">
        <ele>814.174184</ele>
        <time>2025-11-11T21:33:13.713Z</time>
      </trkpt>
      <trkpt lat="48.538734" lon="9.635986">
        <ele>813.748421</ele>
        <time>2025-11-11T21:33:16.576Z</time>
      </trkpt>
      <trkpt lat="48.538585" lon="9.635776">
        <ele>812.277922</ele>
        <time>2025-11-11T21:33:18.536Z</time>
      </trkpt>
      <trkpt lat="48.538038" lon="9.635301">
        <ele>807.725205</ele>
        <time>2025-11-11T21:33:24.300Z</time>
      </trkpt>
      <trkpt lat="48.537998" lon="9.635086">
        <ele>806.658265</ele>
        <time>2025-11-11T21:33:25.603Z</time>
      </trkpt>
      <trkpt lat="48.538020" lon="9.634983">
        <ele>806.141213</ele>
        <time>2025-11-11T21:33:26.232Z</time>
      </trkpt>
      <trkpt lat="48.538371" lon="9.634473">
        <ele>802.626852</ele>
        <time>2025-11-11T21:33:30.464Z</time>
      </trkpt>
      <trkpt lat="48.538575" lon="9.634230">
        <ele>800.747495</ele>
        <time>2025-11-11T21:33:32.709Z</time>
      </trkpt>
      <trkpt lat="48.538787" lon="9.634016">
        <ele>798.529416</ele>
        <time>2025-11-11T21:33:34.903Z</time>
      </trkpt>
      <trkpt lat="48.539063" lon="9.633798">
        <ele>795.820101</ele>
        <time>2025-11-11T21:33:37.600Z</time>
      </trkpt>
      <trkpt lat="48.539363" lon="9.633605">
        <ele>792.983634</ele>
        <time>2025-11-11T21:33:40.445Z</time>
      </trkpt>
      <trkpt lat="48.540220" lon="9.633196">
        <ele>785.165594</ele>
        <time>2025-11-11T21:33:48.367Z</time>
      </trkpt>
      <trkpt lat="48.541095" lon="9.632579">
        <ele>778.018748</ele>
        <time>2025-11-11T21:33:56.873Z</time>
      </trkpt>
      <trkpt lat="48.542479" lon="9.631559">
        <ele>771.062745</ele>
        <time>2025-11-11T21:34:10.834Z</time>
      </trkpt>
      <trkpt lat="48.542547" lon="9.631478">
        <ele>770.968486</ele>
        <time>2025-11-11T21:34:11.835Z</time>
      </trkpt>
      <trkpt lat="48.542513" lon="9.630819">
        <ele>770.492170</ele>
        <time>2025-11-11T21:34:18.732Z</time>
      </trkpt>
      <trkpt lat="48.542516" lon="9.630490">
        <ele>770.255070</ele>
        <time>2025-11-11T21:34:23.956Z</time>
      </trkpt>
      <trkpt lat="48.542541" lon="9.630253">
        <ele>770.082134</ele>
        <time>2025-11-11T21:34:28.596Z</time>
      </trkpt>
      <trkpt lat="48.542573" lon="9.629950">
        <ele>769.921152</ele>
        <time>2025-11-11T21:34:35.548Z</time>
      </trkpt>
      <trkpt lat="48.542675" lon="9.629442">
        <ele>772.095022</ele>
        <time>2025-11-11T21:34:49.422Z</time>
      </trkpt>
      <trkpt lat="48.542840" lon="9.628962">
        <ele>774.309818</ele>
        <time>2025-11-11T21:35:04.451Z</time>
      </trkpt>
      <trkpt lat="48.543091" lon="9.628463">
        <ele>776.876130</ele>
        <time>2025-11-11T21:35:22.419Z</time>
      </trkpt>
      <trkpt lat="48.543272" lon="9.628184">
        <ele>778.475734</ele>
        <time>2025-11-11T21:35:33.352Z</time>
      </trkpt>
      <trkpt lat="48.544158" lon="9.626821">
        <ele>785.299022</ele>
        <time>2025-11-11T21:36:23.791Z</time>
      </trkpt>
      <trkpt lat="48.544450" lon="9.626556">
        <ele>787.009167</ele>
        <time>2025-11-11T21:36:34.952Z</time>
      </trkpt>
      <trkpt lat="48.545265" lon="9.626209">
        <ele>790.808341</ele>
        <time>2025-11-11T21:36:59.771Z</time>
      </trkpt>
      <trkpt lat="48.545695" lon="9.625920">
        <ele>792.306995</ele>
        <time>2025-11-11T21:37:12.722Z</time>
      </trkpt>
      <trkpt lat="48.545779" lon="9.625872">
        <ele>792.592973</ele>
        <time>2025-11-11T21:37:15.186Z</time>
      </trkpt>
      <trkpt lat="48.545948" lon="9.625804">
        <ele>793.149879</ele>
        <time>2025-11-11T21:37:20.032Z</time>
      </trkpt>
      <trkpt lat="48.546331" lon="9.625916">
        <ele>794.392097</ele>
        <time>2025-11-11T21:37:31.085Z</time>
      </trkpt>
      <trkpt lat="48.548574" lon="9.626407">
        <ele>799.572027</ele>
        <time>2025-11-11T21:38:28.377Z</time>
      </trkpt>
      <trkpt lat="48.548941" lon="9.626501">
        <ele>798.093251</ele>
        <time>2025-11-11T21:38:33.358Z</time>
      </trkpt>
      <trkpt lat="48.549161" lon="9.626623">
        <ele>797.162237</ele>
        <time>2025-11-11T21:38:35.938Z</time>
      </trkpt>
      <trkpt lat="48.549301" lon="9.626726">
        <ele>796.543610</ele>
        <time>2025-11-11T21:38:37.528Z</time>
      </trkpt>
      <trkpt lat="48.549524" lon="9.626991">
        <ele>795.416450</ele>
        <time>2025-11-11T21:38:40.278Z</time>
      </trkpt>
      <trkpt lat="48.550305" lon="9.628561">
        <ele>787.750220</ele>
        <time>2025-11-11T21:38:51.776Z</time>
      </trkpt>
      <trkpt lat="48.550514" lon="9.629097">
        <ele>784.362595</ele>
        <time>2025-11-11T21:38:55.351Z</time>
      </trkpt>
      <trkpt lat="48.550596" lon="9.629414">
        <ele>782.509203</ele>
        <time>2025-11-11T21:38:57.323Z</time>
      </trkpt>
      <trkpt lat="48.550695" lon="9.630133">
        <ele>778.509983</ele>
        <time>2025-11-11T21:39:01.623Z</time>
      </trkpt>
      <trkpt lat="48.550706" lon="9.630418">
        <ele>776.910940</ele>
        <time>2025-11-11T21:39:03.304Z</time>
      </trkpt>
      <trkpt lat="48.550685" lon="9.630830">
        <ele>774.541198</ele>
        <time>2025-11-11T21:39:05.731Z</time>
      </trkpt>
      <trkpt lat="48.550606" lon="9.631480">
        <ele>770.751249</ele>
        <time>2025-11-11T21:39:09.562Z</time>
      </trkpt>
      <trkpt lat="48.550590" lon="9.631944">
        <ele>768.086677</ele>
        <time>2025-11-11T21:39:12.257Z</time>
      </trkpt>
      <trkpt lat="48.550639" lon="9.632402">
        <ele>765.426040</ele>
        <time>2025-11-11T21:39:14.930Z</time>
      </trkpt>
      <trkpt lat="48.550743" lon="9.632894">
        <ele>762.464140</ele>
        <time>2025-11-11T21:39:17.881Z</time>
      </trkpt>
      <trkpt lat="48.550918" lon="9.633367">
        <ele>759.768859</ele>
        <time>2025-11-11T21:39:20.978Z</time>
      </trkpt>
      <trkpt lat="48.550987" lon="9.633527">
        <ele>758.832011</ele>
        <time>2025-11-11T21:39:22.078Z</time>
      </trkpt>
      <trkpt lat="48.551065" lon="9.633619">
        <ele>758.098589</ele>
        <time>2025-11-11T21:39:22.942Z</time>
      </trkpt>
      <trkpt lat="48.551246" lon="9.633685">
        <ele>756.718597</ele>
        <time>2025-11-11T21:39:24.569Z</time>
      </trkpt>
      <trkpt lat="48.551373" lon="9.633641">
        <ele>755.752912</ele>
        <time>2025-11-11T21:39:25.723Z</time>
      </trkpt>
      <trkpt lat="48.551686" lon="9.633068">
        <ele>752.108228</ele>
        <time>2025-11-11T21:39:30.209Z</time>
      </trkpt>
      <trkpt lat="48.551800" lon="9.632930">
        <ele>751.025540</ele>
        <time>2025-11-11T21:39:31.560Z</time>
      </trkpt>
      <trkpt lat="48.551986" lon="9.632791">
        <ele>749.487571</ele>
        <time>2025-11-11T21:39:33.489Z</time>
      </trkpt>
      <trkpt lat="48.552496" lon="9.632285">
        <ele>744.774892</ele>
        <time>2025-11-11T21:39:39.212Z</time>
      </trkpt>
      <trkpt lat="48.553024" lon="9.631863">
        <ele>740.132146</ele>
        <time>2025-11-11T21:39:44.560Z</time>
      </trkpt>
      <trkpt lat="48.553177" lon="9.631778">
        <ele>738.865111</ele>
        <time>2025-11-11T21:39:45.988Z</time>
      </trkpt>
      <trkpt lat="48.553546" lon="9.631659">
        <ele>735.932478</ele>
        <time>2025-11-11T21:39:49.234Z</time>
      </trkpt>
      <trkpt lat="48.554059" lon="9.631561">
        <ele>730.800884</ele>
        <time>2025-11-11T21:39:53.640Z</time>
      </trkpt>
      <trkpt lat="48.554566" lon="9.631383">
        <ele>725.247483</ele>
        <time>2025-11-11T21:39:58.053Z</time>
      </trkpt>
      <trkpt lat="48.554784" lon="9.631063">
        <ele>722.004563</ele>
        <time>2025-11-11T21:40:00.643Z</time>
      </trkpt>
      <trkpt lat="48.554890" lon="9.630960">
        <ele>720.659912</ele>
        <time>2025-11-11T21:40:01.724Z</time>
      </trkpt>
      <trkpt lat="48.555578" lon="9.630593">
        <ele>713.162130</ele>
        <time>2025-11-11T21:40:08.007Z</time>
      </trkpt>
      <trkpt lat="48.555875" lon="9.630355">
        <ele>709.938201</ele>
        <time>2025-11-11T21:40:10.914Z</time>
      </trkpt>
      <trkpt lat="48.556159" lon="9.630196">
        <ele>707.033792</ele>
        <time>2025-11-11T21:40:13.529Z</time>
      </trkpt>
      <trkpt lat="48.558448" lon="9.629569">
        <ele>686.463269</ele>
        <time>2025-11-11T21:40:33.698Z</time>
      </trkpt>
      <trkpt lat="48.558786" lon="9.629497">
        <ele>683.604095</ele>
        <time>2025-11-11T21:40:36.797Z</time>
      </trkpt>
      <trkpt lat="48.559120" lon="9.629472">
        <ele>681.303114</ele>
        <time>2025-11-11T21:40:39.916Z</time>
      </trkpt>
      <trkpt lat="48.559709" lon="9.629468">
        <ele>677.321509</ele>
        <time>2025-11-11T21:40:45.804Z</time>
      </trkpt>
      <trkpt lat="48.560078" lon="9.629518">
        <ele>674.817106</ele>
        <time>2025-11-11T21:40:49.254Z</time>
      </trkpt>
      <trkpt lat="48.560186" lon="9.629578">
        <ele>674.039254</ele>
        <time>2025-11-11T21:40:50.282Z</time>
      </trkpt>
      <trkpt lat="48.560272" lon="9.629668">
        <ele>673.332081</ele>
        <time>2025-11-11T21:40:51.192Z</time>
      </trkpt>
      <trkpt lat="48.560383" lon="9.629873">
        <ele>672.147100</ele>
        <time>2025-11-11T21:40:52.701Z</time>
      </trkpt>
      <trkpt lat="48.560482" lon="9.629910">
        <ele>671.457704</ele>
        <time>2025-11-11T21:40:53.578Z</time>
      </trkpt>
      <trkpt lat="48.560511" lon="9.629892">
        <ele>671.245772</ele>
        <time>2025-11-11T21:40:53.845Z</time>
      </trkpt>
      <trkpt lat="48.560551" lon="9.629808">
        <ele>670.378611</ele>
        <time>2025-11-11T21:40:54.424Z</time>
      </trkpt>
      <trkpt lat="48.560542" lon="9.629700">
        <ele>669.457348</ele>
        <time>2025-11-11T21:40:55.038Z</time>
      </trkpt>
      <trkpt lat="48.560246" lon="9.629352">
        <ele>664.661263</ele>
        <time>2025-11-11T21:40:58.196Z</time>
      </trkpt>
      <trkpt lat="48.560046" lon="9.629136">
        <ele>661.517513</ele>
        <time>2025-11-11T21:41:00.252Z</time>
      </trkpt>
      <trkpt lat="48.559746" lon="9.628968">
        <ele>657.426132</ele>
        <time>2025-11-11T21:41:02.897Z</time>
      </trkpt>
      <trkpt lat="48.558654" lon="9.628696">
        <ele>646.260966</ele>
        <time>2025-11-11T21:41:12.172Z</time>
      </trkpt>
      <trkpt lat="48.558126" lon="9.628638">
        <ele>643.567391</ele>
        <time>2025-11-11T21:41:16.917Z</time>
      </trkpt>
      <trkpt lat="48.557418" lon="9.628633">
        <ele>639.965021</ele>
        <time>2025-11-11T21:41:25.363Z</time>
      </trkpt>
      <trkpt lat="48.557109" lon="9.628598">
        <ele>638.787484</ele>
        <time>2025-11-11T21:41:33.721Z</time>
      </trkpt>
      <trkpt lat="48.556591" lon="9.628416">
        <ele>637.634775</ele>
        <time>2025-11-11T21:41:47.331Z</time>
      </trkpt>
      <trkpt lat="48.556288" lon="9.628448">
        <ele>636.976429</ele>
        <time>2025-11-11T21:41:51.704Z</time>
      </trkpt>
      <trkpt lat="48.556207" lon="9.628361">
        <ele>636.761020</ele>
        <time>2025-11-11T21:41:52.833Z</time>
      </trkpt>
      <trkpt lat="48.556201" lon="9.628302">
        <ele>636.675384</ele>
        <time>2025-11-11T21:41:53.309Z</time>
      </trkpt>
      <trkpt lat="48.556230" lon="9.628219">
        <ele>636.540739</ele>
        <time>2025-11-11T21:41:53.961Z</time>
      </trkpt>
      <trkpt lat="48.556283" lon="9.628158">
        <ele>636.396327</ele>
        <time>2025-11-11T21:41:54.675Z</time>
      </trkpt>
      <trkpt lat="48.556446" lon="9.628168">
        <ele>636.042738</ele>
        <time>2025-11-11T21:41:56.293Z</time>
      </trkpt>
      <trkpt lat="48.556739" lon="9.628182">
        <ele>635.407352</ele>
        <time>2025-11-11T21:41:58.965Z</time>
      </trkpt>
      <trkpt lat="48.557225" lon="9.628098">
        <ele>630.950721</ele>
        <time>2025-11-11T21:42:03.172Z</time>
      </trkpt>
      <trkpt lat="48.557608" lon="9.627932">
        <ele>626.587128</ele>
        <time>2025-11-11T21:42:06.496Z</time>
      </trkpt>
      <trkpt lat="48.558110" lon="9.627634">
        <ele>620.680369</ele>
        <time>2025-11-11T21:42:11.026Z</time>
      </trkpt>
      <trkpt lat="48.558986" lon="9.627340">
        <ele>612.269055</ele>
        <time>2025-11-11T21:42:18.757Z</time>
      </trkpt>
      <trkpt lat="48.559119" lon="9.627300">
        <ele>611.237714</ele>
        <time>2025-11-11T21:42:19.948Z</time>
      </trkpt>
      <trkpt lat="48.559242" lon="9.627276">
        <ele>610.294501</ele>
        <time>2025-11-11T21:42:21.048Z</time>
      </trkpt>
      <trkpt lat="48.559703" lon="9.627299">
        <ele>606.786574</ele>
        <time>2025-11-11T21:42:25.177Z</time>
      </trkpt>
      <trkpt lat="48.560349" lon="9.626963">
        <ele>601.663120</ele>
        <time>2025-11-11T21:42:31.475Z</time>
      </trkpt>
      <trkpt lat="48.560944" lon="9.626475">
        <ele>598.229440</ele>
        <time>2025-11-11T21:42:37.706Z</time>
      </trkpt>
      <trkpt lat="48.560986" lon="9.626435">
        <ele>597.977638</ele>
        <time>2025-11-11T21:42:38.169Z</time>
      </trkpt>
      <trkpt lat="48.561250" lon="9.626219">
        <ele>596.454965</ele>
        <time>2025-11-11T21:42:40.934Z</time>
      </trkpt>
      <trkpt lat="48.561343" lon="9.626106">
        <ele>595.849692</ele>
        <time>2025-11-11T21:42:42.052Z</time>
      </trkpt>
      <trkpt lat="48.561371" lon="9.626048">
        <ele>595.608714</ele>
        <time>2025-11-11T21:42:42.497Z</time>
      </trkpt>
      <trkpt lat="48.561443" lon="9.625684">
        <ele>594.333490</ele>
        <time>2025-11-11T21:42:44.897Z</time>
      </trkpt>
      <trkpt lat="48.561476" lon="9.625618">
        <ele>594.055835</ele>
        <time>2025-11-11T21:42:45.430Z</time>
      </trkpt>
      <trkpt lat="48.561687" lon="9.625325">
        <ele>592.648087</ele>
        <time>2025-11-11T21:42:48.291Z</time>
      </trkpt>
      <trkpt lat="48.561854" lon="9.625277">
        <ele>592.258635</ele>
        <time>2025-11-11T21:42:50.000Z</time>
      </trkpt>
      <trkpt lat="48.561934" lon="9.625273">
        <ele>592.075257</ele>
        <time>2025-11-11T21:42:50.814Z</time>
      </trkpt>
      <trkpt lat="48.562048" lon="9.625260">
        <ele>591.813344</ele>
        <time>2025-11-11T21:42:52.496Z</time>
      </trkpt>
      <trkpt lat="48.562082" lon="9.625278">
        <ele>591.730808</ele>
        <time>2025-11-11T21:42:53.578Z</time>
      </trkpt>
      <trkpt lat="48.562137" lon="9.625394">
        <ele>591.514453</ele>
        <time>2025-11-11T21:42:56.393Z</time>
      </trkpt>
      <trkpt lat="48.562244" lon="9.625721">
        <ele>590.961372</ele>
        <time>2025-11-11T21:42:58.950Z</time>
      </trkpt>
      <trkpt lat="48.562261" lon="9.625770">
        <ele>590.877489</ele>
        <time>2025-11-11T21:42:59.348Z</time>
      </trkpt>
      <trkpt lat="48.562375" lon="9.626086">
        <ele>590.331818</ele>
        <time>2025-11-11T21:43:02.002Z</time>
      </trkpt>
      <trkpt lat="48.562541" lon="9.626477">
        <ele>589.627497</ele>
        <time>2025-11-11T21:43:05.478Z</time>
      </trkpt>
      <trkpt lat="48.562719" lon="9.626802">
        <ele>588.987887</ele>
        <time>2025-11-11T21:43:08.731Z</time>
      </trkpt>
      <trkpt lat="48.562883" lon="9.627073">
        <ele>588.546436</ele>
        <time>2025-11-11T21:43:11.518Z</time>
      </trkpt>
      <trkpt lat="48.562955" lon="9.627188">
        <ele>588.513000</ele>
        <time>2025-11-11T21:43:12.732Z</time>
      </trkpt>
      <trkpt lat="48.563208" lon="9.627619">
        <ele>588.391320</ele>
        <time>2025-11-11T21:43:17.100Z</time>
      </trkpt>
      <trkpt lat="48.563329" lon="9.627853">
        <ele>588.328599</ele>
        <time>2025-11-11T21:43:19.674Z</time>
      </trkpt>
      <trkpt lat="48.563396" lon="9.627984">
        <ele>588.293632</ele>
        <time>2025-11-11T21:43:21.034Z</time>
      </trkpt>
      <trkpt lat="48.563561" lon="9.628412">
        <ele>588.189016</ele>
        <time>2025-11-11T21:43:25.122Z</time>
      </trkpt>
      <trkpt lat="48.563677" lon="9.628701">
        <ele>588.117628</ele>
        <time>2025-11-11T21:43:27.981Z</time>
      </trkpt>
      <trkpt lat="48.563909" lon="9.629185">
        <ele>587.991406</ele>
        <time>2025-11-11T21:43:35.973Z</time>
      </trkpt>
      <trkpt lat="48.564328" lon="9.629809">
        <ele>588.897999</ele>
        <time>2025-11-11T21:43:50.228Z</time>
      </trkpt>
      <trkpt lat="48.564569" lon="9.630164">
        <ele>589.417773</ele>
        <time>2025-11-11T21:43:58.770Z</time>
      </trkpt>
      <trkpt lat="48.565477" lon="9.631356">
        <ele>590.775078</ele>
        <time>2025-11-11T21:44:22.775Z</time>
      </trkpt>
      <trkpt lat="48.565580" lon="9.631510">
        <ele>590.777834</ele>
        <time>2025-11-11T21:44:24.361Z</time>
      </trkpt>
      <trkpt lat="48.565795" lon="9.632003">
        <ele>590.785265</ele>
        <time>2025-11-11T21:44:29.510Z</time>
      </trkpt>
      <trkpt lat="48.565895" lon="9.632297">
        <ele>590.789426</ele>
        <time>2025-11-11T21:44:33.313Z</time>
      </trkpt>
      <trkpt lat="48.566176" lon="9.632864">
        <ele>590.798342</ele>
        <time>2025-11-11T21:44:42.084Z</time>
      </trkpt>
      <trkpt lat="48.566530" lon="9.633558">
        <ele>589.498956</ele>
        <time>2025-11-11T21:44:49.062Z</time>
      </trkpt>
      <trkpt lat="48.566859" lon="9.634230">
        <ele>587.328175</ele>
        <time>2025-11-11T21:44:54.679Z</time>
      </trkpt>
      <trkpt lat="48.566936" lon="9.634452">
        <ele>586.677279</ele>
        <time>2025-11-11T21:44:56.390Z</time>
      </trkpt>
      <trkpt lat="48.567074" lon="9.635028">
        <ele>585.086470</ele>
        <time>2025-11-11T21:45:00.186Z</time>
      </trkpt>
      <trkpt lat="48.567294" lon="9.636113">
        <ele>581.383341</ele>
        <time>2025-11-11T21:45:06.837Z</time>
      </trkpt>
      <trkpt lat="48.567857" lon="9.639061">
        <ele>570.579173</ele>
        <time>2025-11-11T21:45:25.853Z</time>
      </trkpt>
      <trkpt lat="48.568113" lon="9.640383">
        <ele>566.622461</ele>
        <time>2025-11-11T21:45:34.603Z</time>
      </trkpt>
      <trkpt lat="48.568373" lon="9.641338">
        <ele>564.749430</ele>
        <time>2025-11-11T21:45:41.677Z</time>
      </trkpt>
      <trkpt lat="48.568527" lon="9.641807">
        <ele>564.112296</ele>
        <time>2025-11-11T21:45:45.499Z</time>
      </trkpt>
      <trkpt lat="48.568666" lon="9.642182">
        <ele>563.589240</ele>
        <time>2025-11-11T21:45:48.824Z</time>
      </trkpt>
      <trkpt lat="48.568892" lon="9.642739">
        <ele>562.794151</ele>
        <time>2025-11-11T21:45:54.202Z</time>
      </trkpt>
      <trkpt lat="48.569583" lon="9.644125">
        <ele>561.727136</ele>
        <time>2025-11-11T21:46:08.015Z</time>
      </trkpt>
      <trkpt lat="48.569652" lon="9.644259">
        <ele>561.658629</ele>
        <time>2025-11-11T21:46:09.413Z</time>
      </trkpt>
      <trkpt lat="48.569838" lon="9.644616">
        <ele>561.475300</ele>
        <time>2025-11-11T21:46:13.274Z</time>
      </trkpt>
      <trkpt lat="48.571547" lon="9.647913">
        <ele>561.781256</ele>
        <time>2025-11-11T21:46:56.505Z</time>
      </trkpt>
      <trkpt lat="48.571906" lon="9.648603">
        <ele>562.151449</ele>
        <time>2025-11-11T21:47:05.555Z</time>
      </trkpt>
      <trkpt lat="48.572183" lon="9.649144">
        <ele>562.439945</ele>
        <time>2025-11-11T21:47:13.460Z</time>
      </trkpt>
      <trkpt lat="48.572485" lon="9.649804">
        <ele>562.970247</ele>
        <time>2025-11-11T21:47:24.311Z</time>
      </trkpt>
      <trkpt lat="48.572693" lon="9.650340">
        <ele>563.621585</ele>
        <time>2025-11-11T21:47:34.693Z</time>
      </trkpt>
      <trkpt lat="48.573541" lon="9.653106">
        <ele>563.831237</ele>
        <time>2025-11-11T21:48:16.402Z</time>
      </trkpt>
      <trkpt lat="48.573574" lon="9.653218">
        <ele>563.668716</ele>
        <time>2025-11-11T21:48:17.236Z</time>
      </trkpt>
      <trkpt lat="48.574362" lon="9.655676">
        <ele>557.485785</ele>
        <time>2025-11-11T21:48:34.165Z</time>
      </trkpt>
      <trkpt lat="48.574541" lon="9.656218">
        <ele>555.568811</ele>
        <time>2025-11-11T21:48:37.971Z</time>
      </trkpt>
      <trkpt lat="48.574726" lon="9.656652">
        <ele>553.935058</ele>
        <time>2025-11-11T21:48:41.201Z</time>
      </trkpt>
      <trkpt lat="48.574773" lon="9.656753">
        <ele>553.544307</ele>
        <time>2025-11-11T21:48:41.976Z</time>
      </trkpt>
      <trkpt lat="48.575114" lon="9.657410">
        <ele>552.915316</ele>
        <time>2025-11-11T21:48:47.627Z</time>
      </trkpt>
      <trkpt lat="48.575457" lon="9.657951">
        <ele>552.541193</ele>
        <time>2025-11-11T21:48:52.751Z</time>
      </trkpt>
      <trkpt lat="48.575425" lon="9.658115">
        <ele>552.455820</ele>
        <time>2025-11-11T21:48:54.005Z</time>
      </trkpt>
      <trkpt lat="48.575426" lon="9.658226">
        <ele>552.400392</ele>
        <time>2025-11-11T21:48:54.893Z</time>
      </trkpt>
      <trkpt lat="48.575458" lon="9.658338">
        <ele>552.339479</ele>
        <time>2025-11-11T21:48:55.944Z</time>
      </trkpt>
      <trkpt lat="48.575618" lon="9.658704">
        <ele>552.120447</ele>
        <time>2025-11-11T21:49:01.382Z</time>
      </trkpt>
      <trkpt lat="48.575922" lon="9.659254">
        <ele>554.204856</ele>
        <time>2025-11-11T21:49:16.353Z</time>
      </trkpt>
      <trkpt lat="48.575732" lon="9.659575">
        <ele>557.033431</ele>
        <time>2025-11-11T21:49:31.026Z</time>
      </trkpt>
      <trkpt lat="48.575686" lon="9.659653">
        <ele>557.719638</ele>
        <time>2025-11-11T21:49:34.875Z</time>
      </trkpt>
      <trkpt lat="48.575392" lon="9.660185">
        <ele>562.271877</ele>
        <time>2025-11-11T21:50:03.216Z</time>
      </trkpt>
      <trkpt lat="48.575307" lon="9.660332">
        <ele>563.554001</ele>
        <time>2025-11-11T21:50:12.141Z</time>
      </trkpt>
      <trkpt lat="48.575215" lon="9.660492">
        <ele>564.946140</ele>
        <time>2025-11-11T21:50:22.337Z</time>
      </trkpt>
      <trkpt lat="48.575123" lon="9.660597">
        <ele>566.090442</ele>
        <time>2025-11-11T21:50:31.035Z</time>
      </trkpt>
      <trkpt lat="48.574903" lon="9.660680">
        <ele>568.341159</ele>
        <time>2025-11-11T21:50:48.424Z</time>
      </trkpt>
      <trkpt lat="48.574718" lon="9.660680">
        <ele>570.324039</ele>
        <time>2025-11-11T21:51:02.877Z</time>
      </trkpt>
      <trkpt lat="48.574567" lon="9.660591">
        <ele>572.538952</ele>
        <time>2025-11-11T21:51:15.483Z</time>
      </trkpt>
      <trkpt lat="48.574522" lon="9.660528">
        <ele>573.377210</ele>
        <time>2025-11-11T21:51:20.266Z</time>
      </trkpt>
      <trkpt lat="48.574463" lon="9.660342">
        <ele>575.242306</ele>
        <time>2025-11-11T21:51:30.891Z</time>
      </trkpt>
      <trkpt lat="48.574368" lon="9.659641">
        <ele>581.712338</ele>
        <time>2025-11-11T21:52:06.899Z</time>
      </trkpt>
      <trkpt lat="48.574294" lon="9.659344">
        <ele>584.581916</ele>
        <time>2025-11-11T21:52:22.394Z</time>
      </trkpt>
      <trkpt lat="48.574108" lon="9.657991">
        <ele>596.952124</ele>
        <time>2025-11-11T21:53:30.366Z</time>
      </trkpt>
      <trkpt lat="48.573367" lon="9.655616">
        <ele>618.721939</ele>
        <time>2025-11-11T21:55:41.925Z</time>
      </trkpt>
      <trkpt lat="48.572823" lon="9.654074">
        <ele>626.382250</ele>
        <time>2025-11-11T21:56:36.882Z</time>
      </trkpt>
      <trkpt lat="48.572550" lon="9.653470">
        <ele>629.588752</ele>
        <time>2025-11-11T21:56:50.850Z</time>
      </trkpt>
      <trkpt lat="48.572027" lon="9.652495">
        <ele>631.668409</ele>
        <time>2025-11-11T21:57:16.950Z</time>
      </trkpt>
      <trkpt lat="48.571583" lon="9.651790">
        <ele>633.210650</ele>
        <time>2025-11-11T21:57:35.188Z</time>
      </trkpt>
      <trkpt lat="48.571365" lon="9.651369">
        <ele>634.049001</ele>
        <time>2025-11-11T21:57:45.113Z</time>
      </trkpt>
      <trkpt lat="48.570842" lon="9.650218">
        <ele>635.266519</ele>
        <time>2025-11-11T21:58:11.128Z</time>
      </trkpt>
      <trkpt lat="48.570543" lon="9.649574">
        <ele>635.952531</ele>
        <time>2025-11-11T21:58:21.911Z</time>
      </trkpt>
      <trkpt lat="48.570181" lon="9.648925">
        <ele>636.817543</ele>
        <time>2025-11-11T21:58:35.037Z</time>
      </trkpt>
      <trkpt lat="48.569971" lon="9.648601">
        <ele>637.386806</ele>
        <time>2025-11-11T21:58:43.356Z</time>
      </trkpt>
      <trkpt lat="48.569672" lon="9.648224">
        <ele>638.125448</ele>
        <time>2025-11-11T21:58:53.730Z</time>
      </trkpt>
      <trkpt lat="48.569293" lon="9.647812">
        <ele>639.011035</ele>
        <time>2025-11-11T21:59:07.098Z</time>
      </trkpt>
      <trkpt lat="48.568975" lon="9.647529">
        <ele>639.711061</ele>
        <time>2025-11-11T21:59:16.853Z</time>
      </trkpt>
      <trkpt lat="48.568593" lon="9.647300">
        <ele>642.603948</ele>
        <time>2025-11-11T21:59:30.814Z</time>
      </trkpt>
      <trkpt lat="48.568096" lon="9.647094">
        <ele>646.663971</ele>
        <time>2025-11-11T21:59:52.256Z</time>
      </trkpt>
      <trkpt lat="48.567467" lon="9.646846">
        <ele>651.785184</ele>
        <time>2025-11-11T22:00:28.634Z</time>
      </trkpt>
      <trkpt lat="48.565923" lon="9.646067">
        <ele>672.172567</ele>
        <time>2025-11-11T22:02:41.056Z</time>
      </trkpt>
      <trkpt lat="48.565838" lon="9.645915">
        <ele>673.949031</ele>
        <time>2025-11-11T22:02:51.445Z</time>
      </trkpt>
      <trkpt lat="48.565553" lon="9.644462">
        <ele>682.172193</ele>
        <time>2025-11-11T22:03:52.062Z</time>
      </trkpt>
      <trkpt lat="48.565541" lon="9.644184">
        <ele>683.228796</ele>
        <time>2025-11-11T22:03:59.212Z</time>
      </trkpt>
      <trkpt lat="48.565562" lon="9.643872">
        <ele>684.418214</ele>
        <time>2025-11-11T22:04:06.242Z</time>
      </trkpt>
      <trkpt lat="48.565614" lon="9.643607">
        <ele>685.466524</ele>
        <time>2025-11-11T22:04:11.814Z</time>
      </trkpt>
      <trkpt lat="48.565847" lon="9.642821">
        <ele>688.718601</ele>
        <time>2025-11-11T22:04:26.907Z</time>
      </trkpt>
      <trkpt lat="48.565947" lon="9.642393">
        <ele>690.295784</ele>
        <time>2025-11-11T22:04:34.891Z</time>
      </trkpt>
      <trkpt lat="48.565992" lon="9.641997">
        <ele>691.691938</ele>
        <time>2025-11-11T22:04:43.269Z</time>
      </trkpt>
      <trkpt lat="48.566001" lon="9.641663">
        <ele>692.853477</ele>
        <time>2025-11-11T22:04:51.546Z</time>
      </trkpt>
      <trkpt lat="48.565974" lon="9.641378">
        <ele>693.853887</ele>
        <time>2025-11-11T22:04:59.668Z</time>
      </trkpt>
      <trkpt lat="48.565846" lon="9.640636">
        <ele>696.518343</ele>
        <time>2025-11-11T22:05:25.395Z</time>
      </trkpt>
      <trkpt lat="48.565551" lon="9.639264">
        <ele>702.723233</ele>
        <time>2025-11-11T22:06:16.461Z</time>
      </trkpt>
      <trkpt lat="48.565385" lon="9.638063">
        <ele>708.428255</ele>
        <time>2025-11-11T22:06:53.854Z</time>
      </trkpt>
      <trkpt lat="48.565373" lon="9.637834">
        <ele>709.496414</ele>
        <time>2025-11-11T22:07:00.575Z</time>
      </trkpt>
      <trkpt lat="48.565341" lon="9.637790">
        <ele>709.800414</ele>
        <time>2025-11-11T22:07:02.412Z</time>
      </trkpt>
      <trkpt lat="48.565306" lon="9.637805">
        <ele>710.056041</ele>
        <time>2025-11-11T22:07:04.047Z</time>
      </trkpt>
      <trkpt lat="48.565283" lon="9.637896">
        <ele>710.508994</ele>
        <time>2025-11-11T22:07:06.892Z</time>
      </trkpt>
      <trkpt lat="48.565356" lon="9.638413">
        <ele>712.976928</ele>
        <time>2025-11-11T22:07:22.444Z</time>
      </trkpt>
      <trkpt lat="48.565387" lon="9.639030">
        <ele>715.866336</ele>
        <time>2025-11-11T22:07:41.725Z</time>
      </trkpt>
      <trkpt lat="48.565412" lon="9.640026">
        <ele>720.520556</ele>
        <time>2025-11-11T22:08:14.279Z</time>
      </trkpt>
      <trkpt lat="48.565409" lon="9.641034">
        <ele>725.961976</ele>
        <time>2025-11-11T22:08:47.678Z</time>
      </trkpt>
      <trkpt lat="48.565377" lon="9.641515">
        <ele>729.095705</ele>
        <time>2025-11-11T22:09:05.821Z</time>
      </trkpt>
      <trkpt lat="48.565248" lon="9.642116">
        <ele>733.191410</ele>
        <time>2025-11-11T22:09:32.323Z</time>
      </trkpt>
      <trkpt lat="48.564868" lon="9.642990">
        <ele>739.970406</ele>
        <time>2025-11-11T22:10:18.072Z</time>
      </trkpt>
      <trkpt lat="48.564743" lon="9.643328">
        <ele>741.650533</ele>
        <time>2025-11-11T22:10:34.117Z</time>
      </trkpt>
      <trkpt lat="48.564581" lon="9.643914">
        <ele>743.528673</ele>
        <time>2025-11-11T22:10:57.578Z</time>
      </trkpt>
      <trkpt lat="48.564543" lon="9.644275">
        <ele>744.609699</ele>
        <time>2025-11-11T22:11:08.410Z</time>
      </trkpt>
      <trkpt lat="48.564582" lon="9.645450">
        <ele>748.088959</ele>
        <time>2025-11-11T22:11:29.362Z</time>
      </trkpt>
      <trkpt lat="48.564567" lon="9.646110">
        <ele>749.324730</ele>
        <time>2025-11-11T22:11:36.562Z</time>
      </trkpt>
      <trkpt lat="48.564465" lon="9.647008">
        <ele>750.178375</ele>
        <time>2025-11-11T22:11:47.865Z</time>
      </trkpt>
      <trkpt lat="48.564308" lon="9.647791">
        <ele>750.944909</ele>
        <time>2025-11-11T22:12:02.404Z</time>
      </trkpt>
      <trkpt lat="48.564208" lon="9.648091">
        <ele>751.259625</ele>
        <time>2025-11-11T22:12:08.365Z</time>
      </trkpt>
      <trkpt lat="48.563466" lon="9.649928">
        <ele>757.366765</ele>
        <time>2025-11-11T22:12:57.626Z</time>
      </trkpt>
      <trkpt lat="48.562474" lon="9.650638">
        <ele>761.513132</ele>
        <time>2025-11-11T22:13:36.227Z</time>
      </trkpt>
      <trkpt lat="48.562267" lon="9.650711">
        <ele>762.091823</ele>
        <time>2025-11-11T22:13:42.886Z</time>
      </trkpt>
      <trkpt lat="48.561967" lon="9.650935">
        <ele>763.002832</ele>
        <time>2025-11-11T22:13:52.367Z</time>
      </trkpt>
      <trkpt lat="48.561424" lon="9.651341">
        <ele>764.652208</ele>
        <time>2025-11-11T22:14:07.663Z</time>
      </trkpt>
      <trkpt lat="48.561077" lon="9.651672">
        <ele>764.145899</ele>
        <time>2025-11-11T22:14:14.880Z</time>
      </trkpt>
      <trkpt lat="48.560918" lon="9.651830">
        <ele>763.602251</ele>
        <time>2025-11-11T22:14:17.943Z</time>
      </trkpt>
      <trkpt lat="48.560820" lon="9.651878">
        <ele>763.307948</ele>
        <time>2025-11-11T22:14:19.567Z</time>
      </trkpt>
      <trkpt lat="48.560600" lon="9.651969">
        <ele>762.656341</ele>
        <time>2025-11-11T22:14:23.008Z</time>
      </trkpt>
      <trkpt lat="48.559753" lon="9.652302">
        <ele>760.156111</ele>
        <time>2025-11-11T22:14:35.230Z</time>
      </trkpt>
      <trkpt lat="48.559277" lon="9.652551">
        <ele>757.937881</ele>
        <time>2025-11-11T22:14:42.099Z</time>
      </trkpt>
      <trkpt lat="48.558594" lon="9.652742">
        <ele>754.575271</ele>
        <time>2025-11-11T22:14:51.468Z</time>
      </trkpt>
      <trkpt lat="48.557781" lon="9.653034">
        <ele>750.474703</ele>
        <time>2025-11-11T22:15:02.799Z</time>
      </trkpt>
      <trkpt lat="48.557274" lon="9.653131">
        <ele>747.774146</ele>
        <time>2025-11-11T22:15:09.785Z</time>
      </trkpt>
      <trkpt lat="48.556303" lon="9.653184">
        <ele>742.639701</ele>
        <time>2025-11-11T22:15:22.745Z</time>
      </trkpt>
      <trkpt lat="48.555761" lon="9.653115">
        <ele>739.934753</ele>
        <time>2025-11-11T22:15:29.884Z</time>
      </trkpt>
      <trkpt lat="48.555203" lon="9.653188">
        <ele>737.244264</ele>
        <time>2025-11-11T22:15:37.307Z</time>
      </trkpt>
      <trkpt lat="48.553540" lon="9.652784">
        <ele>731.159785</ele>
        <time>2025-11-11T22:16:01.106Z</time>
      </trkpt>
      <trkpt lat="48.553405" lon="9.653822">
        <ele>729.556808</ele>
        <time>2025-11-11T22:16:09.168Z</time>
      </trkpt>
      <trkpt lat="48.553399" lon="9.654236">
        <ele>728.929314</ele>
        <time>2025-11-11T22:16:12.603Z</time>
      </trkpt>
      <trkpt lat="48.553440" lon="9.654556">
        <ele>729.076240</ele>
        <time>2025-11-11T22:16:15.410Z</time>
      </trkpt>
      <trkpt lat="48.553515" lon="9.654884">
        <ele>729.327223</ele>
        <time>2025-11-11T22:16:18.569Z</time>
      </trkpt>
      <trkpt lat="48.553656" lon="9.655270">
        <ele>729.646088</ele>
        <time>2025-11-11T22:16:23.505Z</time>
      </trkpt>
      <trkpt lat="48.554052" lon="9.656006">
        <ele>730.332075</ele>
        <time>2025-11-11T22:16:37.312Z</time>
      </trkpt>
      <trkpt lat="48.554141" lon="9.656237">
        <ele>730.525386</ele>
        <time>2025-11-11T22:16:41.665Z</time>
      </trkpt>
      <trkpt lat="48.554176" lon="9.656424">
        <ele>730.665936</ele>
        <time>2025-11-11T22:16:45.495Z</time>
      </trkpt>
      <trkpt lat="48.554180" lon="9.656593">
        <ele>730.788242</ele>
        <time>2025-11-11T22:16:48.795Z</time>
      </trkpt>
      <trkpt lat="48.554104" lon="9.657167">
        <ele>731.947251</ele>
        <time>2025-11-11T22:16:57.749Z</time>
      </trkpt>
      <trkpt lat="48.554151" lon="9.657566">
        <ele>732.812140</ele>
        <time>2025-11-11T22:17:04.442Z</time>
      </trkpt>
      <trkpt lat="48.554246" lon="9.657870">
        <ele>733.529578</ele>
        <time>2025-11-11T22:17:10.683Z</time>
      </trkpt>
      <trkpt lat="48.554446" lon="9.658543">
        <ele>735.103943</ele>
        <time>2025-11-11T22:17:25.479Z</time>
      </trkpt>
      <trkpt lat="48.554461" lon="9.658745">
        <ele>735.537736</ele>
        <time>2025-11-11T22:17:29.626Z</time>
      </trkpt>
      <trkpt lat="48.554404" lon="9.659232">
        <ele>736.593165</ele>
        <time>2025-11-11T22:17:39.225Z</time>
      </trkpt>
      <trkpt lat="48.554266" lon="9.659959">
        <ele>738.382059</ele>
        <time>2025-11-11T22:17:53.901Z</time>
      </trkpt>
      <trkpt lat="48.554262" lon="9.660314">
        <ele>739.223977</ele>
        <time>2025-11-11T22:18:01.481Z</time>
      </trkpt>
      <trkpt lat="48.554316" lon="9.661096">
        <ele>741.088363</ele>
        <time>2025-11-11T22:18:18.864Z</time>
      </trkpt>
      <trkpt lat="48.554446" lon="9.663388">
        <ele>743.806813</ele>
        <time>2025-11-11T22:18:56.043Z</time>
      </trkpt>
      <trkpt lat="48.554398" lon="9.664501">
        <ele>744.363588</ele>
        <time>2025-11-11T22:19:05.355Z</time>
      </trkpt>
      <trkpt lat="48.554419" lon="9.664823">
        <ele>744.228903</ele>
        <time>2025-11-11T22:19:07.725Z</time>
      </trkpt>
      <trkpt lat="48.554516" lon="9.665422">
        <ele>743.539972</ele>
        <time>2025-11-11T22:19:12.080Z</time>
      </trkpt>
      <trkpt lat="48.554536" lon="9.665530">
        <ele>743.414683</ele>
        <time>2025-11-11T22:19:12.862Z</time>
      </trkpt>
      <trkpt lat="48.554767" lon="9.666232">
        <ele>742.538851</ele>
        <time>2025-11-11T22:19:18.389Z</time>
      </trkpt>
      <trkpt lat="48.555698" lon="9.668193">
        <ele>740.961677</ele>
        <time>2025-11-11T22:19:37.735Z</time>
      </trkpt>
      <trkpt lat="48.555965" lon="9.668982">
        <ele>740.684017</ele>
        <time>2025-11-11T22:19:46.414Z</time>
      </trkpt>
      <trkpt lat="48.556079" lon="9.669597">
        <ele>740.594444</ele>
        <time>2025-11-11T22:19:53.155Z</time>
      </trkpt>
      <trkpt lat="48.556217" lon="9.670928">
        <ele>740.919503</ele>
        <time>2025-11-11T22:20:08.536Z</time>
      </trkpt>
      <trkpt lat="48.556218" lon="9.670931">
        <ele>740.920314</ele>
        <time>2025-11-11T22:20:08.570Z</time>
      </trkpt>
      <trkpt lat="48.556739" lon="9.672370">
        <ele>741.259321</ele>
        <time>2025-11-11T22:20:25.721Z</time>
      </trkpt>
      <trkpt lat="48.556940" lon="9.673216">
        <ele>741.368290</ele>
        <time>2025-11-11T22:20:35.119Z</time>
      </trkpt>
      <trkpt lat="48.557046" lon="9.674114">
        <ele>741.478872</ele>
        <time>2025-11-11T22:20:44.999Z</time>
      </trkpt>
      <trkpt lat="48.557052" lon="9.674669">
        <ele>741.441943</ele>
        <time>2025-11-11T22:20:50.463Z</time>
      </trkpt>
      <trkpt lat="48.557088" lon="9.675153">
        <ele>741.082419</ele>
        <time>2025-11-11T22:20:54.911Z</time>
      </trkpt>
      <trkpt lat="48.557064" lon="9.675354">
        <ele>740.931651</ele>
        <time>2025-11-11T22:20:56.667Z</time>
      </trkpt>
      <trkpt lat="48.557186" lon="9.676607">
        <ele>739.996768</ele>
        <time>2025-11-11T22:21:06.234Z</time>
      </trkpt>
      <trkpt lat="48.557229" lon="9.677395">
        <ele>739.589207</ele>
        <time>2025-11-11T22:21:11.986Z</time>
      </trkpt>
      <trkpt lat="48.557226" lon="9.677849">
        <ele>739.779303</ele>
        <time>2025-11-11T22:21:15.605Z</time>
      </trkpt>
      <trkpt lat="48.557276" lon="9.678095">
        <ele>739.887048</ele>
        <time>2025-11-11T22:21:17.936Z</time>
      </trkpt>
      <trkpt lat="48.557340" lon="9.678218">
        <ele>739.952556</ele>
        <time>2025-11-11T22:21:19.406Z</time>
      </trkpt>
      <trkpt lat="48.557206" lon="9.678442">
        <ele>740.078973</ele>
        <time>2025-11-11T22:21:22.597Z</time>
      </trkpt>
      <trkpt lat="48.557072" lon="9.678656">
        <ele>740.202317</ele>
        <time>2025-11-11T22:21:25.984Z</time>
      </trkpt>
      <trkpt lat="48.556784" lon="9.679232">
        <ele>740.504564</ele>
        <time>2025-11-11T22:21:36.312Z</time>
      </trkpt>
      <trkpt lat="48.556747" lon="9.679362">
        <ele>740.563813</ele>
        <time>2025-11-11T22:21:38.736Z</time>
      </trkpt>
      <trkpt lat="48.556584" lon="9.680106">
        <ele>741.654446</ele>
        <time>2025-11-11T22:21:52.863Z</time>
      </trkpt>
      <trkpt lat="48.555767" lon="9.681417">
        <ele>744.922377</ele>
        <time>2025-11-11T22:22:25.878Z</time>
      </trkpt>
      <trkpt lat="48.555542" lon="9.681700">
        <ele>745.579349</ele>
        <time>2025-11-11T22:22:33.039Z</time>
      </trkpt>
      <trkpt lat="48.555197" lon="9.681984">
        <ele>745.449095</ele>
        <time>2025-11-11T22:22:41.447Z</time>
      </trkpt>
      <trkpt lat="48.554256" lon="9.682737">
        <ele>745.096067</ele>
        <time>2025-11-11T22:22:55.267Z</time>
      </trkpt>
      <trkpt lat="48.553312" lon="9.683757">
        <ele>742.536078</ele>
        <time>2025-11-11T22:23:07.236Z</time>
      </trkpt>
      <trkpt lat="48.552680" lon="9.684656">
        <ele>740.070683</ele>
        <time>2025-11-11T22:23:16.062Z</time>
      </trkpt>
      <trkpt lat="48.551796" lon="9.685863">
        <ele>736.996261</ele>
        <time>2025-11-11T22:23:28.426Z</time>
      </trkpt>
      <trkpt lat="48.551214" lon="9.686653">
        <ele>735.111538</ele>
        <time>2025-11-11T22:23:36.837Z</time>
      </trkpt>
      <trkpt lat="48.550634" lon="9.687586">
        <ele>733.866710</ele>
        <time>2025-11-11T22:23:46.473Z</time>
      </trkpt>
      <trkpt lat="48.550069" lon="9.688678">
        <ele>732.614936</ele>
        <time>2025-11-11T22:23:57.393Z</time>
      </trkpt>
      <trkpt lat="48.549738" lon="9.689436">
        <ele>732.473857</ele>
        <time>2025-11-11T22:24:05.265Z</time>
      </trkpt>
      <trkpt lat="48.548598" lon="9.691947">
        <ele>732.494595</ele>
        <time>2025-11-11T22:24:36.117Z</time>
      </trkpt>
      <trkpt lat="48.548427" lon="9.692216">
        <ele>732.572711</ele>
        <time>2025-11-11T22:24:40.150Z</time>
      </trkpt>
      <trkpt lat="48.548207" lon="9.692466">
        <ele>732.659818</ele>
        <time>2025-11-11T22:24:44.674Z</time>
      </trkpt>
      <trkpt lat="48.547502" lon="9.692965">
        <ele>733.190164</ele>
        <time>2025-11-11T22:24:57.958Z</time>
      </trkpt>
      <trkpt lat="48.546930" lon="9.693079">
        <ele>733.784328</ele>
        <time>2025-11-11T22:25:08.461Z</time>
      </trkpt>
      <trkpt lat="48.544756" lon="9.693383">
        <ele>736.708209</ele>
        <time>2025-11-11T22:25:53.003Z</time>
      </trkpt>
      <trkpt lat="48.541605" lon="9.693847">
        <ele>741.919246</ele>
        <time>2025-11-11T22:27:04.404Z</time>
      </trkpt>
      <trkpt lat="48.540496" lon="9.694175">
        <ele>742.652159</ele>
        <time>2025-11-11T22:27:24.003Z</time>
      </trkpt>
      <trkpt lat="48.539895" lon="9.694394">
        <ele>741.924496</ele>
        <time>2025-11-11T22:27:31.567Z</time>
      </trkpt>
      <trkpt lat="48.539452" lon="9.694606">
        <ele>741.377544</ele>
        <time>2025-11-11T22:27:36.748Z</time>
      </trkpt>
      <trkpt lat="48.538120" lon="9.695513">
        <ele>738.905174</ele>
        <time>2025-11-11T22:27:52.456Z</time>
      </trkpt>
      <trkpt lat="48.537162" lon="9.696395">
        <ele>737.063584</ele>
        <time>2025-11-11T22:28:05.261Z</time>
      </trkpt>
      <trkpt lat="48.536968" lon="9.696604">
        <ele>736.836101</ele>
        <time>2025-11-11T22:28:08.168Z</time>
      </trkpt>
      <trkpt lat="48.536168" lon="9.697468">
        <ele>735.897233</ele>
        <time>2025-11-11T22:28:20.617Z</time>
      </trkpt>
      <trkpt lat="48.535081" lon="9.698571">
        <ele>734.993959</ele>
        <time>2025-11-11T22:28:37.659Z</time>
      </trkpt>
      <trkpt lat="48.534386" lon="9.699098">
        <ele>734.541571</ele>
        <time>2025-11-11T22:28:47.595Z</time>
      </trkpt>
      <trkpt lat="48.534331" lon="9.699151">
        <ele>734.558594</ele>
        <time>2025-11-11T22:28:48.453Z</time>
      </trkpt>
      <trkpt lat="48.534094" lon="9.699453">
        <ele>734.639503</ele>
        <time>2025-11-11T22:28:52.557Z</time>
      </trkpt>
      <trkpt lat="48.533966" lon="9.699664">
        <ele>734.688944</ele>
        <time>2025-11-11T22:28:55.175Z</time>
      </trkpt>
      <trkpt lat="48.533847" lon="9.699903">
        <ele>734.740608</ele>
        <time>2025-11-11T22:28:57.998Z</time>
      </trkpt>
      <trkpt lat="48.533788" lon="9.700075">
        <ele>734.774076</ele>
        <time>2025-11-11T22:28:59.914Z</time>
      </trkpt>
      <trkpt lat="48.533658" lon="9.700515">
        <ele>734.857320</ele>
        <time>2025-11-11T22:29:04.843Z</time>
      </trkpt>
      <trkpt lat="48.533434" lon="9.702200">
        <ele>736.433362</ele>
        <time>2025-11-11T22:29:27.781Z</time>
      </trkpt>
      <trkpt lat="48.533385" lon="9.702789">
        <ele>737.388352</ele>
        <time>2025-11-11T22:29:37.536Z</time>
      </trkpt>
      <trkpt lat="48.533353" lon="9.703964">
        <ele>739.280208</ele>
        <time>2025-11-11T22:29:58.071Z</time>
      </trkpt>
      <trkpt lat="48.533305" lon="9.704461">
        <ele>740.847879</ele>
        <time>2025-11-11T22:30:08.050Z</time>
      </trkpt>
      <trkpt lat="48.533192" lon="9.704964">
        <ele>742.606240</ele>
        <time>2025-11-11T22:30:19.476Z</time>
      </trkpt>
      <trkpt lat="48.533044" lon="9.705410">
        <ele>744.257709</ele>
        <time>2025-11-11T22:30:31.049Z</time>
      </trkpt>
      <trkpt lat="48.532335" lon="9.706902">
        <ele>749.996125</ele>
        <time>2025-11-11T22:31:18.702Z</time>
      </trkpt>
      <trkpt lat="48.532061" lon="9.707470">
        <ele>751.920914</ele>
        <time>2025-11-11T22:31:35.722Z</time>
      </trkpt>
      <trkpt lat="48.531701" lon="9.708051">
        <ele>754.100300</ele>
        <time>2025-11-11T22:31:51.742Z</time>
      </trkpt>
      <trkpt lat="48.531395" lon="9.708545">
        <ele>755.782100</ele>
        <time>2025-11-11T22:32:02.562Z</time>
      </trkpt>
      <trkpt lat="48.530946" lon="9.709400">
        <ele>755.399637</ele>
        <time>2025-11-11T22:32:13.980Z</time>
      </trkpt>
      <trkpt lat="48.530753" lon="9.709903">
        <ele>755.195883</ele>
        <time>2025-11-11T22:32:18.451Z</time>
      </trkpt>
      <trkpt lat="48.530563" lon="9.710604">
        <ele>754.930402</ele>
        <time>2025-11-11T22:32:24.079Z</time>
      </trkpt>
      <trkpt lat="48.530479" lon="9.711125">
        <ele>754.426254</ele>
        <time>2025-11-11T22:32:27.981Z</time>
      </trkpt>
      <trkpt lat="48.530415" lon="9.711994">
        <ele>753.214671</ele>
        <time>2025-11-11T22:32:34.304Z</time>
      </trkpt>
      <trkpt lat="48.530428" lon="9.712659">
        <ele>752.292790</ele>
        <time>2025-11-11T22:32:39.117Z</time>
      </trkpt>
      <trkpt lat="48.530450" lon="9.713792">
        <ele>750.571097</ele>
        <time>2025-11-11T22:32:47.249Z</time>
      </trkpt>
      <trkpt lat="48.530421" lon="9.714387">
        <ele>749.401132</ele>
        <time>2025-11-11T22:32:51.407Z</time>
      </trkpt>
      <trkpt lat="48.530402" lon="9.714703">
        <ele>748.778898</ele>
        <time>2025-11-11T22:32:53.573Z</time>
      </trkpt>
      <trkpt lat="48.530278" lon="9.716167">
        <ele>745.884565</ele>
        <time>2025-11-11T22:33:03.467Z</time>
      </trkpt>
      <trkpt lat="48.530226" lon="9.716572">
        <ele>744.813398</ele>
        <time>2025-11-11T22:33:06.200Z</time>
      </trkpt>
      <trkpt lat="48.530082" lon="9.717275">
        <ele>742.817312</ele>
        <time>2025-11-11T22:33:11.053Z</time>
      </trkpt>
      <trkpt lat="48.529552" lon="9.718634">
        <ele>738.539135</ele>
        <time>2025-11-11T22:33:21.117Z</time>
      </trkpt>
      <trkpt lat="48.529299" lon="9.719345">
        <ele>735.600102</ele>
        <time>2025-11-11T22:33:26.119Z</time>
      </trkpt>
      <trkpt lat="48.529054" lon="9.720055">
        <ele>732.631321</ele>
        <time>2025-11-11T22:33:31.003Z</time>
      </trkpt>
      <trkpt lat="48.528498" lon="9.722424">
        <ele>723.745837</ele>
        <time>2025-11-11T22:33:46.293Z</time>
      </trkpt>
      <trkpt lat="48.528256" lon="9.723313">
        <ele>720.490810</ele>
        <time>2025-11-11T22:33:52.340Z</time>
      </trkpt>
      <trkpt lat="48.527989" lon="9.724035">
        <ele>718.262813</ele>
        <time>2025-11-11T22:33:57.734Z</time>
      </trkpt>
      <trkpt lat="48.527487" lon="9.725257">
        <ele>715.338802</ele>
        <time>2025-11-11T22:34:07.509Z</time>
      </trkpt>
      <trkpt lat="48.527211" lon="9.725967">
        <ele>713.664760</ele>
        <time>2025-11-11T22:34:13.227Z</time>
      </trkpt>
      <trkpt lat="48.526512" lon="9.727755">
        <ele>710.778405</ele>
        <time>2025-11-11T22:34:27.889Z</time>
      </trkpt>
      <trkpt lat="48.526277" lon="9.728228">
        <ele>709.962271</ele>
        <time>2025-11-11T22:34:32.328Z</time>
      </trkpt>
      <trkpt lat="48.525995" lon="9.728647">
        <ele>710.023041</ele>
        <time>2025-11-11T22:34:37.145Z</time>
      </trkpt>
      <trkpt lat="48.525677" lon="9.728992">
        <ele>710.218432</ele>
        <time>2025-11-11T22:34:42.482Z</time>
      </trkpt>
      <trkpt lat="48.525265" lon="9.729321">
        <ele>710.450996</ele>
        <time>2025-11-11T22:34:50.483Z</time>
      </trkpt>
      <trkpt lat="48.524679" lon="9.729734">
        <ele>710.885316</ele>
        <time>2025-11-11T22:35:04.899Z</time>
      </trkpt>
      <trkpt lat="48.524573" lon="9.729805">
        <ele>711.210467</ele>
        <time>2025-11-11T22:35:07.808Z</time>
      </trkpt>
      <trkpt lat="48.524416" lon="9.729935">
        <ele>711.712537</ele>
        <time>2025-11-11T22:35:12.419Z</time>
      </trkpt>
      <trkpt lat="48.524032" lon="9.730279">
        <ele>712.964500</ele>
        <time>2025-11-11T22:35:24.642Z</time>
      </trkpt>
      <trkpt lat="48.523777" lon="9.730617">
        <ele>713.915934</ele>
        <time>2025-11-11T22:35:34.464Z</time>
      </trkpt>
      <trkpt lat="48.522901" lon="9.732005">
        <ele>716.838749</ele>
        <time>2025-11-11T22:36:07.234Z</time>
      </trkpt>
      <trkpt lat="48.522834" lon="9.732116">
        <ele>717.012011</ele>
        <time>2025-11-11T22:36:09.298Z</time>
      </trkpt>
      <trkpt lat="48.522288" lon="9.732989">
        <ele>718.397271</ele>
        <time>2025-11-11T22:36:24.941Z</time>
      </trkpt>
      <trkpt lat="48.521874" lon="9.733578">
        <ele>719.071653</ele>
        <time>2025-11-11T22:36:35.679Z</time>
      </trkpt>
      <trkpt lat="48.521422" lon="9.734034">
        <ele>719.370310</ele>
        <time>2025-11-11T22:36:46.669Z</time>
      </trkpt>
      <trkpt lat="48.521164" lon="9.734363">
        <ele>719.555843</ele>
        <time>2025-11-11T22:36:53.373Z</time>
      </trkpt>
      <trkpt lat="48.520556" lon="9.735289">
        <ele>719.306683</ele>
        <time>2025-11-11T22:37:06.184Z</time>
      </trkpt>
      <trkpt lat="48.519935" lon="9.736112">
        <ele>716.936235</ele>
        <time>2025-11-11T22:37:14.767Z</time>
      </trkpt>
      <trkpt lat="48.519753" lon="9.736341">
        <ele>716.256583</ele>
        <time>2025-11-11T22:37:17.072Z</time>
      </trkpt>
      <trkpt lat="48.519307" lon="9.736813">
        <ele>714.687402</ele>
        <time>2025-11-11T22:37:22.274Z</time>
      </trkpt>
      <trkpt lat="48.518694" lon="9.737364">
        <ele>712.412456</ele>
        <time>2025-11-11T22:37:29.185Z</time>
      </trkpt>
      <trkpt lat="48.517718" lon="9.738261">
        <ele>708.905214</ele>
        <time>2025-11-11T22:37:41.167Z</time>
      </trkpt>
      <trkpt lat="48.517586" lon="9.738450">
        <ele>708.641642</ele>
        <time>2025-11-11T22:37:43.243Z</time>
      </trkpt>
      <trkpt lat="48.517497" lon="9.738683">
        <ele>708.383526</ele>
        <time>2025-11-11T22:37:45.302Z</time>
      </trkpt>
      <trkpt lat="48.517130" lon="9.739777">
        <ele>707.206687</ele>
        <time>2025-11-11T22:37:55.026Z</time>
      </trkpt>
      <trkpt lat="48.516919" lon="9.740488">
        <ele>706.459010</ele>
        <time>2025-11-11T22:38:01.286Z</time>
      </trkpt>
      <trkpt lat="48.516565" lon="9.741944">
        <ele>704.935697</ele>
        <time>2025-11-11T22:38:13.225Z</time>
      </trkpt>
      <trkpt lat="48.516448" lon="9.742321">
        <ele>704.526497</ele>
        <time>2025-11-11T22:38:16.368Z</time>
      </trkpt>
      <trkpt lat="48.516340" lon="9.742577">
        <ele>704.228181</ele>
        <time>2025-11-11T22:38:18.643Z</time>
      </trkpt>
      <trkpt lat="48.515780" lon="9.743818">
        <ele>703.118037</ele>
        <time>2025-11-11T22:38:29.914Z</time>
      </trkpt>
      <trkpt lat="48.515387" lon="9.744675">
        <ele>702.471372</ele>
        <time>2025-11-11T22:38:38.236Z</time>
      </trkpt>
      <trkpt lat="48.515448" lon="9.744732">
        <ele>702.404181</ele>
        <time>2025-11-11T22:38:39.196Z</time>
      </trkpt>
      <trkpt lat="48.515444" lon="9.744893">
        <ele>702.304225</ele>
        <time>2025-11-11T22:38:40.640Z</time>
      </trkpt>
      <trkpt lat="48.515501" lon="9.745034">
        <ele>702.201744</ele>
        <time>2025-11-11T22:38:42.193Z</time>
      </trkpt>
      <trkpt lat="48.515490" lon="9.745145">
        <ele>702.132112</ele>
        <time>2025-11-11T22:38:43.293Z</time>
      </trkpt>
      <trkpt lat="48.515562" lon="9.745169">
        <ele>702.063053</ele>
        <time>2025-11-11T22:38:44.411Z</time>
      </trkpt>
      <trkpt lat="48.515622" lon="9.745192">
        <ele>702.119186</ele>
        <time>2025-11-11T22:38:45.376Z</time>
      </trkpt>
      <trkpt lat="48.515633" lon="9.745285">
        <ele>702.183558</ele>
        <time>2025-11-11T22:38:46.383Z</time>
      </trkpt>
      <trkpt lat="48.515691" lon="9.745364">
        <ele>702.263914</ele>
        <time>2025-11-11T22:38:47.664Z</time>
      </trkpt>
      <trkpt lat="48.515821" lon="9.745325">
        <ele>702.400252</ele>
        <time>2025-11-11T22:38:49.945Z</time>
      </trkpt>
      <trkpt lat="48.515822" lon="9.745325">
        <ele>702.401281</ele>
        <time>2025-11-11T22:38:49.959Z</time>
      </trkpt>
      <trkpt lat="48.517699" lon="9.745861">
        <ele>704.140859</ele>
        <time>2025-11-11T22:39:28.809Z</time>
      </trkpt>
      <trkpt lat="48.518010" lon="9.745920">
        <ele>704.304124</ele>
        <time>2025-11-11T22:39:34.074Z</time>
      </trkpt>
      <trkpt lat="48.518014" lon="9.745920">
        <ele>704.306207</ele>
        <time>2025-11-11T22:39:34.139Z</time>
      </trkpt>
      <trkpt lat="48.518283" lon="9.745918">
        <ele>704.446324</ele>
        <time>2025-11-11T22:39:38.283Z</time>
      </trkpt>
      <trkpt lat="48.518416" lon="9.745883">
        <ele>704.516644</ele>
        <time>2025-11-11T22:39:40.248Z</time>
      </trkpt>
      <trkpt lat="48.518461" lon="9.745997">
        <ele>704.562430</ele>
        <time>2025-11-11T22:39:41.562Z</time>
      </trkpt>
      <trkpt lat="48.518625" lon="9.746171">
        <ele>704.666838</ele>
        <time>2025-11-11T22:39:44.542Z</time>
      </trkpt>
      <trkpt lat="48.519327" lon="9.746580">
        <ele>704.845181</ele>
        <time>2025-11-11T22:39:56.177Z</time>
      </trkpt>
      <trkpt lat="48.519603" lon="9.746735">
        <ele>704.844241</ele>
        <time>2025-11-11T22:40:00.692Z</time>
      </trkpt>
      <trkpt lat="48.519655" lon="9.746768">
        <ele>704.844061</ele>
        <time>2025-11-11T22:40:01.571Z</time>
      </trkpt>
      <trkpt lat="48.519725" lon="9.746814">
        <ele>704.843817</ele>
        <time>2025-11-11T22:40:02.755Z</time>
      </trkpt>
      <trkpt lat="48.520117" lon="9.747059">
        <ele>704.842462</ele>
        <time>2025-11-11T22:40:09.074Z</time>
      </trkpt>
      <trkpt lat="48.520468" lon="9.747264">
        <ele>704.841261</ele>
        <time>2025-11-11T22:40:14.729Z</time>
      </trkpt>
      <trkpt lat="48.520719" lon="9.747491">
        <ele>704.786047</ele>
        <time>2025-11-11T22:40:18.905Z</time>
      </trkpt>
      <trkpt lat="48.521028" lon="9.747876">
        <ele>704.616648</ele>
        <time>2025-11-11T22:40:24.277Z</time>
      </trkpt>
      <trkpt lat="48.522038" lon="9.749127">
        <ele>704.030415</ele>
        <time>2025-11-11T22:40:42.003Z</time>
      </trkpt>
      <trkpt lat="48.522229" lon="9.749234">
        <ele>703.761477</ele>
        <time>2025-11-11T22:40:44.676Z</time>
      </trkpt>
      <trkpt lat="48.521731" lon="9.756313">
        <ele>698.083296</ele>
        <time>2025-11-11T22:41:39.424Z</time>
      </trkpt>
      <trkpt lat="48.525793" lon="9.756417">
        <ele>698.451698</ele>
        <time>2025-11-11T22:43:07.713Z</time>
      </trkpt>
      <trkpt lat="48.526070" lon="9.756362">
        <ele>697.879918</ele>
        <time>2025-11-11T22:43:12.367Z</time>
      </trkpt>
      <trkpt lat="48.526786" lon="9.756077">
        <ele>696.364515</ele>
        <time>2025-11-11T22:43:23.712Z</time>
      </trkpt>
      <trkpt lat="48.527473" lon="9.755890">
        <ele>694.935860</ele>
        <time>2025-11-11T22:43:33.961Z</time>
      </trkpt>
      <trkpt lat="48.529195" lon="9.754939">
        <ele>691.889516</ele>
        <time>2025-11-11T22:44:03.173Z</time>
      </trkpt>
      <trkpt lat="48.529747" lon="9.754642">
        <ele>692.697652</ele>
        <time>2025-11-11T22:44:16.383Z</time>
      </trkpt>
      <trkpt lat="48.529821" lon="9.754639">
        <ele>692.807648</ele>
        <time>2025-11-11T22:44:18.275Z</time>
      </trkpt>
      <trkpt lat="48.529894" lon="9.754773">
        <ele>692.978388</ele>
        <time>2025-11-11T22:44:21.313Z</time>
      </trkpt>
      <trkpt lat="48.530605" lon="9.755728">
        <ele>694.392320</ele>
        <time>2025-11-11T22:44:50.086Z</time>
      </trkpt>
      <trkpt lat="48.530665" lon="9.755886">
        <ele>694.569979</ele>
        <time>2025-11-11T22:44:53.930Z</time>
      </trkpt>
      <trkpt lat="48.530708" lon="9.756099">
        <ele>694.781017</ele>
        <time>2025-11-11T22:44:58.530Z</time>
      </trkpt>
      <trkpt lat="48.530858" lon="9.757213">
        <ele>695.858391</ele>
        <time>2025-11-11T22:45:20.196Z</time>
      </trkpt>
      <trkpt lat="48.531376" lon="9.761370">
        <ele>697.791231</ele>
        <time>2025-11-11T22:46:22.026Z</time>
      </trkpt>
      <trkpt lat="48.531835" lon="9.765889">
        <ele>696.590794</ele>
        <time>2025-11-11T22:47:20.159Z</time>
      </trkpt>
      <trkpt lat="48.532968" lon="9.770519">
        <ele>691.734439</ele>
        <time>2025-11-11T22:48:13.120Z</time>
      </trkpt>
      <trkpt lat="48.535353" lon="9.775252">
        <ele>686.274237</ele>
        <time>2025-11-11T22:49:17.467Z</time>
      </trkpt>
      <trkpt lat="48.535764" lon="9.776093">
        <ele>686.105491</ele>
        <time>2025-11-11T22:49:32.313Z</time>
      </trkpt>
      <trkpt lat="48.537490" lon="9.779621">
        <ele>689.368583</ele>
        <time>2025-11-11T22:50:45.410Z</time>
      </trkpt>
      <trkpt lat="48.537732" lon="9.780246">
        <ele>690.028652</ele>
        <time>2025-11-11T22:50:57.425Z</time>
      </trkpt>
      <trkpt lat="48.537891" lon="9.780774">
        <ele>690.822340</ele>
        <time>2025-11-11T22:51:07.656Z</time>
      </trkpt>
      <trkpt lat="48.539810" lon="9.780664">
        <ele>694.182718</ele>
        <time>2025-11-11T22:52:04.796Z</time>
      </trkpt>
      <trkpt lat="48.540149" lon="9.782199">
        <ele>695.232651</ele>
        <time>2025-11-11T22:52:23.201Z</time>
      </trkpt>
      <trkpt lat="48.540356" lon="9.783002">
        <ele>695.162870</ele>
        <time>2025-11-11T22:52:30.566Z</time>
      </trkpt>
      <trkpt lat="48.540533" lon="9.783584">
        <ele>694.916721</ele>
        <time>2025-11-11T22:52:36.178Z</time>
      </trkpt>
      <trkpt lat="48.540654" lon="9.783991">
        <ele>694.745253</ele>
        <time>2025-11-11T22:52:40.145Z</time>
      </trkpt>
      <trkpt lat="48.540749" lon="9.784360">
        <ele>694.593092</ele>
        <time>2025-11-11T22:52:43.557Z</time>
      </trkpt>
      <trkpt lat="48.540811" lon="9.784683">
        <ele>694.463842</ele>
        <time>2025-11-11T22:52:46.379Z</time>
      </trkpt>
      <trkpt lat="48.540891" lon="9.785190">
        <ele>694.238228</ele>
        <time>2025-11-11T22:52:50.565Z</time>
      </trkpt>
      <trkpt lat="48.540966" lon="9.785729">
        <ele>693.966511</ele>
        <time>2025-11-11T22:52:54.809Z</time>
      </trkpt>
      <trkpt lat="48.541053" lon="9.786219">
        <ele>693.716236</ele>
        <time>2025-11-11T22:52:58.853Z</time>
      </trkpt>
      <trkpt lat="48.541084" lon="9.786366">
        <ele>693.640126</ele>
        <time>2025-11-11T22:53:00.136Z</time>
      </trkpt>
      <trkpt lat="48.541135" lon="9.786613">
        <ele>693.512485</ele>
        <time>2025-11-11T22:53:02.309Z</time>
      </trkpt>
      <trkpt lat="48.541212" lon="9.786999">
        <ele>693.313602</ele>
        <time>2025-11-11T22:53:05.769Z</time>
      </trkpt>
      <trkpt lat="48.541221" lon="9.787150">
        <ele>693.238808</ele>
        <time>2025-11-11T22:53:07.103Z</time>
      </trkpt>
      <trkpt lat="48.541204" lon="9.787281">
        <ele>693.172952</ele>
        <time>2025-11-11T22:53:08.310Z</time>
      </trkpt>
      <trkpt lat="48.541172" lon="9.787505">
        <ele>693.059902</ele>
        <time>2025-11-11T22:53:10.518Z</time>
      </trkpt>
      <trkpt lat="48.541147" lon="9.787678">
        <ele>692.965909</ele>
        <time>2025-11-11T22:53:12.329Z</time>
      </trkpt>
      <trkpt lat="48.541130" lon="9.787897">
        <ele>692.839071</ele>
        <time>2025-11-11T22:53:14.531Z</time>
      </trkpt>
      <trkpt lat="48.541082" lon="9.788490">
        <ele>692.495420</ele>
        <time>2025-11-11T22:53:20.654Z</time>
      </trkpt>
      <trkpt lat="48.541083" lon="9.788653">
        <ele>692.401653</ele>
        <time>2025-11-11T22:53:22.255Z</time>
      </trkpt>
      <trkpt lat="48.541084" lon="9.788769">
        <ele>692.334921</ele>
        <time>2025-11-11T22:53:23.438Z</time>
      </trkpt>
      <trkpt lat="48.541103" lon="9.789015">
        <ele>692.192455</ele>
        <time>2025-11-11T22:53:25.928Z</time>
      </trkpt>
      <trkpt lat="48.541128" lon="9.789203">
        <ele>692.082152</ele>
        <time>2025-11-11T22:53:27.762Z</time>
      </trkpt>
      <trkpt lat="48.541220" lon="9.789521">
        <ele>691.882528</ele>
        <time>2025-11-11T22:53:30.640Z</time>
      </trkpt>
      <trkpt lat="48.541352" lon="9.789927">
        <ele>691.622346</ele>
        <time>2025-11-11T22:53:33.862Z</time>
      </trkpt>
      <trkpt lat="48.541503" lon="9.790345">
        <ele>691.255179</ele>
        <time>2025-11-11T22:53:37.126Z</time>
      </trkpt>
      <trkpt lat="48.541724" lon="9.790775">
        <ele>690.654046</ele>
        <time>2025-11-11T22:53:40.843Z</time>
      </trkpt>
      <trkpt lat="48.541910" lon="9.791139">
        <ele>690.146282</ele>
        <time>2025-11-11T22:53:44.038Z</time>
      </trkpt>
      <trkpt lat="48.541885" lon="9.791221">
        <ele>690.046590</ele>
        <time>2025-11-11T22:53:44.676Z</time>
      </trkpt>
      <trkpt lat="48.541835" lon="9.791425">
        <ele>689.806372</ele>
        <time>2025-11-11T22:53:46.225Z</time>
      </trkpt>
      <trkpt lat="48.541900" lon="9.791485">
        <ele>689.679312</ele>
        <time>2025-11-11T22:53:47.052Z</time>
      </trkpt>
      <trkpt lat="48.541929" lon="9.791589">
        <ele>689.554694</ele>
        <time>2025-11-11T22:53:47.903Z</time>
      </trkpt>
      <trkpt lat="48.541929" lon="9.791784">
        <ele>689.339356</ele>
        <time>2025-11-11T22:53:49.402Z</time>
      </trkpt>
      <trkpt lat="48.541929" lon="9.791896">
        <ele>689.215674</ele>
        <time>2025-11-11T22:53:50.276Z</time>
      </trkpt>
      <trkpt lat="48.541928" lon="9.792441">
        <ele>688.613829</ele>
        <time>2025-11-11T22:53:54.829Z</time>
      </trkpt>
      <trkpt lat="48.541927" lon="9.792529">
        <ele>688.516637</ele>
        <time>2025-11-11T22:53:55.690Z</time>
      </trkpt>
      <trkpt lat="48.541957" lon="9.792952">
        <ele>688.480780</ele>
        <time>2025-11-11T22:54:00.573Z</time>
      </trkpt>
      <trkpt lat="48.541991" lon="9.793058">
        <ele>688.490781</ele>
        <time>2025-11-11T22:54:01.989Z</time>
      </trkpt>
      <trkpt lat="48.541998" lon="9.793078">
        <ele>688.492702</ele>
        <time>2025-11-11T22:54:02.249Z</time>
      </trkpt>
      <trkpt lat="48.542048" lon="9.793230">
        <ele>688.507114</ele>
        <time>2025-11-11T22:54:04.269Z</time>
      </trkpt>
      <trkpt lat="48.542178" lon="9.793438">
        <ele>688.531402</ele>
        <time>2025-11-11T22:54:07.288Z</time>
      </trkpt>
      <trkpt lat="48.542205" lon="9.793470">
        <ele>688.535803</ele>
        <time>2025-11-11T22:54:07.851Z</time>
      </trkpt>
      <trkpt lat="48.542326" lon="9.793610">
        <ele>688.555351</ele>
        <time>2025-11-11T22:54:10.479Z</time>
      </trkpt>
      <trkpt lat="48.542550" lon="9.793814">
        <ele>688.588897</ele>
        <time>2025-11-11T22:54:15.063Z</time>
      </trkpt>
      <trkpt lat="48.542683" lon="9.793902">
        <ele>688.607519</ele>
        <time>2025-11-11T22:54:17.523Z</time>
      </trkpt>
      <trkpt lat="48.543036" lon="9.793982">
        <ele>688.653298</ele>
        <time>2025-11-11T22:54:22.849Z</time>
      </trkpt>
      <trkpt lat="48.543167" lon="9.793965">
        <ele>688.670161</ele>
        <time>2025-11-11T22:54:24.580Z</time>
      </trkpt>
      <trkpt lat="48.543175" lon="9.794228">
        <ele>688.644362</ele>
        <time>2025-11-11T22:54:26.840Z</time>
      </trkpt>
      <trkpt lat="48.543402" lon="9.794510">
        <ele>688.531331</ele>
        <time>2025-11-11T22:54:32.227Z</time>
      </trkpt>
      <trkpt lat="48.543607" lon="9.794802">
        <ele>688.422969</ele>
        <time>2025-11-11T22:54:37.489Z</time>
      </trkpt>
      <trkpt lat="48.543897" lon="9.795215">
        <ele>688.269689</ele>
        <time>2025-11-11T22:54:45.799Z</time>
      </trkpt>
      <trkpt lat="48.544397" lon="9.795983">
        <ele>687.995450</ele>
        <time>2025-11-11T22:54:58.861Z</time>
      </trkpt>
      <trkpt lat="48.544510" lon="9.796163">
        <ele>687.769175</ele>
        <time>2025-11-11T22:55:01.759Z</time>
      </trkpt>
      <trkpt lat="48.544700" lon="9.796466">
        <ele>687.356018</ele>
        <time>2025-11-11T22:55:06.709Z</time>
      </trkpt>
      <trkpt lat="48.545176" lon="9.796972">
        <ele>686.485637</ele>
        <time>2025-11-11T22:55:13.753Z</time>
      </trkpt>
      <trkpt lat="48.545418" lon="9.797199">
        <ele>686.059665</ele>
        <time>2025-11-11T22:55:16.996Z</time>
      </trkpt>
      <trkpt lat="48.545606" lon="9.797369">
        <ele>685.732016</ele>
        <time>2025-11-11T22:55:19.365Z</time>
      </trkpt>
      <trkpt lat="48.545654" lon="9.797413">
        <ele>685.648057</ele>
        <time>2025-11-11T22:55:19.955Z</time>
      </trkpt>
      <trkpt lat="48.545895" lon="9.797690">
        <ele>685.143903</ele>
        <time>2025-11-11T22:55:23.154Z</time>
      </trkpt>
      <trkpt lat="48.546190" lon="9.798061">
        <ele>684.286599</ele>
        <time>2025-11-11T22:55:27.162Z</time>
      </trkpt>
      <trkpt lat="48.546843" lon="9.798877">
        <ele>682.393853</ele>
        <time>2025-11-11T22:55:35.918Z</time>
      </trkpt>
      <trkpt lat="48.546909" lon="9.798962">
        <ele>682.200149</ele>
        <time>2025-11-11T22:55:36.835Z</time>
      </trkpt>
      <trkpt lat="48.547160" lon="9.799293">
        <ele>681.456009</ele>
        <time>2025-11-11T22:55:40.453Z</time>
      </trkpt>
      <trkpt lat="48.547637" lon="9.799888">
        <ele>681.993124</ele>
        <time>2025-11-11T22:55:48.764Z</time>
      </trkpt>
      <trkpt lat="48.547766" lon="9.800011">
        <ele>682.193698</ele>
        <time>2025-11-11T22:55:51.663Z</time>
      </trkpt>
      <trkpt lat="48.548859" lon="9.801073">
        <ele>683.860605</ele>
        <time>2025-11-11T22:56:24.774Z</time>
      </trkpt>
      <trkpt lat="48.549042" lon="9.801252">
        <ele>684.100339</ele>
        <time>2025-11-11T22:56:30.401Z</time>
      </trkpt>
      <trkpt lat="48.549617" lon="9.801775">
        <ele>684.838392</ele>
        <time>2025-11-11T22:56:45.233Z</time>
      </trkpt>
      <trkpt lat="48.550348" lon="9.802446">
        <ele>685.353945</ele>
        <time>2025-11-11T22:56:57.526Z</time>
      </trkpt>
      <trkpt lat="48.550555" lon="9.802671">
        <ele>684.861050</ele>
        <time>2025-11-11T22:57:00.438Z</time>
      </trkpt>
      <trkpt lat="48.550990" lon="9.803306">
        <ele>683.691880</ele>
        <time>2025-11-11T22:57:06.971Z</time>
      </trkpt>
      <trkpt lat="48.551389" lon="9.804015">
        <ele>682.501256</ele>
        <time>2025-11-11T22:57:13.417Z</time>
      </trkpt>
      <trkpt lat="48.552493" lon="9.806053">
        <ele>678.257310</ele>
        <time>2025-11-11T22:57:31.828Z</time>
      </trkpt>
      <trkpt lat="48.552666" lon="9.806334">
        <ele>677.626486</ele>
        <time>2025-11-11T22:57:34.563Z</time>
      </trkpt>
      <trkpt lat="48.552914" lon="9.806613">
        <ele>676.904169</ele>
        <time>2025-11-11T22:57:37.889Z</time>
      </trkpt>
      <trkpt lat="48.553796" lon="9.807137">
        <ele>674.690215</ele>
        <time>2025-11-11T22:57:47.972Z</time>
      </trkpt>
      <trkpt lat="48.553954" lon="9.807373">
        <ele>674.171187</ele>
        <time>2025-11-11T22:57:50.327Z</time>
      </trkpt>
      <trkpt lat="48.554378" lon="9.808285">
        <ele>672.813502</ele>
        <time>2025-11-11T22:57:58.274Z</time>
      </trkpt>
      <trkpt lat="48.555312" lon="9.810265">
        <ele>670.749744</ele>
        <time>2025-11-11T22:58:17.208Z</time>
      </trkpt>
      <trkpt lat="48.556027" lon="9.811757">
        <ele>670.624447</ele>
        <time>2025-11-11T22:58:35.361Z</time>
      </trkpt>
      <trkpt lat="48.556343" lon="9.812320">
        <ele>670.567913</ele>
        <time>2025-11-11T22:58:43.959Z</time>
      </trkpt>
      <trkpt lat="48.556445" lon="9.812449">
        <ele>670.548784</ele>
        <time>2025-11-11T22:58:46.317Z</time>
      </trkpt>
      <trkpt lat="48.557304" lon="9.813127">
        <ele>670.409410</ele>
        <time>2025-11-11T22:59:02.146Z</time>
      </trkpt>
      <trkpt lat="48.557576" lon="9.813419">
        <ele>670.361425</ele>
        <time>2025-11-11T22:59:06.395Z</time>
      </trkpt>
      <trkpt lat="48.557750" lon="9.813664">
        <ele>670.295207</ele>
        <time>2025-11-11T22:59:09.123Z</time>
      </trkpt>
      <trkpt lat="48.558066" lon="9.814324">
        <ele>669.624334</ele>
        <time>2025-11-11T22:59:15.078Z</time>
      </trkpt>
      <trkpt lat="48.558187" lon="9.814640">
        <ele>669.323669</ele>
        <time>2025-11-11T22:59:17.763Z</time>
      </trkpt>
      <trkpt lat="48.558292" lon="9.815095">
        <ele>668.926820</ele>
        <time>2025-11-11T22:59:21.391Z</time>
      </trkpt>
      <trkpt lat="48.558370" lon="9.815375">
        <ele>668.676627</ele>
        <time>2025-11-11T22:59:23.767Z</time>
      </trkpt>
      <trkpt lat="48.558182" lon="9.815461">
        <ele>668.432206</ele>
        <time>2025-11-11T22:59:26.143Z</time>
      </trkpt>
      <trkpt lat="48.557864" lon="9.815406">
        <ele>668.100564</ele>
        <time>2025-11-11T22:59:30.227Z</time>
      </trkpt>
      <trkpt lat="48.557324" lon="9.815561">
        <ele>668.184303</ele>
        <time>2025-11-11T22:59:38.542Z</time>
      </trkpt>
      <trkpt lat="48.556666" lon="9.815630">
        <ele>668.284789</ele>
        <time>2025-11-11T22:59:49.792Z</time>
      </trkpt>
      <trkpt lat="48.556396" lon="9.815732">
        <ele>668.327189</ele>
        <time>2025-11-11T22:59:54.298Z</time>
      </trkpt>
      <trkpt lat="48.556111" lon="9.815953">
        <ele>668.404237</ele>
        <time>2025-11-11T22:59:59.293Z</time>
      </trkpt>
      <trkpt lat="48.555933" lon="9.816155">
        <ele>668.548521</ele>
        <time>2025-11-11T23:00:02.805Z</time>
      </trkpt>
      <trkpt lat="48.555350" lon="9.816918">
        <ele>669.048427</ele>
        <time>2025-11-11T23:00:15.688Z</time>
      </trkpt>
      <trkpt lat="48.554766" lon="9.817744">
        <ele>669.607320</ele>
        <time>2025-11-11T23:00:30.344Z</time>
      </trkpt>
      <trkpt lat="48.554614" lon="9.817959">
        <ele>669.903321</ele>
        <time>2025-11-11T23:00:34.369Z</time>
      </trkpt>
      <trkpt lat="48.553598" lon="9.819296">
        <ele>671.818718</ele>
        <time>2025-11-11T23:01:02.034Z</time>
      </trkpt>
      <trkpt lat="48.552468" lon="9.820772">
        <ele>674.639428</ele>
        <time>2025-11-11T23:01:35.194Z</time>
      </trkpt>
      <trkpt lat="48.551705" lon="9.821563">
        <ele>676.921219</ele>
        <time>2025-11-11T23:01:57.160Z</time>
      </trkpt>
      <trkpt lat="48.550023" lon="9.823012">
        <ele>683.943175</ele>
        <time>2025-11-11T23:02:51.519Z</time>
      </trkpt>
      <trkpt lat="48.549042" lon="9.823841">
        <ele>689.574949</ele>
        <time>2025-11-11T23:03:34.239Z</time>
      </trkpt>
      <trkpt lat="48.548767" lon="9.824141">
        <ele>691.265182</ele>
        <time>2025-11-11T23:03:47.926Z</time>
      </trkpt>
      <trkpt lat="48.548341" lon="9.824696">
        <ele>694.061146</ele>
        <time>2025-11-11T23:04:09.592Z</time>
      </trkpt>
      <trkpt lat="48.547631" lon="9.825933">
        <ele>699.181185</ele>
        <time>2025-11-11T23:04:45.547Z</time>
      </trkpt>
      <trkpt lat="48.547674" lon="9.826215">
        <ele>699.492355</ele>
        <time>2025-11-11T23:04:50.959Z</time>
      </trkpt>
      <trkpt lat="48.548145" lon="9.828176">
        <ele>701.735470</ele>
        <time>2025-11-11T23:05:20.159Z</time>
      </trkpt>
      <trkpt lat="48.548800" lon="9.831000">
        <ele>699.285947</ele>
        <time>2025-11-11T23:05:42.824Z</time>
      </trkpt>
      <trkpt lat="48.548947" lon="9.831491">
        <ele>697.947753</ele>
        <time>2025-11-11T23:05:46.682Z</time>
      </trkpt>
      <trkpt lat="48.549374" lon="9.832868">
        <ele>694.171706</ele>
        <time>2025-11-11T23:05:56.694Z</time>
      </trkpt>
      <trkpt lat="48.550391" lon="9.835606">
        <ele>683.252992</ele>
        <time>2025-11-11T23:06:15.811Z</time>
      </trkpt>
      <trkpt lat="48.550715" lon="9.836391">
        <ele>680.659035</ele>
        <time>2025-11-11T23:06:21.630Z</time>
      </trkpt>
      <trkpt lat="48.551171" lon="9.837150">
        <ele>678.011905</ele>
        <time>2025-11-11T23:06:28.354Z</time>
      </trkpt>
      <trkpt lat="48.551907" lon="9.838144">
        <ele>675.143885</ele>
        <time>2025-11-11T23:06:38.285Z</time>
      </trkpt>
      <trkpt lat="48.552267" lon="9.838631">
        <ele>674.580125</ele>
        <time>2025-11-11T23:06:43.831Z</time>
      </trkpt>
      <trkpt lat="48.552610" lon="9.839053">
        <ele>674.064061</ele>
        <time>2025-11-11T23:06:49.783Z</time>
      </trkpt>
      <trkpt lat="48.552840" lon="9.839213">
        <ele>673.768655</ele>
        <time>2025-11-11T23:06:53.692Z</time>
      </trkpt>
      <trkpt lat="48.553394" lon="9.839411">
        <ele>673.082834</ele>
        <time>2025-11-11T23:07:03.648Z</time>
      </trkpt>
      <trkpt lat="48.554344" lon="9.839550">
        <ele>671.902447</ele>
        <time>2025-11-11T23:07:15.791Z</time>
      </trkpt>
      <trkpt lat="48.555117" lon="9.839635">
        <ele>670.462805</ele>
        <time>2025-11-11T23:07:27.257Z</time>
      </trkpt>
      <trkpt lat="48.555608" lon="9.839728">
        <ele>668.858649</ele>
        <time>2025-11-11T23:07:34.164Z</time>
      </trkpt>
      <trkpt lat="48.556783" lon="9.839859">
        <ele>665.224230</ele>
        <time>2025-11-11T23:07:51.248Z</time>
      </trkpt>
      <trkpt lat="48.558000" lon="9.840439">
        <ele>663.151692</ele>
        <time>2025-11-11T23:08:11.389Z</time>
      </trkpt>
      <trkpt lat="48.558804" lon="9.840965">
        <ele>663.500772</ele>
        <time>2025-11-11T23:08:28.299Z</time>
      </trkpt>
      <trkpt lat="48.560271" lon="9.841843">
        <ele>667.782988</ele>
        <time>2025-11-11T23:09:18.981Z</time>
      </trkpt>
      <trkpt lat="48.560487" lon="9.841838">
        <ele>669.010282</ele>
        <time>2025-11-11T23:09:27.725Z</time>
      </trkpt>
      <trkpt lat="48.562004" lon="9.841739">
        <ele>677.969482</ele>
        <time>2025-11-11T23:10:37.112Z</time>
      </trkpt>
      <trkpt lat="48.562843" lon="9.841719">
        <ele>684.262133</ele>
        <time>2025-11-11T23:11:21.141Z</time>
      </trkpt>
      <trkpt lat="48.563044" lon="9.841774">
        <ele>685.793998</ele>
        <time>2025-11-11T23:11:32.015Z</time>
      </trkpt>
      <trkpt lat="48.563390" lon="9.842051">
        <ele>688.730421</ele>
        <time>2025-11-11T23:11:52.481Z</time>
      </trkpt>
      <trkpt lat="48.563880" lon="9.842506">
        <ele>692.129415</ele>
        <time>2025-11-11T23:12:20.712Z</time>
      </trkpt>
      <trkpt lat="48.565190" lon="9.843498">
        <ele>699.499752</ele>
        <time>2025-11-11T23:13:18.948Z</time>
      </trkpt>
      <trkpt lat="48.566595" lon="9.844086">
        <ele>701.738677</ele>
        <time>2025-11-11T23:13:58.768Z</time>
      </trkpt>
      <trkpt lat="48.567483" lon="9.844593">
        <ele>699.945087</ele>
        <time>2025-11-11T23:14:14.785Z</time>
      </trkpt>
      <trkpt lat="48.569555" lon="9.845362">
        <ele>690.405735</ele>
        <time>2025-11-11T23:14:43.706Z</time>
      </trkpt>
      <trkpt lat="48.572124" lon="9.846397">
        <ele>672.916716</ele>
        <time>2025-11-11T23:15:17.879Z</time>
      </trkpt>
      <trkpt lat="48.572529" lon="9.846602">
        <ele>669.639053</ele>
        <time>2025-11-11T23:15:23.343Z</time>
      </trkpt>
      <trkpt lat="48.572785" lon="9.846731">
        <ele>667.568182</ele>
        <time>2025-11-11T23:15:26.809Z</time>
      </trkpt>
      <trkpt lat="48.573374" lon="9.847112">
        <ele>662.651579</ele>
        <time>2025-11-11T23:15:34.907Z</time>
      </trkpt>
      <trkpt lat="48.573574" lon="9.847089">
        <ele>661.112337</ele>
        <time>2025-11-11T23:15:37.382Z</time>
      </trkpt>
      <trkpt lat="48.573679" lon="9.846980">
        <ele>660.134799</ele>
        <time>2025-11-11T23:15:38.935Z</time>
      </trkpt>
      <trkpt lat="48.573760" lon="9.846943">
        <ele>659.489169</ele>
        <time>2025-11-11T23:15:39.975Z</time>
      </trkpt>
      <trkpt lat="48.573894" lon="9.847020">
        <ele>658.419601</ele>
        <time>2025-11-11T23:15:41.730Z</time>
      </trkpt>
      <trkpt lat="48.573724" lon="9.847682">
        <ele>654.914158</ele>
        <time>2025-11-11T23:15:45.915Z</time>
      </trkpt>
      <trkpt lat="48.573605" lon="9.848057">
        <ele>652.861081</ele>
        <time>2025-11-11T23:15:48.405Z</time>
      </trkpt>
      <trkpt lat="48.573595" lon="9.848183">
        <ele>652.234624</ele>
        <time>2025-11-11T23:15:49.161Z</time>
      </trkpt>
      <trkpt lat="48.573625" lon="9.848285">
        <ele>651.683597</ele>
        <time>2025-11-11T23:15:49.821Z</time>
      </trkpt>
      <trkpt lat="48.573698" lon="9.848351">
        <ele>651.048946</ele>
        <time>2025-11-11T23:15:50.571Z</time>
      </trkpt>
      <trkpt lat="48.573773" lon="9.848359">
        <ele>650.487994</ele>
        <time>2025-11-11T23:15:51.238Z</time>
      </trkpt>
      <trkpt lat="48.573895" lon="9.848287">
        <ele>649.510844</ele>
        <time>2025-11-11T23:15:52.400Z</time>
      </trkpt>
      <trkpt lat="48.573985" lon="9.848141">
        <ele>648.525798</ele>
        <time>2025-11-11T23:15:53.573Z</time>
      </trkpt>
      <trkpt lat="48.574125" lon="9.847976">
        <ele>647.201246</ele>
        <time>2025-11-11T23:15:55.158Z</time>
      </trkpt>
      <trkpt lat="48.574228" lon="9.847922">
        <ele>646.387863</ele>
        <time>2025-11-11T23:15:56.138Z</time>
      </trkpt>
      <trkpt lat="48.574377" lon="9.847961">
        <ele>645.370586</ele>
        <time>2025-11-11T23:15:57.503Z</time>
      </trkpt>
      <trkpt lat="48.574440" lon="9.848014">
        <ele>644.896064</ele>
        <time>2025-11-11T23:15:58.161Z</time>
      </trkpt>
      <trkpt lat="48.574545" lon="9.848244">
        <ele>643.679274</ele>
        <time>2025-11-11T23:15:59.875Z</time>
      </trkpt>
      <trkpt lat="48.574582" lon="9.848328">
        <ele>643.239859</ele>
        <time>2025-11-11T23:16:00.497Z</time>
      </trkpt>
      <trkpt lat="48.574738" lon="9.848747">
        <ele>641.146320</ele>
        <time>2025-11-11T23:16:03.445Z</time>
      </trkpt>
      <trkpt lat="48.574950" lon="9.849492">
        <ele>637.614960</ele>
        <time>2025-11-11T23:16:08.201Z</time>
      </trkpt>
      <trkpt lat="48.574971" lon="9.849576">
        <ele>637.223950</ele>
        <time>2025-11-11T23:16:08.946Z</time>
      </trkpt>
      <trkpt lat="48.575024" lon="9.849786">
        <ele>636.245255</ele>
        <time>2025-11-11T23:16:10.853Z</time>
      </trkpt>
      <trkpt lat="48.575077" lon="9.850003">
        <ele>635.238024</ele>
        <time>2025-11-11T23:16:12.830Z</time>
      </trkpt>
      <trkpt lat="48.575260" lon="9.850619">
        <ele>633.081741</ele>
        <time>2025-11-11T23:16:18.739Z</time>
      </trkpt>
      <trkpt lat="48.575468" lon="9.851056">
        <ele>631.627370</ele>
        <time>2025-11-11T23:16:23.622Z</time>
      </trkpt>
      <trkpt lat="48.575644" lon="9.851427">
        <ele>630.394051</ele>
        <time>2025-11-11T23:16:27.913Z</time>
      </trkpt>
      <trkpt lat="48.575659" lon="9.851458">
        <ele>630.290294</ele>
        <time>2025-11-11T23:16:28.268Z</time>
      </trkpt>
      <trkpt lat="48.575852" lon="9.851784">
        <ele>629.108459</ele>
        <time>2025-11-11T23:16:32.404Z</time>
      </trkpt>
      <trkpt lat="48.576293" lon="9.852564">
        <ele>626.762287</ele>
        <time>2025-11-11T23:16:42.531Z</time>
      </trkpt>
      <trkpt lat="48.576389" lon="9.852798">
        <ele>626.482487</ele>
        <time>2025-11-11T23:16:45.361Z</time>
      </trkpt>
      <trkpt lat="48.576372" lon="9.853032">
        <ele>626.243263</ele>
        <time>2025-11-11T23:16:47.078Z</time>
      </trkpt>
      <trkpt lat="48.576241" lon="9.853416">
        <ele>625.804216</ele>
        <time>2025-11-11T23:16:50.305Z</time>
      </trkpt>
      <trkpt lat="48.575655" lon="9.854721">
        <ele>624.249173</ele>
        <time>2025-11-11T23:17:02.961Z</time>
      </trkpt>
      <trkpt lat="48.575648" lon="9.854961">
        <ele>624.217346</ele>
        <time>2025-11-11T23:17:05.121Z</time>
      </trkpt>
      <trkpt lat="48.575744" lon="9.855228">
        <ele>624.177087</ele>
        <time>2025-11-11T23:17:07.744Z</time>
      </trkpt>
      <trkpt lat="48.575994" lon="9.855595">
        <ele>624.107300</ele>
        <time>2025-11-11T23:17:12.397Z</time>
      </trkpt>
      <trkpt lat="48.576075" lon="9.855790">
        <ele>624.076797</ele>
        <time>2025-11-11T23:17:14.432Z</time>
      </trkpt>
      <trkpt lat="48.576081" lon="9.855889">
        <ele>624.063626</ele>
        <time>2025-11-11T23:17:15.362Z</time>
      </trkpt>
      <trkpt lat="48.575997" lon="9.856294">
        <ele>624.007395</ele>
        <time>2025-11-11T23:17:19.618Z</time>
      </trkpt>
      <trkpt lat="48.575992" lon="9.856474">
        <ele>623.983527</ele>
        <time>2025-11-11T23:17:21.492Z</time>
      </trkpt>
      <trkpt lat="48.575941" lon="9.856534">
        <ele>623.970586</ele>
        <time>2025-11-11T23:17:22.550Z</time>
      </trkpt>
      <trkpt lat="48.575711" lon="9.857267">
        <ele>623.922209</ele>
        <time>2025-11-11T23:17:31.421Z</time>
      </trkpt>
      <trkpt lat="48.575630" lon="9.857544">
        <ele>623.953817</ele>
        <time>2025-11-11T23:17:34.354Z</time>
      </trkpt>
      <trkpt lat="48.575362" lon="9.858436">
        <ele>624.056062</ele>
        <time>2025-11-11T23:17:44.419Z</time>
      </trkpt>
      <trkpt lat="48.574970" lon="9.859829">
        <ele>624.139736</ele>
        <time>2025-11-11T23:17:59.838Z</time>
      </trkpt>
      <trkpt lat="48.574899" lon="9.860252">
        <ele>624.086200</ele>
        <time>2025-11-11T23:18:04.112Z</time>
      </trkpt>
      <trkpt lat="48.574867" lon="9.860633">
        <ele>624.039085</ele>
        <time>2025-11-11T23:18:08.020Z</time>
      </trkpt>
      <trkpt lat="48.574865" lon="9.860727">
        <ele>624.027547</ele>
        <time>2025-11-11T23:18:08.973Z</time>
      </trkpt>
      <trkpt lat="48.574885" lon="9.862034">
        <ele>623.867165</ele>
        <time>2025-11-11T23:18:21.369Z</time>
      </trkpt>
      <trkpt lat="48.574889" lon="9.862269">
        <ele>623.737683</ele>
        <time>2025-11-11T23:18:23.475Z</time>
      </trkpt>
      <trkpt lat="48.574946" lon="9.863989">
        <ele>620.891748</ele>
        <time>2025-11-11T23:18:36.538Z</time>
      </trkpt>
      <trkpt lat="48.574969" lon="9.864505">
        <ele>620.037104</ele>
        <time>2025-11-11T23:18:39.903Z</time>
      </trkpt>
      <trkpt lat="48.575028" lon="9.864962">
        <ele>619.150739</ele>
        <time>2025-11-11T23:18:42.846Z</time>
      </trkpt>
      <trkpt lat="48.575402" lon="9.866487">
        <ele>612.825224</ele>
        <time>2025-11-11T23:18:52.746Z</time>
      </trkpt>
      <trkpt lat="48.575608" lon="9.867342">
        <ele>609.286276</ele>
        <time>2025-11-11T23:18:58.201Z</time>
      </trkpt>
      <trkpt lat="48.575793" lon="9.868320">
        <ele>604.804636</ele>
        <time>2025-11-11T23:19:04.318Z</time>
      </trkpt>
      <trkpt lat="48.575861" lon="9.868740">
        <ele>602.866850</ele>
        <time>2025-11-11T23:19:06.913Z</time>
      </trkpt>
      <trkpt lat="48.576083" lon="9.870232">
        <ele>596.000792</ele>
        <time>2025-11-11T23:19:16.019Z</time>
      </trkpt>
      <trkpt lat="48.576145" lon="9.871184">
        <ele>591.621300</ele>
        <time>2025-11-11T23:19:21.626Z</time>
      </trkpt>
      <trkpt lat="48.576138" lon="9.872972">
        <ele>583.891595</ele>
        <time>2025-11-11T23:19:32.240Z</time>
      </trkpt>
      <trkpt lat="48.576133" lon="9.873401">
        <ele>583.177740</ele>
        <time>2025-11-11T23:19:34.945Z</time>
      </trkpt>
      <trkpt lat="48.576133" lon="9.873547">
        <ele>582.934835</ele>
        <time>2025-11-11T23:19:35.900Z</time>
      </trkpt>
      <trkpt lat="48.576143" lon="9.873804">
        <ele>582.506515</ele>
        <time>2025-11-11T23:19:37.636Z</time>
      </trkpt>
      <trkpt lat="48.576142" lon="9.874222">
        <ele>581.811068</ele>
        <time>2025-11-11T23:19:40.573Z</time>
      </trkpt>
      <trkpt lat="48.576225" lon="9.874241">
        <ele>581.599974</ele>
        <time>2025-11-11T23:19:41.515Z</time>
      </trkpt>
      <trkpt lat="48.576331" lon="9.874183">
        <ele>581.316495</ele>
        <time>2025-11-11T23:19:42.858Z</time>
      </trkpt>
      <trkpt lat="48.576620" lon="9.873902">
        <ele>580.452379</ele>
        <time>2025-11-11T23:19:47.459Z</time>
      </trkpt>
      <trkpt lat="48.576688" lon="9.873879">
        <ele>580.277155</ele>
        <time>2025-11-11T23:19:48.451Z</time>
      </trkpt>
      <trkpt lat="48.576812" lon="9.873933">
        <ele>579.952657</ele>
        <time>2025-11-11T23:19:50.367Z</time>
      </trkpt>
      <trkpt lat="48.576850" lon="9.874014">
        <ele>579.787456</ele>
        <time>2025-11-11T23:19:51.325Z</time>
      </trkpt>
      <trkpt lat="48.576951" lon="9.874261">
        <ele>579.663092</ele>
        <time>2025-11-11T23:19:54.149Z</time>
      </trkpt>
      <trkpt lat="48.576969" lon="9.874462">
        <ele>579.698396</ele>
        <time>2025-11-11T23:19:56.130Z</time>
      </trkpt>
      <trkpt lat="48.576943" lon="9.874574">
        <ele>579.719056</ele>
        <time>2025-11-11T23:19:57.332Z</time>
      </trkpt>
      <trkpt lat="48.576894" lon="9.874647">
        <ele>579.737156</ele>
        <time>2025-11-11T23:19:58.387Z</time>
      </trkpt>
      <trkpt lat="48.576493" lon="9.874981">
        <ele>579.857609</ele>
        <time>2025-11-11T23:20:05.857Z</time>
      </trkpt>
      <trkpt lat="48.576443" lon="9.875134">
        <ele>579.887311</ele>
        <time>2025-11-11T23:20:07.788Z</time>
      </trkpt>
      <trkpt lat="48.576442" lon="9.875222">
        <ele>579.902631</ele>
        <time>2025-11-11T23:20:08.762Z</time>
      </trkpt>
      <trkpt lat="48.576483" lon="9.875548">
        <ele>579.960390</ele>
        <time>2025-11-11T23:20:12.494Z</time>
      </trkpt>
      <trkpt lat="48.576574" lon="9.875978">
        <ele>580.038970</ele>
        <time>2025-11-11T23:20:17.551Z</time>
      </trkpt>
      <trkpt lat="48.576642" lon="9.876380">
        <ele>580.107311</ele>
        <time>2025-11-11T23:20:23.320Z</time>
      </trkpt>
      <trkpt lat="48.576645" lon="9.876615">
        <ele>580.130363</ele>
        <time>2025-11-11T23:20:26.517Z</time>
      </trkpt>
      <trkpt lat="48.576615" lon="9.876750">
        <ele>580.144329</ele>
        <time>2025-11-11T23:20:28.469Z</time>
      </trkpt>
      <trkpt lat="48.576378" lon="9.877142">
        <ele>580.196408</ele>
        <time>2025-11-11T23:20:35.910Z</time>
      </trkpt>
      <trkpt lat="48.576067" lon="9.877186">
        <ele>580.242710</ele>
        <time>2025-11-11T23:20:40.919Z</time>
      </trkpt>
      <trkpt lat="48.575904" lon="9.877282">
        <ele>580.268641</ele>
        <time>2025-11-11T23:20:43.581Z</time>
      </trkpt>
      <trkpt lat="48.575690" lon="9.877621">
        <ele>580.314594</ele>
        <time>2025-11-11T23:20:47.965Z</time>
      </trkpt>
      <trkpt lat="48.575400" lon="9.878248">
        <ele>580.547607</ele>
        <time>2025-11-11T23:20:55.032Z</time>
      </trkpt>
      <trkpt lat="48.575176" lon="9.878766">
        <ele>581.071420</ele>
        <time>2025-11-11T23:21:02.082Z</time>
      </trkpt>
      <trkpt lat="48.575018" lon="9.879187">
        <ele>581.481120</ele>
        <time>2025-11-11T23:21:08.407Z</time>
      </trkpt>
      <trkpt lat="48.575226" lon="9.879478">
        <ele>581.843731</ele>
        <time>2025-11-11T23:21:14.394Z</time>
      </trkpt>
      <trkpt lat="48.575538" lon="9.879780">
        <ele>582.317730</ele>
        <time>2025-11-11T23:21:22.557Z</time>
      </trkpt>
      <trkpt lat="48.576076" lon="9.880150">
        <ele>583.410768</ele>
        <time>2025-11-11T23:21:36.868Z</time>
      </trkpt>
      <trkpt lat="48.576719" lon="9.880496">
        <ele>585.012183</ele>
        <time>2025-11-11T23:21:54.415Z</time>
      </trkpt>
      <trkpt lat="48.577302" lon="9.880917">
        <ele>586.528162</ele>
        <time>2025-11-11T23:22:10.463Z</time>
      </trkpt>
      <trkpt lat="48.577816" lon="9.881384">
        <ele>587.381375</ele>
        <time>2025-11-11T23:22:23.432Z</time>
      </trkpt>
      <trkpt lat="48.578653" lon="9.882367">
        <ele>588.550329</ele>
        <time>2025-11-11T23:22:42.932Z</time>
      </trkpt>
      <trkpt lat="48.580058" lon="9.884209">
        <ele>590.042800</ele>
        <time>2025-11-11T23:23:13.810Z</time>
      </trkpt>
      <trkpt lat="48.580498" lon="9.884922">
        <ele>591.210242</ele>
        <time>2025-11-11T23:23:27.633Z</time>
      </trkpt>
      <trkpt lat="48.581179" lon="9.886425">
        <ele>594.111425</ele>
        <time>2025-11-11T23:23:58.660Z</time>
      </trkpt>
      <trkpt lat="48.581780" lon="9.888048">
        <ele>597.583599</ele>
        <time>2025-11-11T23:24:32.361Z</time>
      </trkpt>
      <trkpt lat="48.581997" lon="9.888770">
        <ele>599.101370</ele>
        <time>2025-11-11T23:24:45.592Z</time>
      </trkpt>
      <trkpt lat="48.582154" lon="9.889437">
        <ele>600.607247</ele>
        <time>2025-11-11T23:24:57.169Z</time>
      </trkpt>
      <trkpt lat="48.582220" lon="9.889861">
        <ele>601.618847</ele>
        <time>2025-11-11T23:25:04.533Z</time>
      </trkpt>
      <trkpt lat="48.582280" lon="9.890515">
        <ele>603.152248</ele>
        <time>2025-11-11T23:25:16.604Z</time>
      </trkpt>
      <trkpt lat="48.582275" lon="9.891312">
        <ele>605.003301</ele>
        <time>2025-11-11T23:25:32.839Z</time>
      </trkpt>
      <trkpt lat="48.582158" lon="9.892551">
        <ele>608.384201</ele>
        <time>2025-11-11T23:26:00.517Z</time>
      </trkpt>
      <trkpt lat="48.582020" lon="9.893587">
        <ele>611.468977</ele>
        <time>2025-11-11T23:26:24.619Z</time>
      </trkpt>
      <trkpt lat="48.581893" lon="9.895059">
        <ele>615.338003</ele>
        <time>2025-11-11T23:26:54.234Z</time>
      </trkpt>
      <trkpt lat="48.581868" lon="9.895992">
        <ele>617.361675</ele>
        <time>2025-11-11T23:27:11.535Z</time>
      </trkpt>
      <trkpt lat="48.581889" lon="9.896605">
        <ele>618.691960</ele>
        <time>2025-11-11T23:27:22.298Z</time>
      </trkpt>
      <trkpt lat="48.581927" lon="9.897364">
        <ele>620.337630</ele>
        <time>2025-11-11T23:27:35.328Z</time>
      </trkpt>
      <trkpt lat="48.582109" lon="9.899553">
        <ele>625.076923</ele>
        <time>2025-11-11T23:28:15.747Z</time>
      </trkpt>
      <trkpt lat="48.582190" lon="9.900634">
        <ele>627.680858</ele>
        <time>2025-11-11T23:28:37.228Z</time>
      </trkpt>
      <trkpt lat="48.582218" lon="9.901501">
        <ele>629.841605</ele>
        <time>2025-11-11T23:28:54.476Z</time>
      </trkpt>
      <trkpt lat="48.582201" lon="9.902472">
        <ele>632.259510</ele>
        <time>2025-11-11T23:29:13.690Z</time>
      </trkpt>
      <trkpt lat="48.582119" lon="9.903464">
        <ele>635.243680</ele>
        <time>2025-11-11T23:29:33.994Z</time>
      </trkpt>
      <trkpt lat="48.582045" lon="9.903933">
        <ele>636.708582</ele>
        <time>2025-11-11T23:29:44.226Z</time>
      </trkpt>
      <trkpt lat="48.581771" lon="9.905185">
        <ele>640.715211</ele>
        <time>2025-11-11T23:30:14.357Z</time>
      </trkpt>
      <trkpt lat="48.581089" lon="9.907526">
        <ele>650.331042</ele>
        <time>2025-11-11T23:31:19.201Z</time>
      </trkpt>
      <trkpt lat="48.580982" lon="9.907806">
        <ele>651.400127</ele>
        <time>2025-11-11T23:31:27.565Z</time>
      </trkpt>
      <trkpt lat="48.580445" lon="9.908711">
        <ele>654.755354</ele>
        <time>2025-11-11T23:31:56.282Z</time>
      </trkpt>
      <trkpt lat="48.580363" lon="9.908896">
        <ele>655.369950</ele>
        <time>2025-11-11T23:32:00.989Z</time>
      </trkpt>
      <trkpt lat="48.580324" lon="9.909178">
        <ele>656.165082</ele>
        <time>2025-11-11T23:32:06.695Z</time>
      </trkpt>
      <trkpt lat="48.580345" lon="9.909377">
        <ele>656.721257</ele>
        <time>2025-11-11T23:32:10.433Z</time>
      </trkpt>
      <trkpt lat="48.580362" lon="9.909501">
        <ele>657.070762</ele>
        <time>2025-11-11T23:32:12.683Z</time>
      </trkpt>
      <trkpt lat="48.580378" lon="9.909605">
        <ele>657.365457</ele>
        <time>2025-11-11T23:32:14.475Z</time>
      </trkpt>
      <trkpt lat="48.580437" lon="9.909942">
        <ele>658.327578</ele>
        <time>2025-11-11T23:32:20.007Z</time>
      </trkpt>
      <trkpt lat="48.580542" lon="9.910491">
        <ele>659.377551</ele>
        <time>2025-11-11T23:32:28.183Z</time>
      </trkpt>
      <trkpt lat="48.580779" lon="9.911380">
        <ele>661.032020</ele>
        <time>2025-11-11T23:32:41.553Z</time>
      </trkpt>
      <trkpt lat="48.581046" lon="9.912195">
        <ele>662.601881</ele>
        <time>2025-11-11T23:32:57.262Z</time>
      </trkpt>
      <trkpt lat="48.581243" lon="9.912710">
        <ele>663.925091</ele>
        <time>2025-11-11T23:33:09.610Z</time>
      </trkpt>
      <trkpt lat="48.581348" lon="9.913055">
        <ele>665.023490</ele>
        <time>2025-11-11T23:33:18.109Z</time>
      </trkpt>
      <trkpt lat="48.581471" lon="9.913672">
        <ele>666.887340</ele>
        <time>2025-11-11T23:33:32.839Z</time>
      </trkpt>
      <trkpt lat="48.581566" lon="9.914146">
        <ele>668.319851</ele>
        <time>2025-11-11T23:33:43.852Z</time>
      </trkpt>
      <trkpt lat="48.581624" lon="9.914467">
        <ele>669.282302</ele>
        <time>2025-11-11T23:33:51.110Z</time>
      </trkpt>
      <trkpt lat="48.581682" lon="9.914749">
        <ele>670.136453</ele>
        <time>2025-11-11T23:33:57.686Z</time>
      </trkpt>
      <trkpt lat="48.581808" lon="9.915210">
        <ele>671.383295</ele>
        <time>2025-11-11T23:34:08.136Z</time>
      </trkpt>
      <trkpt lat="48.581894" lon="9.915519">
        <ele>671.991350</ele>
        <time>2025-11-11T23:34:14.561Z</time>
      </trkpt>
      <trkpt lat="48.581924" lon="9.915722">
        <ele>672.368632</ele>
        <time>2025-11-11T23:34:18.372Z</time>
      </trkpt>
      <trkpt lat="48.581998" lon="9.915752">
        <ele>672.578695</ele>
        <time>2025-11-11T23:34:20.458Z</time>
      </trkpt>
      <trkpt lat="48.582052" lon="9.915773">
        <ele>672.731573</ele>
        <time>2025-11-11T23:34:21.914Z</time>
      </trkpt>
      <trkpt lat="48.582363" lon="9.915897">
        <ele>673.613434</ele>
        <time>2025-11-11T23:34:30.174Z</time>
      </trkpt>
      <trkpt lat="48.583199" lon="9.916405">
        <ele>676.040655</ele>
        <time>2025-11-11T23:34:51.695Z</time>
      </trkpt>
      <trkpt lat="48.583245" lon="9.916446">
        <ele>676.122819</ele>
        <time>2025-11-11T23:34:52.879Z</time>
      </trkpt>
      <trkpt lat="48.583544" lon="9.916713">
        <ele>676.657143</ele>
        <time>2025-11-11T23:34:59.745Z</time>
      </trkpt>
      <trkpt lat="48.583792" lon="9.917114">
        <ele>677.215885</ele>
        <time>2025-11-11T23:35:06.489Z</time>
      </trkpt>
      <trkpt lat="48.583906" lon="9.917315">
        <ele>677.485369</ele>
        <time>2025-11-11T23:35:09.835Z</time>
      </trkpt>
      <trkpt lat="48.584050" lon="9.917506">
        <ele>677.780129</ele>
        <time>2025-11-11T23:35:13.602Z</time>
      </trkpt>
      <trkpt lat="48.584094" lon="9.917563">
        <ele>677.869287</ele>
        <time>2025-11-11T23:35:14.750Z</time>
      </trkpt>
      <trkpt lat="48.584408" lon="9.917810">
        <ele>678.413913</ele>
        <time>2025-11-11T23:35:22.334Z</time>
      </trkpt>
      <trkpt lat="48.584655" lon="9.917932">
        <ele>678.841309</ele>
        <time>2025-11-11T23:35:28.169Z</time>
      </trkpt>
      <trkpt lat="48.585575" lon="9.918304">
        <ele>680.970796</ele>
        <time>2025-11-11T23:35:51.102Z</time>
      </trkpt>
      <trkpt lat="48.586021" lon="9.918542">
        <ele>682.028385</ele>
        <time>2025-11-11T23:36:03.204Z</time>
      </trkpt>
      <trkpt lat="48.586333" lon="9.918824">
        <ele>682.813202</ele>
        <time>2025-11-11T23:36:11.864Z</time>
      </trkpt>
      <trkpt lat="48.586528" lon="9.919056">
        <ele>683.134249</ele>
        <time>2025-11-11T23:36:17.412Z</time>
      </trkpt>
      <trkpt lat="48.587057" lon="9.919859">
        <ele>684.104142</ele>
        <time>2025-11-11T23:36:32.580Z</time>
      </trkpt>
      <trkpt lat="48.587341" lon="9.920160">
        <ele>684.552880</ele>
        <time>2025-11-11T23:36:39.229Z</time>
      </trkpt>
      <trkpt lat="48.587702" lon="9.920395">
        <ele>685.061395</ele>
        <time>2025-11-11T23:36:46.401Z</time>
      </trkpt>
      <trkpt lat="48.587973" lon="9.920480">
        <ele>685.005026</ele>
        <time>2025-11-11T23:36:51.156Z</time>
      </trkpt>
      <trkpt lat="48.588275" lon="9.920512">
        <ele>684.885729</ele>
        <time>2025-11-11T23:36:55.911Z</time>
      </trkpt>
      <trkpt lat="48.588519" lon="9.920464">
        <ele>684.788768</ele>
        <time>2025-11-11T23:36:59.470Z</time>
      </trkpt>
      <trkpt lat="48.588788" lon="9.920364">
        <ele>684.679609</ele>
        <time>2025-11-11T23:37:03.271Z</time>
      </trkpt>
      <trkpt lat="48.590228" lon="9.919553">
        <ele>683.323461</ele>
        <time>2025-11-11T23:37:21.508Z</time>
      </trkpt>
      <trkpt lat="48.591386" lon="9.918978">
        <ele>682.090174</ele>
        <time>2025-11-11T23:37:35.485Z</time>
      </trkpt>
      <trkpt lat="48.592292" lon="9.918645">
        <ele>682.390444</ele>
        <time>2025-11-11T23:37:47.223Z</time>
      </trkpt>
      <trkpt lat="48.592341" lon="9.918627">
        <ele>682.406683</ele>
        <time>2025-11-11T23:37:48.158Z</time>
      </trkpt>
      <trkpt lat="48.592901" lon="9.918458">
        <ele>682.590586</ele>
        <time>2025-11-11T23:38:00.690Z</time>
      </trkpt>
      <trkpt lat="48.593221" lon="9.918356">
        <ele>683.624787</ele>
        <time>2025-11-11T23:38:10.625Z</time>
      </trkpt>
      <trkpt lat="48.593477" lon="9.918236">
        <ele>684.509419</ele>
        <time>2025-11-11T23:38:20.239Z</time>
      </trkpt>
      <trkpt lat="48.593555" lon="9.918142">
        <ele>684.838642</ele>
        <time>2025-11-11T23:38:23.947Z</time>
      </trkpt>
      <trkpt lat="48.593737" lon="9.917730">
        <ele>685.920201</ele>
        <time>2025-11-11T23:38:35.805Z</time>
      </trkpt>
      <trkpt lat="48.593854" lon="9.917622">
        <ele>686.372653</ele>
        <time>2025-11-11T23:38:40.496Z</time>
      </trkpt>
      <trkpt lat="48.594137" lon="9.917550">
        <ele>687.319857</ele>
        <time>2025-11-11T23:38:49.236Z</time>
      </trkpt>
      <trkpt lat="48.594390" lon="9.917549">
        <ele>688.154914</ele>
        <time>2025-11-11T23:38:55.350Z</time>
      </trkpt>
      <trkpt lat="48.594422" lon="9.917549">
        <ele>688.260533</ele>
        <time>2025-11-11T23:38:55.975Z</time>
      </trkpt>
      <trkpt lat="48.594651" lon="9.917552">
        <ele>688.058362</ele>
        <time>2025-11-11T23:38:59.637Z</time>
      </trkpt>
      <trkpt lat="48.594795" lon="9.917487">
        <ele>687.573183</ele>
        <time>2025-11-11T23:39:01.638Z</time>
      </trkpt>
      <trkpt lat="48.594931" lon="9.917302">
        <ele>686.982565</ele>
        <time>2025-11-11T23:39:03.876Z</time>
      </trkpt>
      <trkpt lat="48.595160" lon="9.916927">
        <ele>685.892725</ele>
        <time>2025-11-11T23:39:07.428Z</time>
      </trkpt>
      <trkpt lat="48.595228" lon="9.916870">
        <ele>685.641707</ele>
        <time>2025-11-11T23:39:08.185Z</time>
      </trkpt>
      <trkpt lat="48.595504" lon="9.916752">
        <ele>684.715706</ele>
        <time>2025-11-11T23:39:10.918Z</time>
      </trkpt>
      <trkpt lat="48.595638" lon="9.916660">
        <ele>684.240577</ele>
        <time>2025-11-11T23:39:12.286Z</time>
      </trkpt>
      <trkpt lat="48.595730" lon="9.916555">
        <ele>683.868439</ele>
        <time>2025-11-11T23:39:13.355Z</time>
      </trkpt>
      <trkpt lat="48.595826" lon="9.916381">
        <ele>683.384608</ele>
        <time>2025-11-11T23:39:14.725Z</time>
      </trkpt>
      <trkpt lat="48.596083" lon="9.915642">
        <ele>680.580113</ele>
        <time>2025-11-11T23:39:19.737Z</time>
      </trkpt>
      <trkpt lat="48.596244" lon="9.915360">
        <ele>679.061180</ele>
        <time>2025-11-11T23:39:21.954Z</time>
      </trkpt>
      <trkpt lat="48.596450" lon="9.915136">
        <ele>677.496908</ele>
        <time>2025-11-11T23:39:24.245Z</time>
      </trkpt>
      <trkpt lat="48.596761" lon="9.914912">
        <ele>675.373208</ele>
        <time>2025-11-11T23:39:27.362Z</time>
      </trkpt>
      <trkpt lat="48.596939" lon="9.914845">
        <ele>674.242362</ele>
        <time>2025-11-11T23:39:29.028Z</time>
      </trkpt>
      <trkpt lat="48.597125" lon="9.914823">
        <ele>673.092185</ele>
        <time>2025-11-11T23:39:30.734Z</time>
      </trkpt>
      <trkpt lat="48.597310" lon="9.914844">
        <ele>671.948466</ele>
        <time>2025-11-11T23:39:32.442Z</time>
      </trkpt>
      <trkpt lat="48.597527" lon="9.914914">
        <ele>671.026154</ele>
        <time>2025-11-11T23:39:34.516Z</time>
      </trkpt>
      <trkpt lat="48.598799" lon="9.915641">
        <ele>666.179802</ele>
        <time>2025-11-11T23:39:48.029Z</time>
      </trkpt>
      <trkpt lat="48.599081" lon="9.915795">
        <ele>665.209943</ele>
        <time>2025-11-11T23:39:51.339Z</time>
      </trkpt>
      <trkpt lat="48.599303" lon="9.915869">
        <ele>665.093842</ele>
        <time>2025-11-11T23:39:53.966Z</time>
      </trkpt>
      <trkpt lat="48.599570" lon="9.915921">
        <ele>664.956354</ele>
        <time>2025-11-11T23:39:57.225Z</time>
      </trkpt>
      <trkpt lat="48.599873" lon="9.915890">
        <ele>664.801253</ele>
        <time>2025-11-11T23:40:01.211Z</time>
      </trkpt>
      <trkpt lat="48.600046" lon="9.915841">
        <ele>664.711362</ele>
        <time>2025-11-11T23:40:03.724Z</time>
      </trkpt>
      <trkpt lat="48.600387" lon="9.915635">
        <ele>664.523824</ele>
        <time>2025-11-11T23:40:09.403Z</time>
      </trkpt>
      <trkpt lat="48.602890" lon="9.913675">
        <ele>665.390856</ele>
        <time>2025-11-11T23:40:56.379Z</time>
      </trkpt>
      <trkpt lat="48.603279" lon="9.913480">
        <ele>665.581624</ele>
        <time>2025-11-11T23:41:02.618Z</time>
      </trkpt>
      <trkpt lat="48.603791" lon="9.913312">
        <ele>665.825505</ele>
        <time>2025-11-11T23:41:11.488Z</time>
      </trkpt>
      <trkpt lat="48.603882" lon="9.913281">
        <ele>665.868927</ele>
        <time>2025-11-11T23:41:13.118Z</time>
      </trkpt>
      <trkpt lat="48.604731" lon="9.913031">
        <ele>667.231934</ele>
        <time>2025-11-11T23:41:28.873Z</time>
      </trkpt>
      <trkpt lat="48.606017" lon="9.912551">
        <ele>670.296569</ele>
        <time>2025-11-11T23:42:00.403Z</time>
      </trkpt>
      <trkpt lat="48.606829" lon="9.912215">
        <ele>674.215366</ele>
        <time>2025-11-11T23:42:29.711Z</time>
      </trkpt>
      <trkpt lat="48.607423" lon="9.912143">
        <ele>676.989306</ele>
        <time>2025-11-11T23:42:53.076Z</time>
      </trkpt>
      <trkpt lat="48.608127" lon="9.912076">
        <ele>679.354865</ele>
        <time>2025-11-11T23:43:16.836Z</time>
      </trkpt>
      <trkpt lat="48.609375" lon="9.911979">
        <ele>683.105865</ele>
        <time>2025-11-11T23:43:46.247Z</time>
      </trkpt>
      <trkpt lat="48.610507" lon="9.912091">
        <ele>684.547095</ele>
        <time>2025-11-11T23:44:09.135Z</time>
      </trkpt>
      <trkpt lat="48.610737" lon="9.912128">
        <ele>684.840948</ele>
        <time>2025-11-11T23:44:13.560Z</time>
      </trkpt>
      <trkpt lat="48.610835" lon="9.912144">
        <ele>684.966176</ele>
        <time>2025-11-11T23:44:15.387Z</time>
      </trkpt>
      <trkpt lat="48.611153" lon="9.912144">
        <ele>685.370181</ele>
        <time>2025-11-11T23:44:21.122Z</time>
      </trkpt>
      <trkpt lat="48.611449" lon="9.912061">
        <ele>685.309986</ele>
        <time>2025-11-11T23:44:26.830Z</time>
      </trkpt>
      <trkpt lat="48.611521" lon="9.912025">
        <ele>685.293156</ele>
        <time>2025-11-11T23:44:28.182Z</time>
      </trkpt>
      <trkpt lat="48.612086" lon="9.911719">
        <ele>685.159969</ele>
        <time>2025-11-11T23:44:37.590Z</time>
      </trkpt>
      <trkpt lat="48.612284" lon="9.911639">
        <ele>685.114486</ele>
        <time>2025-11-11T23:44:40.418Z</time>
      </trkpt>
      <trkpt lat="48.612428" lon="9.911622">
        <ele>685.082431</ele>
        <time>2025-11-11T23:44:42.319Z</time>
      </trkpt>
      <trkpt lat="48.612560" lon="9.911656">
        <ele>685.052714</ele>
        <time>2025-11-11T23:44:44.021Z</time>
      </trkpt>
      <trkpt lat="48.612693" lon="9.911691">
        <ele>685.022754</ele>
        <time>2025-11-11T23:44:45.671Z</time>
      </trkpt>
      <trkpt lat="48.612877" lon="9.911800">
        <ele>684.978898</ele>
        <time>2025-11-11T23:44:48.049Z</time>
      </trkpt>
      <trkpt lat="48.612920" lon="9.911836">
        <ele>684.830766</ele>
        <time>2025-11-11T23:44:48.617Z</time>
      </trkpt>
      <trkpt lat="48.613217" lon="9.912133">
        <ele>683.497904</ele>
        <time>2025-11-11T23:44:52.619Z</time>
      </trkpt>
      <trkpt lat="48.613443" lon="9.912459">
        <ele>682.328803</ele>
        <time>2025-11-11T23:44:55.719Z</time>
      </trkpt>
      <trkpt lat="48.613643" lon="9.912909">
        <ele>680.986790</ele>
        <time>2025-11-11T23:44:59.130Z</time>
      </trkpt>
      <trkpt lat="48.613729" lon="9.913307">
        <ele>679.950469</ele>
        <time>2025-11-11T23:45:01.754Z</time>
      </trkpt>
      <trkpt lat="48.613737" lon="9.913437">
        <ele>679.627330</ele>
        <time>2025-11-11T23:45:02.567Z</time>
      </trkpt>
      <trkpt lat="48.613769" lon="9.914060">
        <ele>678.115647</ele>
        <time>2025-11-11T23:45:06.461Z</time>
      </trkpt>
      <trkpt lat="48.613774" lon="9.914113">
        <ele>678.011575</ele>
        <time>2025-11-11T23:45:06.795Z</time>
      </trkpt>
      <trkpt lat="48.613798" lon="9.914348">
        <ele>677.549333</ele>
        <time>2025-11-11T23:45:08.276Z</time>
      </trkpt>
      <trkpt lat="48.613870" lon="9.914695">
        <ele>676.842348</ele>
        <time>2025-11-11T23:45:10.567Z</time>
      </trkpt>
      <trkpt lat="48.613939" lon="9.914979">
        <ele>676.254174</ele>
        <time>2025-11-11T23:45:12.476Z</time>
      </trkpt>
      <trkpt lat="48.614107" lon="9.915544">
        <ele>675.049887</ele>
        <time>2025-11-11T23:45:16.547Z</time>
      </trkpt>
      <trkpt lat="48.614187" lon="9.915700">
        <ele>674.666100</ele>
        <time>2025-11-11T23:45:17.969Z</time>
      </trkpt>
      <trkpt lat="48.614328" lon="9.915883">
        <ele>674.119815</ele>
        <time>2025-11-11T23:45:20.084Z</time>
      </trkpt>
      <trkpt lat="48.614464" lon="9.915974">
        <ele>673.682553</ele>
        <time>2025-11-11T23:45:21.820Z</time>
      </trkpt>
      <trkpt lat="48.614596" lon="9.916016">
        <ele>673.285937</ele>
        <time>2025-11-11T23:45:23.409Z</time>
      </trkpt>
      <trkpt lat="48.614849" lon="9.915997">
        <ele>673.301127</ele>
        <time>2025-11-11T23:45:26.787Z</time>
      </trkpt>
      <trkpt lat="48.614942" lon="9.915946">
        <ele>673.544703</ele>
        <time>2025-11-11T23:45:28.338Z</time>
      </trkpt>
      <trkpt lat="48.615059" lon="9.915882">
        <ele>673.851048</ele>
        <time>2025-11-11T23:45:30.614Z</time>
      </trkpt>
      <trkpt lat="48.615386" lon="9.915553">
        <ele>674.818059</ele>
        <time>2025-11-11T23:45:39.296Z</time>
      </trkpt>
      <trkpt lat="48.615599" lon="9.915339">
        <ele>675.447673</ele>
        <time>2025-11-11T23:45:45.997Z</time>
      </trkpt>
      <trkpt lat="48.615902" lon="9.915075">
        <ele>676.308660</ele>
        <time>2025-11-11T23:45:56.468Z</time>
      </trkpt>
      <trkpt lat="48.616044" lon="9.914937">
        <ele>676.724247</ele>
        <time>2025-11-11T23:46:01.784Z</time>
      </trkpt>
      <trkpt lat="48.616299" lon="9.914654">
        <ele>677.567542</ele>
        <time>2025-11-11T23:46:12.180Z</time>
      </trkpt>
      <trkpt lat="48.616587" lon="9.914368">
        <ele>678.874041</ele>
        <time>2025-11-11T23:46:24.196Z</time>
      </trkpt>
      <trkpt lat="48.616741" lon="9.914291">
        <ele>679.489126</ele>
        <time>2025-11-11T23:46:29.969Z</time>
      </trkpt>
      <trkpt lat="48.616876" lon="9.914224">
        <ele>680.027931</ele>
        <time>2025-11-11T23:46:34.826Z</time>
      </trkpt>
      <trkpt lat="48.617037" lon="9.914167">
        <ele>680.654983</ele>
        <time>2025-11-11T23:46:40.358Z</time>
      </trkpt>
      <trkpt lat="48.617204" lon="9.914111">
        <ele>681.303664</ele>
        <time>2025-11-11T23:46:45.830Z</time>
      </trkpt>
      <trkpt lat="48.618192" lon="9.913927">
        <ele>684.304784</ele>
        <time>2025-11-11T23:47:12.777Z</time>
      </trkpt>
      <trkpt lat="48.619279" lon="9.913700">
        <ele>684.782559</ele>
        <time>2025-11-11T23:47:31.836Z</time>
      </trkpt>
      <trkpt lat="48.620231" lon="9.913418">
        <ele>684.205744</ele>
        <time>2025-11-11T23:47:42.806Z</time>
      </trkpt>
      <trkpt lat="48.621410" lon="9.913069">
        <ele>682.324645</ele>
        <time>2025-11-11T23:47:55.878Z</time>
      </trkpt>
      <trkpt lat="48.621746" lon="9.913031">
        <ele>682.279208</ele>
        <time>2025-11-11T23:48:00.374Z</time>
      </trkpt>
      <trkpt lat="48.621983" lon="9.913095">
        <ele>682.388018</ele>
        <time>2025-11-11T23:48:04.363Z</time>
      </trkpt>
      <trkpt lat="48.622215" lon="9.913212">
        <ele>682.498547</ele>
        <time>2025-11-11T23:48:09.038Z</time>
      </trkpt>
      <trkpt lat="48.622529" lon="9.913434">
        <ele>682.655199</ele>
        <time>2025-11-11T23:48:16.404Z</time>
      </trkpt>
      <trkpt lat="48.622871" lon="9.913621">
        <ele>682.819559</ele>
        <time>2025-11-11T23:48:24.004Z</time>
      </trkpt>
      <trkpt lat="48.623128" lon="9.913695">
        <ele>682.937800</ele>
        <time>2025-11-11T23:48:29.106Z</time>
      </trkpt>
      <trkpt lat="48.623444" lon="9.913711">
        <ele>682.651622</ele>
        <time>2025-11-11T23:48:34.624Z</time>
      </trkpt>
      <trkpt lat="48.624934" lon="9.913374">
        <ele>680.306786</ele>
        <time>2025-11-11T23:48:51.112Z</time>
      </trkpt>
      <trkpt lat="48.625386" lon="9.913211">
        <ele>679.680172</ele>
        <time>2025-11-11T23:48:55.896Z</time>
      </trkpt>
      <trkpt lat="48.625761" lon="9.913062">
        <ele>679.173694</ele>
        <time>2025-11-11T23:49:00.034Z</time>
      </trkpt>
      <trkpt lat="48.627063" lon="9.912412">
        <ele>677.667656</ele>
        <time>2025-11-11T23:49:18.180Z</time>
      </trkpt>
      <trkpt lat="48.627613" lon="9.912179">
        <ele>677.391509</ele>
        <time>2025-11-11T23:49:27.189Z</time>
      </trkpt>
      <trkpt lat="48.628027" lon="9.912053">
        <ele>677.187334</ele>
        <time>2025-11-11T23:49:33.001Z</time>
      </trkpt>
      <trkpt lat="48.628608" lon="9.911936">
        <ele>676.761241</ele>
        <time>2025-11-11T23:49:40.233Z</time>
      </trkpt>
      <trkpt lat="48.629856" lon="9.911876">
        <ele>674.757508</ele>
        <time>2025-11-11T23:49:54.199Z</time>
      </trkpt>
      <trkpt lat="48.632013" lon="9.911692">
        <ele>671.343099</ele>
        <time>2025-11-11T23:50:18.510Z</time>
      </trkpt>
      <trkpt lat="48.632524" lon="9.911627">
        <ele>671.087119</ele>
        <time>2025-11-11T23:50:24.977Z</time>
      </trkpt>
      <trkpt lat="48.633058" lon="9.911513">
        <ele>670.896150</ele>
        <time>2025-11-11T23:50:32.232Z</time>
      </trkpt>
      <trkpt lat="48.633505" lon="9.911333">
        <ele>670.732353</ele>
        <time>2025-11-11T23:50:39.227Z</time>
      </trkpt>
      <trkpt lat="48.633681" lon="9.911263">
        <ele>670.667912</ele>
        <time>2025-11-11T23:50:42.154Z</time>
      </trkpt>
      <trkpt lat="48.634029" lon="9.911126">
        <ele>670.569163</ele>
        <time>2025-11-11T23:50:48.131Z</time>
      </trkpt>
      <trkpt lat="48.634963" lon="9.910821">
        <ele>670.369723</ele>
        <time>2025-11-11T23:51:03.143Z</time>
      </trkpt>
      <trkpt lat="48.635099" lon="9.910810">
        <ele>670.341295</ele>
        <time>2025-11-11T23:51:05.111Z</time>
      </trkpt>
      <trkpt lat="48.635742" lon="9.910713">
        <ele>669.964504</ele>
        <time>2025-11-11T23:51:13.050Z</time>
      </trkpt>
      <trkpt lat="48.636040" lon="9.910661">
        <ele>669.367730</ele>
        <time>2025-11-11T23:51:16.417Z</time>
      </trkpt>
      <trkpt lat="48.636104" lon="9.910651">
        <ele>669.239730</ele>
        <time>2025-11-11T23:51:17.143Z</time>
      </trkpt>
      <trkpt lat="48.636670" lon="9.910640">
        <ele>668.113629</ele>
        <time>2025-11-11T23:51:23.529Z</time>
      </trkpt>
      <trkpt lat="48.636916" lon="9.910679">
        <ele>667.621555</ele>
        <time>2025-11-11T23:51:26.181Z</time>
      </trkpt>
      <trkpt lat="48.636861" lon="9.911427">
        <ele>666.621652</ele>
        <time>2025-11-11T23:51:33.601Z</time>
      </trkpt>
      <trkpt lat="48.636842" lon="9.911927">
        <ele>665.680871</ele>
        <time>2025-11-11T23:51:38.494Z</time>
      </trkpt>
      <trkpt lat="48.636786" lon="9.913432">
        <ele>662.849312</ele>
        <time>2025-11-11T23:51:53.073Z</time>
      </trkpt>
      <trkpt lat="48.636783" lon="9.913827">
        <ele>662.107271</ele>
        <time>2025-11-11T23:51:56.860Z</time>
      </trkpt>
      <trkpt lat="48.636821" lon="9.916893">
        <ele>658.158785</ele>
        <time>2025-11-11T23:52:28.711Z</time>
      </trkpt>
      <trkpt lat="48.636900" lon="9.920720">
        <ele>658.262688</ele>
        <time>2025-11-11T23:53:05.657Z</time>
      </trkpt>
      <trkpt lat="48.636896" lon="9.921072">
        <ele>658.475193</ele>
        <time>2025-11-11T23:53:10.308Z</time>
      </trkpt>
      <trkpt lat="48.636651" lon="9.923987">
        <ele>659.674904</ele>
        <time>2025-11-11T23:53:52.599Z</time>
      </trkpt>
      <trkpt lat="48.636547" lon="9.925214">
        <ele>659.271864</ele>
        <time>2025-11-11T23:54:02.851Z</time>
      </trkpt>
      <trkpt lat="48.639074" lon="9.927487">
        <ele>648.128860</ele>
        <time>2025-11-11T23:54:30.511Z</time>
      </trkpt>
      <trkpt lat="48.639215" lon="9.927620">
        <ele>647.610711</ele>
        <time>2025-11-11T23:54:32.317Z</time>
      </trkpt>
      <trkpt lat="48.640293" lon="9.928781">
        <ele>649.612071</ele>
        <time>2025-11-11T23:55:03.937Z</time>
      </trkpt>
      <trkpt lat="48.640477" lon="9.928895">
        <ele>650.225733</ele>
        <time>2025-11-11T23:55:11.280Z</time>
      </trkpt>
      <trkpt lat="48.641012" lon="9.929092">
        <ele>651.925177</ele>
        <time>2025-11-11T23:55:30.762Z</time>
      </trkpt>
      <trkpt lat="48.641164" lon="9.929194">
        <ele>652.330139</ele>
        <time>2025-11-11T23:55:36.388Z</time>
      </trkpt>
      <trkpt lat="48.641338" lon="9.929388">
        <ele>652.773524</ele>
        <time>2025-11-11T23:55:43.583Z</time>
      </trkpt>
      <trkpt lat="48.642676" lon="9.931092">
        <ele>655.446573</ele>
        <time>2025-11-11T23:56:20.117Z</time>
      </trkpt>
      <trkpt lat="48.642271" lon="9.934824">
        <ele>651.080850</ele>
        <time>2025-11-11T23:56:47.354Z</time>
      </trkpt>
      <trkpt lat="48.642090" lon="9.936438">
        <ele>648.572882</ele>
        <time>2025-11-11T23:56:58.442Z</time>
      </trkpt>
      <trkpt lat="48.641601" lon="9.940967">
        <ele>643.018139</ele>
        <time>2025-11-11T23:57:32.412Z</time>
      </trkpt>
      <trkpt lat="48.641560" lon="9.941341">
        <ele>642.608759</ele>
        <time>2025-11-11T23:57:35.287Z</time>
      </trkpt>
      <trkpt lat="48.641551" lon="9.941781">
        <ele>642.583605</ele>
        <time>2025-11-11T23:57:38.744Z</time>
      </trkpt>
      <trkpt lat="48.641526" lon="9.942555">
        <ele>642.746659</ele>
        <time>2025-11-11T23:57:45.352Z</time>
      </trkpt>
      <trkpt lat="48.641565" lon="9.944050">
        <ele>643.061471</ele>
        <time>2025-11-11T23:58:04.376Z</time>
      </trkpt>
      <trkpt lat="48.641596" lon="9.944788">
        <ele>643.750426</ele>
        <time>2025-11-11T23:58:15.341Z</time>
      </trkpt>
      <trkpt lat="48.641629" lon="9.945124">
        <ele>644.106121</ele>
        <time>2025-11-11T23:58:20.439Z</time>
      </trkpt>
      <trkpt lat="48.641635" lon="9.945187">
        <ele>644.172771</ele>
        <time>2025-11-11T23:58:21.389Z</time>
      </trkpt>
      <trkpt lat="48.641828" lon="9.946136">
        <ele>645.212479</ele>
        <time>2025-11-11T23:58:35.823Z</time>
      </trkpt>
      <trkpt lat="48.641884" lon="9.946342">
        <ele>645.445724</ele>
        <time>2025-11-11T23:58:38.723Z</time>
      </trkpt>
      <trkpt lat="48.642728" lon="9.948681">
        <ele>648.111793</ele>
        <time>2025-11-11T23:59:12.979Z</time>
      </trkpt>
      <trkpt lat="48.642795" lon="9.949078">
        <ele>648.517640</ele>
        <time>2025-11-11T23:59:19.188Z</time>
      </trkpt>
      <trkpt lat="48.642797" lon="9.949322">
        <ele>648.904145</ele>
        <time>2025-11-11T23:59:23.107Z</time>
      </trkpt>
      <trkpt lat="48.642752" lon="9.949769">
        <ele>649.851316</ele>
        <time>2025-11-11T23:59:30.792Z</time>
      </trkpt>
      <trkpt lat="48.642649" lon="9.950529">
        <ele>651.476491</ele>
        <time>2025-11-11T23:59:44.600Z</time>
      </trkpt>
      <trkpt lat="48.642527" lon="9.951320">
        <ele>653.178007</ele>
        <time>2025-11-11T23:59:59.803Z</time>
      </trkpt>
      <trkpt lat="48.642365" lon="9.951847">
        <ele>654.417650</ele>
        <time>2025-11-12T00:00:11.518Z</time>
      </trkpt>
      <trkpt lat="48.642253" lon="9.952226">
        <ele>655.587707</ele>
        <time>2025-11-12T00:00:19.914Z</time>
      </trkpt>
      <trkpt lat="48.641786" lon="9.954396">
        <ele>662.013045</ele>
        <time>2025-11-12T00:01:17.314Z</time>
      </trkpt>
      <trkpt lat="48.641544" lon="9.955362">
        <ele>663.782755</ele>
        <time>2025-11-12T00:01:42.497Z</time>
      </trkpt>
      <trkpt lat="48.641531" lon="9.955490">
        <ele>664.004596</ele>
        <time>2025-11-12T00:01:45.542Z</time>
      </trkpt>
      <trkpt lat="48.641467" lon="9.955586">
        <ele>664.238204</ele>
        <time>2025-11-12T00:01:48.223Z</time>
      </trkpt>
      <trkpt lat="48.641249" lon="9.956168">
        <ele>665.384229</ele>
        <time>2025-11-12T00:02:00.331Z</time>
      </trkpt>
      <trkpt lat="48.641134" lon="9.956550">
        <ele>666.103321</ele>
        <time>2025-11-12T00:02:05.978Z</time>
      </trkpt>
      <trkpt lat="48.641072" lon="9.956899">
        <ele>666.620407</ele>
        <time>2025-11-12T00:02:09.559Z</time>
      </trkpt>
      <trkpt lat="48.641022" lon="9.957380">
        <ele>665.945193</ele>
        <time>2025-11-12T00:02:13.324Z</time>
      </trkpt>
      <trkpt lat="48.640210" lon="9.957046">
        <ele>664.179285</ele>
        <time>2025-11-12T00:02:25.715Z</time>
      </trkpt>
      <trkpt lat="48.640014" lon="9.956962">
        <ele>663.751778</ele>
        <time>2025-11-12T00:02:28.623Z</time>
      </trkpt>
      <trkpt lat="48.639769" lon="9.956876">
        <ele>663.223964</ele>
        <time>2025-11-12T00:02:32.197Z</time>
      </trkpt>
      <trkpt lat="48.639686" lon="9.956844">
        <ele>663.044215</ele>
        <time>2025-11-12T00:02:33.454Z</time>
      </trkpt>
      <trkpt lat="48.639342" lon="9.956712">
        <ele>663.167078</ele>
        <time>2025-11-12T00:02:38.881Z</time>
      </trkpt>
      <trkpt lat="48.638331" lon="9.956421">
        <ele>664.173129</ele>
        <time>2025-11-12T00:03:05.870Z</time>
      </trkpt>
      <trkpt lat="48.637203" lon="9.955893">
        <ele>664.185154</ele>
        <time>2025-11-12T00:03:44.224Z</time>
      </trkpt>
      <trkpt lat="48.636305" lon="9.955437">
        <ele>663.550481</ele>
        <time>2025-11-12T00:03:59.618Z</time>
      </trkpt>
      <trkpt lat="48.635043" lon="9.954892">
        <ele>655.807510</ele>
        <time>2025-11-12T00:04:16.643Z</time>
      </trkpt>
      <trkpt lat="48.634736" lon="9.954803">
        <ele>653.739267</ele>
        <time>2025-11-12T00:04:20.604Z</time>
      </trkpt>
      <trkpt lat="48.633631" lon="9.954652">
        <ele>644.534728</ele>
        <time>2025-11-12T00:04:34.481Z</time>
      </trkpt>
      <trkpt lat="48.632371" lon="9.954258">
        <ele>632.652542</ele>
        <time>2025-11-12T00:04:50.254Z</time>
      </trkpt>
      <trkpt lat="48.631934" lon="9.954292">
        <ele>628.237514</ele>
        <time>2025-11-12T00:04:55.573Z</time>
      </trkpt>
      <trkpt lat="48.631640" lon="9.954405">
        <ele>625.176932</ele>
        <time>2025-11-12T00:04:59.247Z</time>
      </trkpt>
      <trkpt lat="48.631048" lon="9.954656">
        <ele>618.973752</ele>
        <time>2025-11-12T00:05:06.704Z</time>
      </trkpt>
      <trkpt lat="48.630493" lon="9.954700">
        <ele>614.464666</ele>
        <time>2025-11-12T00:05:13.500Z</time>
      </trkpt>
      <trkpt lat="48.629941" lon="9.954628">
        <ele>610.482442</ele>
        <time>2025-11-12T00:05:20.444Z</time>
      </trkpt>
      <trkpt lat="48.629187" lon="9.954422">
        <ele>604.975410</ele>
        <time>2025-11-12T00:05:30.511Z</time>
      </trkpt>
      <trkpt lat="48.627617" lon="9.953752">
        <ele>599.030679</ele>
        <time>2025-11-12T00:05:53.867Z</time>
      </trkpt>
      <trkpt lat="48.627424" lon="9.953736">
        <ele>598.370977</ele>
        <time>2025-11-12T00:05:56.831Z</time>
      </trkpt>
      <trkpt lat="48.627199" lon="9.953780">
        <ele>597.970047</ele>
        <time>2025-11-12T00:06:00.387Z</time>
      </trkpt>
      <trkpt lat="48.625899" lon="9.954189">
        <ele>596.682058</ele>
        <time>2025-11-12T00:06:23.559Z</time>
      </trkpt>
      <trkpt lat="48.625309" lon="9.954405">
        <ele>596.837973</ele>
        <time>2025-11-12T00:06:35.725Z</time>
      </trkpt>
      <trkpt lat="48.624925" lon="9.954585">
        <ele>597.483852</ele>
        <time>2025-11-12T00:06:45.290Z</time>
      </trkpt>
      <trkpt lat="48.624845" lon="9.954487">
        <ele>597.649233</ele>
        <time>2025-11-12T00:06:48.089Z</time>
      </trkpt>
      <trkpt lat="48.624925" lon="9.954585">
        <ele>597.814614</ele>
        <time>2025-11-12T00:06:50.746Z</time>
      </trkpt>
      <trkpt lat="48.624552" lon="9.954810">
        <ele>598.459765</ele>
        <time>2025-11-12T00:07:02.332Z</time>
      </trkpt>
      <trkpt lat="48.624255" lon="9.954890">
        <ele>598.944437</ele>
        <time>2025-11-12T00:07:11.666Z</time>
      </trkpt>
      <trkpt lat="48.623521" lon="9.954892">
        <ele>601.114975</ele>
        <time>2025-11-12T00:07:35.961Z</time>
      </trkpt>
      <trkpt lat="48.622659" lon="9.954812">
        <ele>604.101140</ele>
        <time>2025-11-12T00:08:05.864Z</time>
      </trkpt>
      <trkpt lat="48.622345" lon="9.954852">
        <ele>605.190710</ele>
        <time>2025-11-12T00:08:16.716Z</time>
      </trkpt>
      <trkpt lat="48.621809" lon="9.954981">
        <ele>607.334482</ele>
        <time>2025-11-12T00:08:35.709Z</time>
      </trkpt>
      <trkpt lat="48.620751" lon="9.955255">
        <ele>611.671565</ele>
        <time>2025-11-12T00:09:16.580Z</time>
      </trkpt>
      <trkpt lat="48.620617" lon="9.955234">
        <ele>612.215896</ele>
        <time>2025-11-12T00:09:21.786Z</time>
      </trkpt>
      <trkpt lat="48.620526" lon="9.955182">
        <ele>612.608943</ele>
        <time>2025-11-12T00:09:25.521Z</time>
      </trkpt>
      <trkpt lat="48.620248" lon="9.954931">
        <ele>612.632303</ele>
        <time>2025-11-12T00:09:37.147Z</time>
      </trkpt>
      <trkpt lat="48.619751" lon="9.954396">
        <ele>612.383596</ele>
        <time>2025-11-12T00:09:54.064Z</time>
      </trkpt>
      <trkpt lat="48.619552" lon="9.954255">
        <ele>612.293999</ele>
        <time>2025-11-12T00:09:58.163Z</time>
      </trkpt>
      <trkpt lat="48.619189" lon="9.954160">
        <ele>612.143797</ele>
        <time>2025-11-12T00:10:03.746Z</time>
      </trkpt>
      <trkpt lat="48.618557" lon="9.953936">
        <ele>609.925845</ele>
        <time>2025-11-12T00:10:12.358Z</time>
      </trkpt>
      <trkpt lat="48.617896" lon="9.953586">
        <ele>605.586244</ele>
        <time>2025-11-12T00:10:21.099Z</time>
      </trkpt>
      <trkpt lat="48.617327" lon="9.953140">
        <ele>601.615164</ele>
        <time>2025-11-12T00:10:29.326Z</time>
      </trkpt>
      <trkpt lat="48.617148" lon="9.952930">
        <ele>601.235072</ele>
        <time>2025-11-12T00:10:32.418Z</time>
      </trkpt>
      <trkpt lat="48.617004" lon="9.952673">
        <ele>601.995836</ele>
        <time>2025-11-12T00:10:35.693Z</time>
      </trkpt>
      <trkpt lat="48.616951" lon="9.952555">
        <ele>602.317986</ele>
        <time>2025-11-12T00:10:37.243Z</time>
      </trkpt>
      <trkpt lat="48.616562" lon="9.951671">
        <ele>604.716039</ele>
        <time>2025-11-12T00:10:58.330Z</time>
      </trkpt>
      <trkpt lat="48.616434" lon="9.951474">
        <ele>605.339801</ele>
        <time>2025-11-12T00:11:07.191Z</time>
      </trkpt>
      <trkpt lat="48.616312" lon="9.951431">
        <ele>605.767700</ele>
        <time>2025-11-12T00:11:13.925Z</time>
      </trkpt>
      <trkpt lat="48.616154" lon="9.951427">
        <ele>606.307482</ele>
        <time>2025-11-12T00:11:23.168Z</time>
      </trkpt>
      <trkpt lat="48.615224" lon="9.951522">
        <ele>614.798395</ele>
        <time>2025-11-12T00:12:26.211Z</time>
      </trkpt>
      <trkpt lat="48.614882" lon="9.951455">
        <ele>618.500980</ele>
        <time>2025-11-12T00:12:50.503Z</time>
      </trkpt>
      <trkpt lat="48.613779" lon="9.950132">
        <ele>631.048884</ele>
        <time>2025-11-12T00:14:14.057Z</time>
      </trkpt>
      <trkpt lat="48.613369" lon="9.949703">
        <ele>634.516962</ele>
        <time>2025-11-12T00:14:36.976Z</time>
      </trkpt>
      <trkpt lat="48.612138" lon="9.948734">
        <ele>641.999976</ele>
        <time>2025-11-12T00:15:21.520Z</time>
      </trkpt>
      <trkpt lat="48.611552" lon="9.948411">
        <ele>644.572386</ele>
        <time>2025-11-12T00:15:40.529Z</time>
      </trkpt>
      <trkpt lat="48.611363" lon="9.948248">
        <ele>645.469726</ele>
        <time>2025-11-12T00:15:47.319Z</time>
      </trkpt>
      <trkpt lat="48.611161" lon="9.947935">
        <ele>646.613176</ele>
        <time>2025-11-12T00:15:56.311Z</time>
      </trkpt>
      <trkpt lat="48.610908" lon="9.947384">
        <ele>648.220077</ele>
        <time>2025-11-12T00:16:09.898Z</time>
      </trkpt>
      <trkpt lat="48.610692" lon="9.946990">
        <ele>649.446085</ele>
        <time>2025-11-12T00:16:20.082Z</time>
      </trkpt>
      <trkpt lat="48.610486" lon="9.946670">
        <ele>650.515921</ele>
        <time>2025-11-12T00:16:28.653Z</time>
      </trkpt>
      <trkpt lat="48.609637" lon="9.945505">
        <ele>654.699718</ele>
        <time>2025-11-12T00:17:00.071Z</time>
      </trkpt>
      <trkpt lat="48.608710" lon="9.944324">
        <ele>659.161916</ele>
        <time>2025-11-12T00:17:36.812Z</time>
      </trkpt>
      <trkpt lat="48.608366" lon="9.943947">
        <ele>660.579616</ele>
        <time>2025-11-12T00:17:50.369Z</time>
      </trkpt>
      <trkpt lat="48.607969" lon="9.943599">
        <ele>662.083224</ele>
        <time>2025-11-12T00:18:04.274Z</time>
      </trkpt>
      <trkpt lat="48.607631" lon="9.943380">
        <ele>663.288151</ele>
        <time>2025-11-12T00:18:14.832Z</time>
      </trkpt>
      <trkpt lat="48.606334" lon="9.942879">
        <ele>667.261232</ele>
        <time>2025-11-12T00:18:46.905Z</time>
      </trkpt>
      <trkpt lat="48.605371" lon="9.942494">
        <ele>669.959616</ele>
        <time>2025-11-12T00:19:17.795Z</time>
      </trkpt>
      <trkpt lat="48.604928" lon="9.942337">
        <ele>671.292586</ele>
        <time>2025-11-12T00:19:33.748Z</time>
      </trkpt>
      <trkpt lat="48.604455" lon="9.942287">
        <ele>672.702152</ele>
        <time>2025-11-12T00:19:50.383Z</time>
      </trkpt>
      <trkpt lat="48.604343" lon="9.942239">
        <ele>673.048218</ele>
        <time>2025-11-12T00:19:54.521Z</time>
      </trkpt>
      <trkpt lat="48.604266" lon="9.942168">
        <ele>673.316318</ele>
        <time>2025-11-12T00:19:57.689Z</time>
      </trkpt>
      <trkpt lat="48.604114" lon="9.941693">
        <ele>674.353655</ele>
        <time>2025-11-12T00:20:09.239Z</time>
      </trkpt>
      <trkpt lat="48.603942" lon="9.941522">
        <ele>674.965576</ele>
        <time>2025-11-12T00:20:15.187Z</time>
      </trkpt>
      <trkpt lat="48.603915" lon="9.941548">
        <ele>675.060733</ele>
        <time>2025-11-12T00:20:15.941Z</time>
      </trkpt>
      <trkpt lat="48.603792" lon="9.941722">
        <ele>675.513324</ele>
        <time>2025-11-12T00:20:19.728Z</time>
      </trkpt>
      <trkpt lat="48.603510" lon="9.942193">
        <ele>675.626591</ele>
        <time>2025-11-12T00:20:28.222Z</time>
      </trkpt>
      <trkpt lat="48.603402" lon="9.942427">
        <ele>675.677462</ele>
        <time>2025-11-12T00:20:31.282Z</time>
      </trkpt>
      <trkpt lat="48.603347" lon="9.942656">
        <ele>675.720895</ele>
        <time>2025-11-12T00:20:33.528Z</time>
      </trkpt>
      <trkpt lat="48.603225" lon="9.943420">
        <ele>675.861007</ele>
        <time>2025-11-12T00:20:40.647Z</time>
      </trkpt>
      <trkpt lat="48.603032" lon="9.944228">
        <ele>675.944958</ele>
        <time>2025-11-12T00:20:48.201Z</time>
      </trkpt>
      <trkpt lat="48.602994" lon="9.944483">
        <ele>675.836097</ele>
        <time>2025-11-12T00:20:50.416Z</time>
      </trkpt>
      <trkpt lat="48.602983" lon="9.944782">
        <ele>675.711383</ele>
        <time>2025-11-12T00:20:52.939Z</time>
      </trkpt>
      <trkpt lat="48.603035" lon="9.945113">
        <ele>675.569698</ele>
        <time>2025-11-12T00:20:55.803Z</time>
      </trkpt>
      <trkpt lat="48.603535" lon="9.946907">
        <ele>674.874527</ele>
        <time>2025-11-12T00:21:12.420Z</time>
      </trkpt>
      <trkpt lat="48.603671" lon="9.947526">
        <ele>674.911572</ele>
        <time>2025-11-12T00:21:18.129Z</time>
      </trkpt>
      <trkpt lat="48.603752" lon="9.948063">
        <ele>674.942854</ele>
        <time>2025-11-12T00:21:23.347Z</time>
      </trkpt>
      <trkpt lat="48.603780" lon="9.948370">
        <ele>674.960455</ele>
        <time>2025-11-12T00:21:26.522Z</time>
      </trkpt>
      <trkpt lat="48.603794" lon="9.949148">
        <ele>675.004657</ele>
        <time>2025-11-12T00:21:35.263Z</time>
      </trkpt>
      <trkpt lat="48.603653" lon="9.952191">
        <ele>676.354917</ele>
        <time>2025-11-12T00:22:13.562Z</time>
      </trkpt>
      <trkpt lat="48.603636" lon="9.952457">
        <ele>676.049136</ele>
        <time>2025-11-12T00:22:16.206Z</time>
      </trkpt>
      <trkpt lat="48.603552" lon="9.953205">
        <ele>675.181005</ele>
        <time>2025-11-12T00:22:22.622Z</time>
      </trkpt>
      <trkpt lat="48.603407" lon="9.953943">
        <ele>674.300083</ele>
        <time>2025-11-12T00:22:28.323Z</time>
      </trkpt>
      <trkpt lat="48.602771" lon="9.956318">
        <ele>667.586382</ele>
        <time>2025-11-12T00:22:44.809Z</time>
      </trkpt>
      <trkpt lat="48.602646" lon="9.956859">
        <ele>665.715938</ele>
        <time>2025-11-12T00:22:48.253Z</time>
      </trkpt>
      <trkpt lat="48.602570" lon="9.957351">
        <ele>664.015046</ele>
        <time>2025-11-12T00:22:51.249Z</time>
      </trkpt>
      <trkpt lat="48.602417" lon="9.959219">
        <ele>657.186996</ele>
        <time>2025-11-12T00:23:02.512Z</time>
      </trkpt>
      <trkpt lat="48.602400" lon="9.959392">
        <ele>656.552538</ele>
        <time>2025-11-12T00:23:03.614Z</time>
      </trkpt>
      <trkpt lat="48.601971" lon="9.962386">
        <ele>651.004631</ele>
        <time>2025-11-12T00:23:25.446Z</time>
      </trkpt>
      <trkpt lat="48.601567" lon="9.967495">
        <ele>647.688441</ele>
        <time>2025-11-12T00:24:08.254Z</time>
      </trkpt>
      <trkpt lat="48.601547" lon="9.968623">
        <ele>646.720905</ele>
        <time>2025-11-12T00:24:17.049Z</time>
      </trkpt>
      <trkpt lat="48.601551" lon="9.968765">
        <ele>646.574731</ele>
        <time>2025-11-12T00:24:18.127Z</time>
      </trkpt>
      <trkpt lat="48.601588" lon="9.970486">
        <ele>644.803812</ele>
        <time>2025-11-12T00:24:30.813Z</time>
      </trkpt>
      <trkpt lat="48.601657" lon="9.971183">
        <ele>644.401137</ele>
        <time>2025-11-12T00:24:36.177Z</time>
      </trkpt>
      <trkpt lat="48.601847" lon="9.972173">
        <ele>643.996987</ele>
        <time>2025-11-12T00:24:44.753Z</time>
      </trkpt>
      <trkpt lat="48.602008" lon="9.972843">
        <ele>643.717506</ele>
        <time>2025-11-12T00:24:51.558Z</time>
      </trkpt>
      <trkpt lat="48.602117" lon="9.973320">
        <ele>643.541701</ele>
        <time>2025-11-12T00:24:56.894Z</time>
      </trkpt>
      <trkpt lat="48.602203" lon="9.973921">
        <ele>643.691628</ele>
        <time>2025-11-12T00:25:03.632Z</time>
      </trkpt>
      <trkpt lat="48.602237" lon="9.974431">
        <ele>643.816606</ele>
        <time>2025-11-12T00:25:09.422Z</time>
      </trkpt>
      <trkpt lat="48.602241" lon="9.974481">
        <ele>643.828886</ele>
        <time>2025-11-12T00:25:09.987Z</time>
      </trkpt>
      <trkpt lat="48.602343" lon="9.977075">
        <ele>643.874038</ele>
        <time>2025-11-12T00:25:37.895Z</time>
      </trkpt>
      <trkpt lat="48.602313" lon="9.978169">
        <ele>643.550554</ele>
        <time>2025-11-12T00:25:47.221Z</time>
      </trkpt>
      <trkpt lat="48.602311" lon="9.978354">
        <ele>643.495891</ele>
        <time>2025-11-12T00:25:48.701Z</time>
      </trkpt>
      <trkpt lat="48.602460" lon="9.979766">
        <ele>641.727633</ele>
        <time>2025-11-12T00:25:59.563Z</time>
      </trkpt>
      <trkpt lat="48.602465" lon="9.980255">
        <ele>640.974329</ele>
        <time>2025-11-12T00:26:03.095Z</time>
      </trkpt>
      <trkpt lat="48.602354" lon="9.980659">
        <ele>640.300467</ele>
        <time>2025-11-12T00:26:06.176Z</time>
      </trkpt>
      <trkpt lat="48.602138" lon="9.981001">
        <ele>639.572013</ele>
        <time>2025-11-12T00:26:09.382Z</time>
      </trkpt>
      <trkpt lat="48.602009" lon="9.981099">
        <ele>639.235748</ele>
        <time>2025-11-12T00:26:10.820Z</time>
      </trkpt>
      <trkpt lat="48.601521" lon="9.981259">
        <ele>636.735581</ele>
        <time>2025-11-12T00:26:15.667Z</time>
      </trkpt>
      <trkpt lat="48.600341" lon="9.981565">
        <ele>630.649074</ele>
        <time>2025-11-12T00:26:26.782Z</time>
      </trkpt>
      <trkpt lat="48.599480" lon="9.981754">
        <ele>625.777166</ele>
        <time>2025-11-12T00:26:34.724Z</time>
      </trkpt>
      <trkpt lat="48.599101" lon="9.981754">
        <ele>623.624782</ele>
        <time>2025-11-12T00:26:38.159Z</time>
      </trkpt>
      <trkpt lat="48.598184" lon="9.981585">
        <ele>620.520021</ele>
        <time>2025-11-12T00:26:46.712Z</time>
      </trkpt>
      <trkpt lat="48.597741" lon="9.981620">
        <ele>621.680725</ele>
        <time>2025-11-12T00:26:52.300Z</time>
      </trkpt>
      <trkpt lat="48.597438" lon="9.981797">
        <ele>622.530641</ele>
        <time>2025-11-12T00:27:00.079Z</time>
      </trkpt>
      <trkpt lat="48.597308" lon="9.981873">
        <ele>622.895328</ele>
        <time>2025-11-12T00:27:04.514Z</time>
      </trkpt>
      <trkpt lat="48.597118" lon="9.981983">
        <ele>623.427664</ele>
        <time>2025-11-12T00:27:12.331Z</time>
      </trkpt>
      <trkpt lat="48.596734" lon="9.982123">
        <ele>624.461206</ele>
        <time>2025-11-12T00:27:31.331Z</time>
      </trkpt>
      <trkpt lat="48.596411" lon="9.982063">
        <ele>627.542633</ele>
        <time>2025-11-12T00:27:50.719Z</time>
      </trkpt>
      <trkpt lat="48.596176" lon="9.981844">
        <ele>630.378839</ele>
        <time>2025-11-12T00:28:08.978Z</time>
      </trkpt>
      <trkpt lat="48.595927" lon="9.981127">
        <ele>635.881720</ele>
        <time>2025-11-12T00:28:42.493Z</time>
      </trkpt>
      <trkpt lat="48.595662" lon="9.980809">
        <ele>639.357669</ele>
        <time>2025-11-12T00:29:01.672Z</time>
      </trkpt>
      <trkpt lat="48.595539" lon="9.980750">
        <ele>640.683475</ele>
        <time>2025-11-12T00:29:08.646Z</time>
      </trkpt>
      <trkpt lat="48.595409" lon="9.980734">
        <ele>642.023550</ele>
        <time>2025-11-12T00:29:15.480Z</time>
      </trkpt>
      <trkpt lat="48.595304" lon="9.980763">
        <ele>643.084507</ele>
        <time>2025-11-12T00:29:20.838Z</time>
      </trkpt>
      <trkpt lat="48.595152" lon="9.980904">
        <ele>644.187250</ele>
        <time>2025-11-12T00:29:29.381Z</time>
      </trkpt>
      <trkpt lat="48.595059" lon="9.981075">
        <ele>645.092704</ele>
        <time>2025-11-12T00:29:36.036Z</time>
      </trkpt>
      <trkpt lat="48.595008" lon="9.981269">
        <ele>645.946517</ele>
        <time>2025-11-12T00:29:42.011Z</time>
      </trkpt>
      <trkpt lat="48.594892" lon="9.982057">
        <ele>649.248192</ele>
        <time>2025-11-12T00:30:02.750Z</time>
      </trkpt>
      <trkpt lat="48.594775" lon="9.982463">
        <ele>651.059458</ele>
        <time>2025-11-12T00:30:12.880Z</time>
      </trkpt>
      <trkpt lat="48.594645" lon="9.982729">
        <ele>652.412158</ele>
        <time>2025-11-12T00:30:20.308Z</time>
      </trkpt>
      <trkpt lat="48.594499" lon="9.982929">
        <ele>653.630440</ele>
        <time>2025-11-12T00:30:27.155Z</time>
      </trkpt>
      <trkpt lat="48.594245" lon="9.983149">
        <ele>654.523542</ele>
        <time>2025-11-12T00:30:37.631Z</time>
      </trkpt>
      <trkpt lat="48.593230" lon="9.983729">
        <ele>656.454197</ele>
        <time>2025-11-12T00:31:08.844Z</time>
      </trkpt>
      <trkpt lat="48.592597" lon="9.984051">
        <ele>656.328301</ele>
        <time>2025-11-12T00:31:16.527Z</time>
      </trkpt>
      <trkpt lat="48.591232" lon="9.984746">
        <ele>647.242582</ele>
        <time>2025-11-12T00:31:29.391Z</time>
      </trkpt>
      <trkpt lat="48.589838" lon="9.985259">
        <ele>637.784233</ele>
        <time>2025-11-12T00:31:42.051Z</time>
      </trkpt>
      <trkpt lat="48.589623" lon="9.985377">
        <ele>636.266043</ele>
        <time>2025-11-12T00:31:44.178Z</time>
      </trkpt>
      <trkpt lat="48.589389" lon="9.985542">
        <ele>634.552237</ele>
        <time>2025-11-12T00:31:46.637Z</time>
      </trkpt>
      <trkpt lat="48.589127" lon="9.985790">
        <ele>633.873549</ele>
        <time>2025-11-12T00:31:49.725Z</time>
      </trkpt>
      <trkpt lat="48.588533" lon="9.986534">
        <ele>633.235990</ele>
        <time>2025-11-12T00:31:58.856Z</time>
      </trkpt>
      <trkpt lat="48.588459" lon="9.986641">
        <ele>633.151356</ele>
        <time>2025-11-12T00:32:00.424Z</time>
      </trkpt>
      <trkpt lat="48.588291" lon="9.986889">
        <ele>632.957284</ele>
        <time>2025-11-12T00:32:04.425Z</time>
      </trkpt>
      <trkpt lat="48.588162" lon="9.987162">
        <ele>632.773859</ele>
        <time>2025-11-12T00:32:08.913Z</time>
      </trkpt>
      <trkpt lat="48.588018" lon="9.987574">
        <ele>632.577615</ele>
        <time>2025-11-12T00:32:15.784Z</time>
      </trkpt>
      <trkpt lat="48.587977" lon="9.987912">
        <ele>632.563873</ele>
        <time>2025-11-12T00:32:20.937Z</time>
      </trkpt>
      <trkpt lat="48.588029" lon="9.988179">
        <ele>632.552742</ele>
        <time>2025-11-12T00:32:24.964Z</time>
      </trkpt>
      <trkpt lat="48.588129" lon="9.988491">
        <ele>632.538878</ele>
        <time>2025-11-12T00:32:29.564Z</time>
      </trkpt>
      <trkpt lat="48.588190" lon="9.988753">
        <ele>632.527771</ele>
        <time>2025-11-12T00:32:32.713Z</time>
      </trkpt>
      <trkpt lat="48.588197" lon="9.988936">
        <ele>632.520440</ele>
        <time>2025-11-12T00:32:34.582Z</time>
      </trkpt>
      <trkpt lat="48.588200" lon="9.989019">
        <ele>632.517116</ele>
        <time>2025-11-12T00:32:35.364Z</time>
      </trkpt>
      <trkpt lat="48.588202" lon="9.989431">
        <ele>632.500640</ele>
        <time>2025-11-12T00:32:38.991Z</time>
      </trkpt>
      <trkpt lat="48.588197" lon="9.989522">
        <ele>632.496989</ele>
        <time>2025-11-12T00:32:39.738Z</time>
      </trkpt>
      <trkpt lat="48.588178" lon="9.989864">
        <ele>632.483264</ele>
        <time>2025-11-12T00:32:42.387Z</time>
      </trkpt>
      <trkpt lat="48.588168" lon="9.990047">
        <ele>632.475921</ele>
        <time>2025-11-12T00:32:43.705Z</time>
      </trkpt>
      <trkpt lat="48.588160" lon="9.990184">
        <ele>632.290388</ele>
        <time>2025-11-12T00:32:44.658Z</time>
      </trkpt>
      <trkpt lat="48.588146" lon="9.990448">
        <ele>631.659257</ele>
        <time>2025-11-12T00:32:46.444Z</time>
      </trkpt>
      <trkpt lat="48.588142" lon="9.990507">
        <ele>631.517923</ele>
        <time>2025-11-12T00:32:46.839Z</time>
      </trkpt>
      <trkpt lat="48.588133" lon="9.990662">
        <ele>631.147138</ele>
        <time>2025-11-12T00:32:47.853Z</time>
      </trkpt>
      <trkpt lat="48.588054" lon="9.991746">
        <ele>628.548329</ele>
        <time>2025-11-12T00:32:54.812Z</time>
      </trkpt>
      <trkpt lat="48.587984" lon="9.992652">
        <ele>626.374645</ele>
        <time>2025-11-12T00:33:00.724Z</time>
      </trkpt>
      <trkpt lat="48.587912" lon="9.993350">
        <ele>624.388864</ele>
        <time>2025-11-12T00:33:05.379Z</time>
      </trkpt>
      <trkpt lat="48.587799" lon="9.993849">
        <ele>622.840239</ele>
        <time>2025-11-12T00:33:08.878Z</time>
      </trkpt>
      <trkpt lat="48.587711" lon="9.994124">
        <ele>621.943272</ele>
        <time>2025-11-12T00:33:10.873Z</time>
      </trkpt>
      <trkpt lat="48.587468" lon="9.994654">
        <ele>620.049826</ele>
        <time>2025-11-12T00:33:15.000Z</time>
      </trkpt>
      <trkpt lat="48.587210" lon="9.995057">
        <ele>618.403105</ele>
        <time>2025-11-12T00:33:18.500Z</time>
      </trkpt>
      <trkpt lat="48.586361" lon="9.995928">
        <ele>611.442536</ele>
        <time>2025-11-12T00:33:27.727Z</time>
      </trkpt>
      <trkpt lat="48.586150" lon="9.996255">
        <ele>609.325622</ele>
        <time>2025-11-12T00:33:30.395Z</time>
      </trkpt>
      <trkpt lat="48.585775" lon="9.996991">
        <ele>605.102423</ele>
        <time>2025-11-12T00:33:35.836Z</time>
      </trkpt>
      <trkpt lat="48.585285" lon="9.998106">
        <ele>600.207148</ele>
        <time>2025-11-12T00:33:43.887Z</time>
      </trkpt>
      <trkpt lat="48.585084" lon="9.998691">
        <ele>597.796458</ele>
        <time>2025-11-12T00:33:48.047Z</time>
      </trkpt>
      <trkpt lat="48.585034" lon="9.998955">
        <ele>596.792227</ele>
        <time>2025-11-12T00:33:49.810Z</time>
      </trkpt>
      <trkpt lat="48.585003" lon="9.999432">
        <ele>595.237002</ele>
        <time>2025-11-12T00:33:52.909Z</time>
      </trkpt>
      <trkpt lat="48.585221" lon="10.001774">
        <ele>590.594212</ele>
        <time>2025-11-12T00:34:08.657Z</time>
      </trkpt>
      <trkpt lat="48.585381" lon="10.003310">
        <ele>590.161399</ele>
        <time>2025-11-12T00:34:22.204Z</time>
      </trkpt>
      <trkpt lat="48.585472" lon="10.003900">
        <ele>590.176594</ele>
        <time>2025-11-12T00:34:28.001Z</time>
      </trkpt>
      <trkpt lat="48.585526" lon="10.004072">
        <ele>590.181369</ele>
        <time>2025-11-12T00:34:30.030Z</time>
      </trkpt>
      <trkpt lat="48.585571" lon="10.004187">
        <ele>590.184720</ele>
        <time>2025-11-12T00:34:31.483Z</time>
      </trkpt>
      <trkpt lat="48.585718" lon="10.004410">
        <ele>590.192616</ele>
        <time>2025-11-12T00:34:35.323Z</time>
      </trkpt>
      <trkpt lat="48.586092" lon="10.004694">
        <ele>591.489397</ele>
        <time>2025-11-12T00:34:45.630Z</time>
      </trkpt>
      <trkpt lat="48.586627" lon="10.004795">
        <ele>593.703417</ele>
        <time>2025-11-12T00:35:02.658Z</time>
      </trkpt>
      <trkpt lat="48.586836" lon="10.004983">
        <ele>594.702108</ele>
        <time>2025-11-12T00:35:10.861Z</time>
      </trkpt>
      <trkpt lat="48.586900" lon="10.005161">
        <ele>595.252430</ele>
        <time>2025-11-12T00:35:15.705Z</time>
      </trkpt>
      <trkpt lat="48.587005" lon="10.005721">
        <ele>596.833516</ele>
        <time>2025-11-12T00:35:30.616Z</time>
      </trkpt>
      <trkpt lat="48.587153" lon="10.006208">
        <ele>598.040533</ele>
        <time>2025-11-12T00:35:43.682Z</time>
      </trkpt>
      <trkpt lat="48.587154" lon="10.006364">
        <ele>598.315127</ele>
        <time>2025-11-12T00:35:47.178Z</time>
      </trkpt>
      <trkpt lat="48.587092" lon="10.006471">
        <ele>598.565501</ele>
        <time>2025-11-12T00:35:50.198Z</time>
      </trkpt>
      <trkpt lat="48.587001" lon="10.006544">
        <ele>598.839623</ele>
        <time>2025-11-12T00:35:53.288Z</time>
      </trkpt>
      <trkpt lat="48.586915" lon="10.006528">
        <ele>599.070188</ele>
        <time>2025-11-12T00:35:55.712Z</time>
      </trkpt>
      <trkpt lat="48.586832" lon="10.006412">
        <ele>599.370962</ele>
        <time>2025-11-12T00:35:58.669Z</time>
      </trkpt>
      <trkpt lat="48.586719" lon="10.005697">
        <ele>600.664890</ele>
        <time>2025-11-12T00:36:08.475Z</time>
      </trkpt>
      <trkpt lat="48.586598" lon="10.005445">
        <ele>601.212986</ele>
        <time>2025-11-12T00:36:11.815Z</time>
      </trkpt>
      <trkpt lat="48.586458" lon="10.005344">
        <ele>601.625758</ele>
        <time>2025-11-12T00:36:14.382Z</time>
      </trkpt>
      <trkpt lat="48.586304" lon="10.005301">
        <ele>602.042469</ele>
        <time>2025-11-12T00:36:17.236Z</time>
      </trkpt>
      <trkpt lat="48.586145" lon="10.005318">
        <ele>602.587959</ele>
        <time>2025-11-12T00:36:20.506Z</time>
      </trkpt>
      <trkpt lat="48.586016" lon="10.005386">
        <ele>603.401696</ele>
        <time>2025-11-12T00:36:23.700Z</time>
      </trkpt>
      <trkpt lat="48.585875" lon="10.005552">
        <ele>604.466175</ele>
        <time>2025-11-12T00:36:28.445Z</time>
      </trkpt>
      <trkpt lat="48.585704" lon="10.006006">
        <ele>606.524622</ele>
        <time>2025-11-12T00:36:39.714Z</time>
      </trkpt>
      <trkpt lat="48.585436" lon="10.007257">
        <ele>611.705730</ele>
        <time>2025-11-12T00:37:19.198Z</time>
      </trkpt>
      <trkpt lat="48.584826" lon="10.009216">
        <ele>622.905179</ele>
        <time>2025-11-12T00:38:32.481Z</time>
      </trkpt>
      <trkpt lat="48.584534" lon="10.009813">
        <ele>626.921617</ele>
        <time>2025-11-12T00:38:54.566Z</time>
      </trkpt>
      <trkpt lat="48.583908" lon="10.010682">
        <ele>631.161147</ele>
        <time>2025-11-12T00:39:27.365Z</time>
      </trkpt>
      <trkpt lat="48.583706" lon="10.010837">
        <ele>632.187918</ele>
        <time>2025-11-12T00:39:35.220Z</time>
      </trkpt>
      <trkpt lat="48.583531" lon="10.010923">
        <ele>633.021972</ele>
        <time>2025-11-12T00:39:41.380Z</time>
      </trkpt>
      <trkpt lat="48.583343" lon="10.010964">
        <ele>633.882909</ele>
        <time>2025-11-12T00:39:47.102Z</time>
      </trkpt>
      <trkpt lat="48.582699" lon="10.011048">
        <ele>636.075456</ele>
        <time>2025-11-12T00:40:02.490Z</time>
      </trkpt>
      <trkpt lat="48.582473" lon="10.011172">
        <ele>636.241498</ele>
        <time>2025-11-12T00:40:07.137Z</time>
      </trkpt>
      <trkpt lat="48.582265" lon="10.011430">
        <ele>636.427317</ele>
        <time>2025-11-12T00:40:11.931Z</time>
      </trkpt>
      <trkpt lat="48.582174" lon="10.011690">
        <ele>636.561705</ele>
        <time>2025-11-12T00:40:15.171Z</time>
      </trkpt>
      <trkpt lat="48.582088" lon="10.011980">
        <ele>636.706901</ele>
        <time>2025-11-12T00:40:18.394Z</time>
      </trkpt>
      <trkpt lat="48.582044" lon="10.012670">
        <ele>637.023605</ele>
        <time>2025-11-12T00:40:24.647Z</time>
      </trkpt>
      <trkpt lat="48.582042" lon="10.013537">
        <ele>637.105305</ele>
        <time>2025-11-12T00:40:33.209Z</time>
      </trkpt>
      <trkpt lat="48.582107" lon="10.014466">
        <ele>636.960147</ele>
        <time>2025-11-12T00:40:43.398Z</time>
      </trkpt>
      <trkpt lat="48.582247" lon="10.016513">
        <ele>635.359852</ele>
        <time>2025-11-12T00:41:00.988Z</time>
      </trkpt>
      <trkpt lat="48.582273" lon="10.016969">
        <ele>634.543811</ele>
        <time>2025-11-12T00:41:04.203Z</time>
      </trkpt>
      <trkpt lat="48.582411" lon="10.018348">
        <ele>632.057149</ele>
        <time>2025-11-12T00:41:13.419Z</time>
      </trkpt>
      <trkpt lat="48.582556" lon="10.019644">
        <ele>627.562109</ele>
        <time>2025-11-12T00:41:21.598Z</time>
      </trkpt>
      <trkpt lat="48.582603" lon="10.020072">
        <ele>626.032549</ele>
        <time>2025-11-12T00:41:24.249Z</time>
      </trkpt>
      <trkpt lat="48.582668" lon="10.020664">
        <ele>623.916908</ele>
        <time>2025-11-12T00:41:27.894Z</time>
      </trkpt>
      <trkpt lat="48.582748" lon="10.021394">
        <ele>622.329662</ele>
        <time>2025-11-12T00:41:32.367Z</time>
      </trkpt>
      <trkpt lat="48.582782" lon="10.021694">
        <ele>622.329662</ele>
        <time>2025-11-12T00:41:34.205Z</time>
      </trkpt>
      <trkpt lat="48.582791" lon="10.021823">
        <ele>622.329662</ele>
        <time>2025-11-12T00:41:35.000Z</time>
      </trkpt>
      <trkpt lat="48.582473" lon="10.021885">
        <ele>622.329662</ele>
        <time>2025-11-12T00:41:39.336Z</time>
      </trkpt>
      <trkpt lat="48.582127" lon="10.021952">
        <ele>622.329662</ele>
        <time>2025-11-12T00:41:44.243Z</time>
      </trkpt>
      <trkpt lat="48.582035" lon="10.021996">
        <ele>622.329662</ele>
        <time>2025-11-12T00:41:45.638Z</time>
      </trkpt>
    </trkseg>
  </trk>
</gpx>